[[{"header":{"parameterUnit":"m.s-1","parameterCategory":1,"la1":30.6,"la2":28.766,"lo1":-90.7593,"lo2":-88.6598,"dy":0.0162,"dx":0.0183,"nx":116,"ny":114,"refTime":"2024-05-10T06:00:00:Z","depth":0,"parameterNumber":2,"parameterNumberName":"U-component_of_WINDS"},"data":[0.0,0.0,0.0,0.0,0.0,0.0,0.0,0.0,0.0,0.0,0.0,0.0,0.0,0.0,0.0,0.0,0.0,0.0,0.0,0.0,0.0,0.0,0.0,0.0,0.0,0.0,0.0,0.0,0.0,0.0,0.0,0.0,0.0,0.0,0.0,0.0,0.0,0.0,0.0,0.0,0.0,0.0,0.0,0.0,0.0,0.0,0.0,0.0,0.0,0.0,0.0,0.0,0.0,0.0,0.0,0.0,0.0,0.0,0.0,0.0,0.0,0.0,0.0,0.0,0.0,0.0,0.0,0.0,0.0,0.0,0.0,0.0,0.0,0.0,0.0,0.0,0.0,0.0,0.0,0.0,0.0,0.0,0.0,0.0,0.0,0.0,0.0,0.0,0.0,0.0,0.0,0.0,0.0,0.0,0.0,0.0,0.0,0.0,0.0,0.0,0.0,0.0,0.0,0.0,0.0,0.0,0.0,0.0,0.0,0.0,0.0,0.0,0.0,0.0,0.0,0.0,0.0,0.0,0.0,0.0,0.0,0.0,0.0,0.0,0.0,0.0,0.0,0.0,0.0,0.0,0.0,0.0,0.0,0.0,0.0,0.0,0.0,0.0,0.0,0.0,0.0,0.0,0.0,0.0,0.0,0.0,0.0,0.0,0.0,0.0,0.0,0.0,0.0,0.0,0.0,0.0,0.0,0.0,0.0,0.0,0.0,0.0,0.0,0.0,0.0,0.0,0.0,0.0,0.0,0.0,0.0,0.0,0.0,0.0,0.0,0.0,0.0,0.0,0.0,0.0,0.0,0.0,0.0,0.0,0.0,0.0,0.0,0.0,0.0,0.0,0.0,0.0,0.0,0.0,0.0,0.0,0.0,0.0,0.0,0.0,0.0,0.0,0.0,0.0,0.0,0.0,0.0,0.0,0.0,0.0,0.0,0.0,0.0,0.0,0.0,0.0,0.0,0.0,0.0,0.0,0.0,0.0,0.0,0.0,0.0,0.0,0.0,0.0,0.0,0.0,0.0,0.0,0.0,0.0,0.0,0.0,0.0,0.0,0.0,0.0,0.0,0.0,0.0,0.0,0.0,0.0,0.0,0.0,0.0,0.0,0.0,0.0,0.0,0.0,0.0,0.0,0.0,0.0,0.0,0.0,0.0,0.0,0.0,0.0,0.0,0.0,0.0,0.0,0.0,0.0,0.0,0.0,0.0,0.0,0.0,0.0,0.0,0.0,0.0,0.0,0.0,0.0,0.0,0.0,0.0,0.0,0.0,0.0,0.0,0.0,0.0,0.0,0.0,0.0,0.0,0.0,0.0,0.0,0.0,0.0,0.0,0.0,0.0,0.0,0.0,0.0,0.0,0.0,0.0,0.0,0.0,0.0,0.0,0.0,0.0,0.0,0.0,0.0,0.0,0.0,0.0,0.0,0.0,0.0,0.0,0.0,0.0,0.0,0.0,0.0,0.0,0.0,0.0,0.0,0.0,0.0,0.0,0.0,0.0,0.0,0.0,0.0,0.0,0.0,0.0,0.0,0.0,0.0,0.0,0.0,0.0,0.0,0.0,0.0,0.0,0.0,0.0,0.0,0.0,0.0,0.0,0.0,0.0,0.0,0.0,0.0,0.0,0.0,0.0,0.0,0.0,0.0,0.0,0.0,0.0,0.0,0.0,0.0,0.0,0.0,0.0,0.0,0.0,0.0,0.0,0.0,0.0,0.0,0.0,0.0,0.0,0.0,0.0,0.0,0.0,0.0,0.0,0.0,0.0,0.0,0.0,0.0,0.0,0.0,0.0,0.0,0.0,0.0,0.0,0.0,0.0,0.0,0.0,0.0,0.0,0.0,0.0,0.0,0.0,0.0,0.0,0.0,0.0,0.0,0.0,0.0,0.0,0.0,0.0,0.0,0.0,0.0,0.0,0.0,0.0,0.0,0.0,0.0,0.0,0.0,0.0,0.0,0.0,0.0,0.0,0.0,0.0,0.0,0.0,0.0,0.0,0.0,0.0,0.0,0.0,0.0,0.0,0.0,0.0,0.0,0.0,0.0,0.0,0.0,0.0,0.0,0.0,0.0,0.0,0.0,0.0,0.0,0.0,0.0,0.0,0.0,0.0,0.0,0.0,0.0,0.0,0.0,0.0,0.0,0.0,0.0,0.0,0.0,0.0,0.0,0.0,0.0,0.0,0.0,0.0,0.0,0.0,0.0,0.0,0.0,0.0,0.0,0.0,0.0,0.0,0.0,0.0,0.0,0.0,0.0,0.0,0.0,0.0,0.0,0.0,0.0,0.0,0.0,0.0,0.0,0.0,0.0,0.0,0.0,0.0,0.0,0.0,0.0,0.0,0.0,0.0,0.0,0.0,0.0,0.0,0.0,0.0,0.0,0.0,0.0,0.0,0.0,0.0,0.0,0.0,0.0,0.0,0.0,0.0,0.0,0.0,0.0,0.0,0.0,0.0,0.0,0.0,0.0,0.0,0.0,0.0,0.0,0.0,0.0,0.0,0.0,0.0,0.0,0.0,0.0,0.0,0.0,0.0,0.0,0.0,0.0,0.0,0.0,0.0,0.0,0.0,0.0,0.0,0.0,0.0,0.0,0.0,0.0,0.0,0.0,0.0,0.0,0.0,0.0,0.0,0.0,0.0,0.0,0.0,0.0,0.0,0.0,0.0,0.0,0.0,0.0,0.0,0.0,0.0,0.0,0.0,0.0,0.0,0.0,0.0,0.0,0.0,0.0,0.0,0.0,0.0,0.0,0.0,0.0,0.0,0.0,0.0,0.0,0.0,0.0,0.0,0.0,0.0,0.0,0.0,0.0,0.0,0.0,0.0,0.0,0.0,0.0,0.0,0.0,0.0,0.0,0.0,0.0,0.0,0.0,0.0,0.0,0.0,0.0,0.0,0.0,0.0,0.0,0.0,0.0,0.0,0.0,0.0,0.0,0.0,0.0,0.0,0.0,0.0,0.0,0.0,0.0,0.0,0.0,0.0,0.0,0.0,0.0,0.0,0.0,0.0,0.0,0.0,0.0,0.0,0.0,0.0,0.0,0.0,0.0,0.0,0.0,0.0,0.0,0.0,0.0,0.0,0.0,0.0,0.0,0.0,0.0,0.0,0.0,0.0,0.0,0.0,0.0,0.0,0.0,0.0,0.0,0.0,0.0,0.0,0.0,0.0,0.0,0.0,0.0,0.0,0.0,0.0,0.0,0.0,0.0,0.0,0.0,0.0,0.0,0.0,0.0,0.0,0.0,0.0,0.0,0.0,0.0,0.0,0.0,0.0,0.0,0.0,0.0,0.0,0.0,0.0,0.0,0.0,0.0,0.0,0.0,0.0,0.0,0.0,0.0,0.0,0.0,0.0,0.0,0.0,0.0,0.0,0.0,0.0,0.0,0.0,0.0,0.0,0.0,0.0,0.0,0.0,0.0,0.0,0.0,0.0,0.0,0.0,0.0,0.0,0.0,0.0,0.0,0.0,0.0,0.0,0.0,0.0,0.0,0.0,0.0,0.0,0.0,0.0,0.0,0.0,0.0,0.0,0.0,0.0,0.0,0.0,0.0,0.0,0.0,0.0,0.0,0.0,0.0,0.0,0.0,0.0,0.0,0.0,0.0,0.0,0.0,0.0,0.0,0.0,0.0,0.0,0.0,0.0,0.0,0.0,0.0,0.0,0.0,0.0,0.0,0.0,0.0,0.0,0.0,0.0,0.0,0.0,0.0,0.0,0.0,0.0,0.0,0.0,0.0,0.0,0.0,0.0,0.0,0.0,0.0,0.0,0.0,0.0,0.0,0.0,0.0,0.0,0.0,0.0,0.0,0.0,0.0,0.0,0.0,0.0,0.0,0.0,0.0,0.0,0.0,0.0,0.0,0.0,0.0,0.0,0.0,0.0,0.0,0.0,0.0,0.0,0.0,0.0,0.0,0.0,0.0,0.0,0.0,0.0,0.0,0.0,0.0,0.0,0.0,0.0,0.0,0.0,0.0,0.0,0.0,0.0,0.0,0.0,0.0,0.0,0.0,0.0,0.0,0.0,0.0,0.0,0.0,0.0,0.0,0.0,0.0,0.0,0.0,0.0,0.0,0.0,0.0,0.0,0.0,0.0,0.0,0.0,0.0,0.0,0.0,0.0,0.0,0.0,0.0,0.0,0.0,0.0,0.0,0.0,0.0,0.0,0.0,0.0,0.0,0.0,0.0,0.0,0.0,0.0,0.0,0.0,0.0,0.0,0.0,0.0,0.0,0.0,0.0,0.0,0.0,0.0,0.0,0.0,0.0,0.0,0.0,0.0,0.0,0.0,0.0,0.0,0.0,0.0,0.0,0.0,0.0,0.0,0.0,0.0,0.0,0.0,0.0,0.0,0.0,0.0,0.0,0.0,0.0,0.0,0.0,0.0,0.0,0.0,0.0,0.0,0.0,0.0,0.0,0.0,0.0,0.0,0.0,0.0,0.0,0.0,0.0,0.0,0.0,0.0,0.0,0.0,0.0,0.0,0.0,0.0,0.0,0.0,0.0,0.0,0.0,0.0,0.0,0.0,0.0,0.0,0.0,0.0,0.0,0.0,0.0,0.0,0.0,0.0,0.0,0.0,0.0,0.0,0.0,0.0,0.0,0.0,0.0,0.0,0.0,0.0,0.0,0.0,0.0,0.0,0.0,0.0,0.0,0.0,0.0,0.0,0.0,0.0,0.0,0.0,0.0,0.0,0.0,0.0,0.0,0.0,0.0,0.0,0.0,0.0,0.0,0.0,0.0,0.0,0.0,0.0,0.0,0.0,0.0,0.0,0.0,0.0,0.0,0.0,0.0,0.0,0.0,0.0,0.0,0.0,0.0,0.0,0.0,0.0,0.0,0.0,0.0,0.0,0.0,0.0,0.0,0.0,0.0,0.0,0.0,0.0,0.0,0.0,0.0,0.0,0.0,0.0,0.0,0.0,0.0,0.0,0.0,0.0,0.0,0.0,0.0,0.0,0.0,0.0,0.0,0.0,0.0,0.0,0.0,0.0,0.0,0.0,0.0,0.0,0.0,0.0,0.0,0.0,0.0,0.0,0.0,0.0,0.0,0.0,0.0,0.0,0.0,0.0,0.0,0.0,0.0,0.0,0.0,0.0,0.0,0.0,0.0,0.0,0.0,0.0,0.0,0.0,0.0,0.0,0.0,0.0,0.0,0.0,0.0,0.0,0.0,0.0,0.0,0.0,0.0,0.0,0.0,0.0,0.0,0.0,0.0,0.0,0.0,0.0,0.0,0.0,0.0,0.0,0.0,0.0,0.0,0.0,0.0,0.0,0.0,0.0,0.0,0.0,0.0,0.0,0.0,0.0,0.0,0.0,0.0,0.0,0.0,0.0,0.0,0.0,0.0,0.0,0.0,0.0,0.0,0.0,0.0,0.0,0.0,0.0,0.0,0.0,0.0,0.0,0.0,0.0,0.0,0.0,0.0,0.0,0.0,0.0,0.0,0.0,0.0,0.0,0.0,0.0,0.0,0.0,0.0,0.0,0.0,0.0,0.0,0.0,0.0,0.0,0.0,0.0,0.0,0.0,0.0,0.0,0.0,0.0,0.0,0.0,0.0,0.0,0.0,0.0,0.0,0.0,0.0,0.0,0.0,0.0,0.0,0.0,0.0,0.0,0.0,0.0,0.0,0.0,0.0,0.0,0.0,0.0,0.0,0.0,0.0,0.0,0.0,0.0,0.0,0.0,0.0,0.0,0.0,0.0,0.0,0.0,0.0,0.0,0.0,0.0,0.0,0.0,0.0,0.0,0.0,0.0,0.0,0.0,0.0,0.0,0.0,0.0,0.0,0.0,0.0,0.0,0.0,0.0,0.0,0.0,0.0,0.0,0.0,0.0,0.0,0.0,0.0,0.0,0.0,0.0,0.0,0.0,0.0,0.0,0.0,0.0,0.0,0.0,0.0,0.0,0.0,0.0,0.0,0.0,0.0,0.0,0.0,0.0,0.0,0.0,0.0,0.0,0.0,0.0,0.0,0.0,0.0,0.0,0.0,0.0,0.0,0.0,0.0,0.0,0.0,0.0,0.0,0.0,0.0,0.0,0.0,0.0,0.0,0.0,0.0,0.0,0.0,0.0,0.0,0.0,0.0,-2.6832,0.0,0.0,0.0,0.0,0.0,0.0,0.0,0.0,0.0,0.0,0.0,0.0,0.0,0.0,0.0,0.0,0.0,0.0,0.0,0.0,0.0,0.0,0.0,0.0,-2.8323,-2.8618,-2.8723,-2.8852,-2.8906,-2.8906,0.0,0.0,0.0,0.0,0.0,-2.8906,-2.9046,-2.9026,-2.8906,-2.9485,-2.9605,-2.9219,-2.8393,-2.8028,-2.8028,0.0,0.0,0.0,0.0,0.0,0.0,0.0,0.0,0.0,0.0,0.0,0.0,0.0,0.0,0.0,0.0,0.0,0.0,0.0,0.0,0.0,0.0,0.0,0.0,0.0,0.0,0.0,0.0,0.0,0.0,0.0,0.0,0.0,0.0,0.0,0.0,0.0,0.0,0.0,0.0,0.0,0.0,0.0,0.0,0.0,0.0,0.0,0.0,0.0,0.0,0.0,0.0,0.0,0.0,0.0,0.0,0.0,0.0,0.0,0.0,0.0,0.0,0.0,0.0,0.0,0.0,0.0,0.0,0.0,0.0,0.0,-2.7898,0.0,0.0,0.0,0.0,0.0,0.0,0.0,0.0,0.0,0.0,0.0,0.0,0.0,0.0,0.0,0.0,0.0,0.0,0.0,0.0,0.0,-2.8288,-2.8523,-2.8839,-2.918,-2.9607,-2.9626,-2.9682,-2.9885,-2.9885,0.0,0.0,-3.0218,-3.0258,-3.0318,-3.1011,-3.0997,-3.0122,-3.102,-3.0893,-2.9846,-2.9697,-2.9622,-2.9565,-2.9482,0.0,0.0,0.0,0.0,0.0,0.0,0.0,0.0,0.0,0.0,0.0,0.0,0.0,0.0,0.0,0.0,0.0,0.0,0.0,0.0,0.0,0.0,0.0,0.0,0.0,0.0,0.0,0.0,0.0,0.0,0.0,0.0,0.0,0.0,0.0,0.0,0.0,0.0,0.0,0.0,0.0,0.0,0.0,0.0,0.0,0.0,0.0,0.0,0.0,0.0,0.0,0.0,0.0,0.0,0.0,0.0,0.0,0.0,0.0,0.0,0.0,0.0,0.0,-3.5002,-3.5157,-3.5508,-3.5608,-3.5533,-3.509,-3.0539,-2.9095,-2.9942,0.0,0.0,0.0,0.0,0.0,0.0,0.0,0.0,0.0,0.0,0.0,0.0,0.0,0.0,0.0,0.0,0.0,0.0,0.0,0.0,-2.9222,-2.891,-2.9258,-2.9512,-2.957,-2.9626,-3.0052,-3.1079,-3.1189,-3.1605,-3.2684,-3.2738,-3.2879,-3.3214,-3.2032,-3.1692,-3.2272,-3.1756,-3.125,-3.0816,-3.1461,-3.1655,-3.1277,-2.9508,-2.8897,-2.9178,0.0,0.0,0.0,0.0,0.0,0.0,0.0,0.0,0.0,0.0,0.0,0.0,0.0,0.0,0.0,0.0,0.0,0.0,0.0,0.0,0.0,0.0,0.0,0.0,0.0,0.0,0.0,0.0,0.0,0.0,0.0,0.0,0.0,0.0,0.0,0.0,0.0,0.0,0.0,0.0,0.0,-3.1524,-3.1597,0.0,0.0,0.0,0.0,0.0,0.0,0.0,0.0,0.0,0.0,0.0,0.0,0.0,0.0,-3.5625,-3.555,-3.5719,-3.6204,-3.6182,-3.5909,-3.5508,-3.6031,-3.573,-3.4781,-3.4504,0.0,-3.2554,-3.2074,0.0,0.0,0.0,0.0,0.0,0.0,0.0,0.0,0.0,0.0,0.0,0.0,0.0,0.0,0.0,0.0,0.0,0.0,0.0,0.0,0.0,-3.0472,-3.041,-3.0644,-3.0898,-3.1422,-3.2401,-3.2437,-3.2896,-3.3835,-3.3868,-3.3956,-3.4119,-3.3427,-3.3177,-3.3372,-3.2615,-3.2419,-3.2762,-3.2894,-3.2991,-3.2995,-3.1207,-3.0346,-3.0142,-2.9852,0.0,0.0,0.0,0.0,0.0,0.0,0.0,0.0,0.0,0.0,0.0,0.0,0.0,0.0,0.0,0.0,0.0,0.0,0.0,0.0,0.0,0.0,0.0,0.0,0.0,0.0,0.0,0.0,0.0,0.0,0.0,0.0,0.0,0.0,0.0,0.0,0.0,0.0,0.0,-3.1793,-3.213,-3.213,-3.213,-3.213,0.0,0.0,0.0,0.0,0.0,0.0,0.0,0.0,0.0,-3.561,-3.618,-3.6872,-3.7616,-3.8216,-3.8592,-3.8693,-3.9019,-3.8993,-3.8768,-3.9044,-3.8894,-3.8392,-3.8316,-3.7387,-3.5683,-3.3628,-3.2258,-3.1461,0.0,0.0,0.0,0.0,0.0,-3.1386,0.0,0.0,0.0,0.0,0.0,0.0,0.0,0.0,0.0,0.0,0.0,0.0,-3.2029,-3.1614,-3.1387,-3.1816,-3.2432,-3.3135,-3.3884,-3.4086,-3.4553,-3.53,-3.5333,-3.5333,-3.5333,-3.5413,-3.5294,-3.4819,-3.4698,-3.4995,-3.5763,-3.5505,-3.5251,-3.4938,-3.3721,-3.2471,-3.1123,-3.0567,-3.0122,-2.989,0.0,0.0,0.0,0.0,0.0,0.0,0.0,0.0,0.0,0.0,0.0,0.0,0.0,0.0,0.0,0.0,0.0,0.0,0.0,0.0,0.0,0.0,0.0,0.0,0.0,0.0,0.0,0.0,0.0,0.0,0.0,0.0,0.0,0.0,0.0,0.0,0.0,-3.237,-3.2803,-3.2539,-3.2971,-3.3234,0.0,0.0,0.0,0.0,0.0,0.0,-3.5328,-3.6308,-3.7271,-3.8241,-3.8615,-3.9267,-4.0124,-4.0802,-4.1229,-4.1354,-4.1781,-4.1902,-4.1927,-4.2053,-4.1902,-4.153,-4.1254,-4.0199,-3.8417,-3.5529,-3.3847,-3.2993,-3.219,-3.1847,-3.1822,-3.1712,-3.1913,-3.224,0.0,0.0,0.0,0.0,0.0,0.0,0.0,0.0,0.0,0.0,0.0,-3.2014,-3.2602,-3.2354,-3.2285,-3.2695,-3.3882,-3.4865,-3.5518,-3.6319,-3.709,-3.7785,-3.7814,-3.7814,-3.7814,-3.8195,-3.8096,-3.7402,-3.8784,-3.975,-4.0277,-4.0212,-3.9196,-3.7408,-3.6974,-3.4853,-3.1623,-3.086,-3.0272,-2.9872,-3.1023,0.0,0.0,0.0,0.0,0.0,0.0,0.0,0.0,0.0,0.0,0.0,0.0,0.0,0.0,0.0,0.0,0.0,0.0,0.0,0.0,0.0,0.0,0.0,0.0,0.0,0.0,0.0,0.0,0.0,0.0,0.0,0.0,0.0,0.0,0.0,0.0,0.0,0.0,-3.2611,-3.4246,0.0,0.0,0.0,0.0,-3.5545,-3.653,-3.7295,-3.7519,-3.9086,-4.0614,-4.1882,-4.1986,-4.2459,-4.3539,-4.3087,-4.3112,-4.3639,-4.3664,-4.3664,-4.3689,-4.4217,-4.3589,-4.2187,-4.2635,-4.1907,-4.0249,-3.8492,-3.681,-3.5332,-3.5282,-3.5257,-3.5182,-3.4655,-3.4525,-3.4505,0.0,0.0,0.0,0.0,0.0,-3.1986,-3.1632,-3.22,-3.3041,-3.4056,-3.4087,-3.4161,-3.4575,-3.5491,-3.5933,-3.5536,-3.6686,-3.7575,-3.7915,-3.7645,-3.7603,-3.7969,-3.7974,-3.7965,-3.7863,-3.833,-3.8721,-3.8935,-4.045,-4.1507,-4.2298,-4.2606,-4.2223,-4.1201,-4.047,-3.8916,-3.6645,-3.3922,-3.2824,-3.3054,-3.3526,-3.3834,0.0,0.0,0.0,0.0,0.0,0.0,0.0,0.0,0.0,0.0,0.0,0.0,0.0,0.0,0.0,0.0,0.0,0.0,0.0,0.0,0.0,0.0,0.0,0.0,0.0,0.0,0.0,0.0,0.0,0.0,0.0,0.0,0.0,0.0,0.0,0.0,0.0,-3.6002,-3.7012,0.0,-3.8084,-3.8118,-3.8347,-3.8822,-4.0177,-4.1259,-4.1928,-4.2962,-4.4009,-4.4794,-4.5171,-4.5372,-4.5422,-4.5899,-4.5899,-4.5422,-4.5422,-4.5221,-4.4869,-4.4694,-4.4292,-4.3714,-4.3212,-4.2434,-4.1505,-4.0551,-3.8743,-3.6533,-3.5784,-3.5282,-3.4981,-3.5157,-3.4981,-3.4731,0.0,0.0,0.0,-3.1268,-3.2358,-3.3225,-3.3285,-3.375,-3.4538,-3.562,-3.5795,-3.6169,-3.7066,-3.8089,-3.869,-3.8679,-3.9316,-3.9758,-3.973,-3.885,-3.8351,-3.8257,-3.8431,-3.8776,-3.9195,-4.0223,-4.1376,-4.2616,-4.3799,-4.4891,-4.598,-4.5957,-4.5475,-4.447,-4.3891,-4.2683,-4.0899,-3.8189,-3.641,-3.5504,-3.5725,-3.5845,-3.5972,0.0,0.0,0.0,0.0,0.0,0.0,0.0,0.0,0.0,0.0,0.0,0.0,0.0,0.0,0.0,0.0,0.0,0.0,0.0,0.0,0.0,0.0,0.0,0.0,0.0,0.0,0.0,0.0,0.0,0.0,0.0,0.0,0.0,0.0,0.0,-3.8016,-3.8994,-4.003,-4.0813,-4.1433,-4.1928,-4.2418,-4.2881,-4.4883,-4.6306,-4.6882,-4.7325,-4.7835,-4.837,-4.8106,-4.7883,-4.7707,-4.8209,-4.8033,-4.7129,-4.7129,-4.6753,-4.6024,-4.5648,-4.5271,-4.4869,-4.4141,-4.3388,-4.266,-4.1932,-4.0425,-3.8467,-3.7362,-3.6609,-3.6157,-3.626,-3.611,-3.5881,0.0,-2.9568,-3.0372,-3.1612,-3.2046,-3.2733,-3.4396,-3.4768,-3.5282,-3.6258,-3.6825,-3.7849,-3.9827,-3.9904,-4.0449,-4.1837,-4.1746,-4.1368,-4.0862,-4.0077,-3.9369,-3.8864,-3.9369,-4.0403,-4.2038,-4.413,-4.6247,-4.8339,-4.8892,-4.995,-5.1465,-5.0431,-4.8988,-4.712,-4.712,-4.5943,-4.3963,-4.3479,-4.0876,-3.7111,-3.7324,-3.7257,-3.7063,0.0,0.0,0.0,0.0,0.0,0.0,0.0,0.0,0.0,0.0,0.0,0.0,0.0,0.0,0.0,0.0,0.0,0.0,0.0,0.0,0.0,0.0,0.0,0.0,0.0,0.0,0.0,0.0,0.0,0.0,0.0,0.0,0.0,-3.6283,-3.8526,-4.0563,-4.1571,-4.3256,-4.4421,-4.4577,-4.6245,-4.7393,-4.7731,-5.0451,-5.2178,-5.2205,-5.1976,-5.2072,-5.2623,-5.0819,-5.0046,-5.055,-4.9981,-4.9428,-4.8964,-4.8875,-4.8297,-4.7205,-4.7179,-4.6577,-4.5581,-4.5581,-4.4869,-4.3714,-4.2715,-4.1856,-4.115,-4.0124,-3.9346,-3.8844,-3.8266,-3.804,-3.804,-2.9627,-3.1381,-3.3021,-3.3586,-3.5144,-3.6237,-3.5943,-3.6621,-3.6939,-3.6456,-3.8186,-3.9575,-3.9896,-4.2118,-4.3653,-4.3866,-4.3665,-4.3312,-4.2851,-4.0808,-3.9537,-3.9393,-4.0258,-4.1846,-4.4227,-4.5958,-4.769,-4.9421,-5.0383,-5.1056,-5.1489,-5.1586,-5.1178,-5.0223,-5.0223,-4.9272,-4.7607,-4.7084,-4.5509,-4.32,-4.074,-3.9406,-3.8856,0.0,0.0,0.0,0.0,0.0,0.0,0.0,0.0,0.0,0.0,0.0,0.0,0.0,0.0,0.0,0.0,0.0,0.0,0.0,0.0,0.0,0.0,0.0,0.0,0.0,0.0,0.0,0.0,0.0,0.0,0.0,-4.0592,-4.1413,-4.0058,-4.2562,-4.547,-4.8085,-4.9554,-5.0638,-5.1266,-5.145,-5.1863,-5.256,-5.3435,-5.4269,-5.5018,-5.4997,-5.5051,-5.5149,-5.4671,-5.4293,-5.4027,-5.2877,-5.2207,-5.2052,-5.0231,-4.9673,-5.023,-4.8469,-4.7856,-4.804,-4.667,-4.5221,-4.379,-4.3463,-4.2333,-4.0676,-3.9973,-3.9346,-3.8944,-3.9145,-3.8969,-3.8567,-3.0548,-3.2052,-3.3586,-3.4759,-3.6208,-3.7157,-3.6816,-3.7445,-3.7685,-3.6843,-3.9056,-4.0813,-4.1067,-4.3279,-4.4896,-4.5118,-4.4055,-4.3216,-4.2964,-4.1244,-4.0547,-4.122,-4.2495,-4.4419,-4.7064,-4.8243,-4.9614,-5.1201,-5.1634,-5.2043,-5.2475,-5.2572,-5.2451,-5.2163,-5.2163,-5.1393,-5.007,-4.9758,-4.8579,-4.6728,-4.4448,-4.252,-4.086,-4.0161,-3.9354,-3.8503,-3.8286,-3.7709,-3.706,-3.706,0.0,0.0,0.0,0.0,0.0,0.0,0.0,0.0,0.0,0.0,0.0,0.0,0.0,0.0,0.0,0.0,0.0,0.0,0.0,0.0,0.0,0.0,0.0,0.0,-4.4232,-4.5767,-4.6652,-4.7608,-4.9337,-5.2466,-5.3328,-5.3974,-5.4816,-5.519,-5.559,-5.6099,-5.6926,-5.7645,-5.8283,-5.7751,-5.7409,-5.7409,-5.6841,-5.6359,-5.607,-5.5243,-5.4751,-5.4485,-5.3057,-5.235,-5.2332,-5.0935,-4.9828,0.0,-4.7957,-4.6358,-4.4468,-4.3991,-4.2911,0.0,0.0,0.0,0.0,0.0,-3.9496,-3.917,-3.1381,-3.2129,-3.3304,-3.5311,-3.6045,-3.6556,-3.712,-3.7637,-3.7781,-3.7252,-3.9465,-4.1485,-4.253,-4.3529,-4.4525,-4.5645,-4.3385,-4.1894,-4.1894,-4.1509,-4.2014,-4.3697,-4.5333,-4.7401,-4.9998,-5.072,-5.1802,-5.3341,-5.2932,-5.3197,-5.4087,-5.3582,-5.3293,-5.3245,-5.3173,-5.2596,-5.1658,-5.161,-5.0455,-4.8603,-4.8002,-4.5838,-4.288,-4.2279,-4.1437,-4.0499,-3.997,-3.9128,-3.8238,-3.819,0.0,0.0,0.0,0.0,0.0,0.0,0.0,0.0,0.0,0.0,0.0,0.0,0.0,0.0,0.0,0.0,0.0,0.0,0.0,0.0,0.0,0.0,0.0,0.0,-4.7617,-4.9829,-5.4316,-5.3244,-5.2995,-5.5607,-5.5784,-5.5905,-5.6702,-5.7964,-5.8697,-5.8612,-6.0301,-6.128,-6.1193,0.0,0.0,0.0,0.0,-5.7487,-5.7487,-5.7295,-5.6959,-5.6505,-5.6242,-5.5344,-5.4008,-5.3691,-5.2143,-4.9699,-4.9528,-4.808,-4.5943,-4.4744,-4.3858,-4.3148,-4.1789,-4.0651,-3.9772,-3.9722,-3.9697,0.0,-3.084,-3.3247,-3.5278,-3.4781,-3.6317,-3.7541,-3.7276,-3.7637,-3.7781,-3.7252,-3.9152,-4.0787,-4.1413,-4.2447,-4.3505,-4.4501,-4.2615,-4.1341,-4.1341,-4.1629,-4.2904,-4.5357,-4.6992,-4.8892,-5.1129,-5.2524,-5.3798,-5.4952,-5.5289,-5.5578,-5.5746,-5.5193,-5.4712,-5.4279,-5.387,-5.3341,-5.274,-5.2307,-5.1634,-5.0792,-4.9806,-4.7257,-4.3938,-4.2976,-4.2265,-4.1605,-4.1076,-4.0475,-3.9874,-3.9441,-3.8864,-3.8286,-3.795,-3.7757,0.0,0.0,0.0,0.0,0.0,0.0,0.0,0.0,0.0,0.0,0.0,0.0,0.0,0.0,0.0,0.0,0.0,0.0,0.0,-5.0452,-5.2216,-5.4373,-5.7859,-5.8198,-5.836,-5.9205,-5.9661,-6.0033,-6.0209,-6.094,-6.1149,-6.0658,-6.1449,-6.1716,-6.1222,-6.0952,0.0,-6.0802,-6.0531,-6.0409,-6.0409,-5.9245,-5.8662,-5.8522,0.0,0.0,-5.6452,-5.4402,-5.3526,-5.346,-5.1894,-5.0447,-4.9037,-4.7775,-4.6384,-4.4728,-4.1821,-4.0551,-4.03,-3.9848,-3.9697,-3.9697,-3.1825,-3.4056,-3.6177,-3.6208,-3.7203,-3.7902,-3.7637,-3.7805,-3.7878,-3.7613,-3.9008,-4.009,-4.0355,-4.11,-4.1798,-4.2327,-4.1148,-4.0739,-4.1533,-4.2808,-4.4852,-4.7762,-4.9421,-5.1153,-5.3004,-5.3822,-5.4592,-5.5385,-5.5674,-5.5818,-5.5794,-5.553,-5.5121,-5.4592,-5.4327,-5.3918,-5.3437,-5.3149,-5.2596,-5.1826,-5.1008,-4.9084,-4.6607,-4.5549,-4.4467,-4.3457,-4.2663,-4.1846,-4.1076,-4.0258,-3.9657,-3.9128,-3.8575,-3.8407,-3.8286,0.0,0.0,0.0,0.0,0.0,0.0,0.0,0.0,0.0,0.0,0.0,0.0,0.0,0.0,-4.4743,-4.6773,0.0,-5.0612,-5.4432,-5.5785,-5.7426,-6.0292,-6.058,-6.0521,-6.07,-6.099,-6.1309,-6.16,-6.1919,-6.2093,-6.2151,-6.2412,-6.2325,-6.1687,-6.1658,-6.1513,-6.1222,-6.1193,-6.1193,-6.1193,-6.047,-6.0165,-6.0137,-5.8871,-5.8419,-5.8648,-5.7087,-5.592,-5.4964,-5.3379,-5.1809,-5.034,-4.8762,-4.7405,-4.6186,-4.3912,-4.2656,-4.1928,-4.0286,-4.0032,-4.0364,-3.3176,-3.4747,-3.6503,-3.7495,-3.7814,-3.7974,-3.7974,-3.7974,-3.7974,-3.7974,-3.8839,-3.9465,-3.9465,-3.9826,-4.0042,-3.9946,-3.9729,-4.0355,-4.2158,-4.4154,-4.6752,-5.0046,-5.1634,-5.3077,-5.4423,-5.4664,-5.5025,-5.5554,-5.577,-5.5866,-5.5866,-5.577,-5.5361,-5.476,-5.4664,-5.4303,-5.3822,-5.3822,-5.3341,-5.2524,-5.1898,-5.0744,-4.9277,-4.8219,-4.6752,-4.514,-4.4082,-4.3012,-4.1822,-4.0739,-3.997,-3.9369,-3.8815,-3.8647,-3.8629,-3.8384,-3.8291,0.0,0.0,0.0,0.0,0.0,0.0,0.0,0.0,-4.2549,-4.354,-4.518,-4.6067,-4.7342,-4.9831,-5.1656,-5.3955,-5.7599,-5.8523,-5.9509,-6.1629,-6.1513,-6.1193,-6.1193,-6.1193,-6.1396,-6.1861,-6.2035,-6.2325,-6.2848,-6.2906,-6.2674,-6.2122,-6.1977,-6.1687,-6.1222,-6.1193,-6.1193,-6.1193,-6.1193,-6.1193,-6.1193,-6.0961,-6.0555,-6.0003,-5.9248,-5.7772,-5.582,-5.4516,-5.2911,-5.1126,-4.9473,-4.8482,-4.7821,-4.6377,-4.5358,-4.4327,-4.1512,-4.0948,-4.1369,-3.4056,-3.5278,-3.6231,-3.6394,-3.7281,-3.7974,-3.7974,-3.7974,-3.7974,-3.7974,-3.8527,-3.8912,-3.8912,-3.896,-3.8791,-3.8286,-3.908,-4.0667,-4.3168,-4.49,-4.7473,-5.1153,-5.2379,-5.3269,-5.3894,-5.4832,-5.5578,-5.6131,-5.7069,-5.7526,-5.7526,-5.7045,-5.6299,-5.5289,-5.4808,-5.4303,-5.3822,-5.3822,-5.375,-5.3558,-5.2596,-5.1513,-5.0407,-4.9325,-4.7617,-4.5694,-4.4573,-4.3265,-4.1822,-4.0739,-3.9729,-3.8815,-3.8238,-3.807,-3.8258,-3.9181,-3.939,-3.9648,-4.0718,-4.0919,-4.0843,-4.0941,-4.2156,-4.3643,0.0,0.0,-4.7785,-4.9089,-5.0238,-5.1456,-5.2937,-5.4957,-5.6936,-5.8813,-5.9882,-6.0661,-6.1191,-6.1251,-6.1193,-6.1193,-6.1193,-6.1222,-6.128,-6.1774,-6.2122,-6.2209,-6.2209,-6.218,-6.2093,-6.16,-6.128,-6.1193,-6.1193,-6.1193,-6.1193,-6.1193,-6.1193,-6.1193,-6.0061,-5.948,-5.9364,-5.8116,-5.7392,-5.7047,-5.5719,-5.4132,-5.2324,-5.1546,-5.0854,-5.0112,-4.79,-4.7482,-4.776,-4.448,-4.2981,-4.2598,-3.3346,-3.4891,-3.6177,-3.6177,-3.6914,-3.7517,-3.7517,-3.7517,-3.7517,-3.7517,-3.7998,-3.8334,-3.8334,-3.8334,-3.8238,-3.7998,-3.8695,-4.0403,-4.3313,-4.5309,-4.7906,-5.1345,-5.2788,-5.3894,-5.4712,-5.5169,-5.5818,-5.6684,-5.7141,-5.7357,-5.7333,-5.6804,-5.6323,-5.5842,-5.5001,-5.4496,-5.4255,-5.3942,-5.3822,-5.3726,-5.2692,-5.1658,-5.0503,-4.882,-4.6848,-4.4885,-4.4453,-4.3313,0.0,-4.0739,-3.9898,-3.9176,-3.8647,-3.8858,-3.9396,-3.9542,-4.0058,-4.0617,-4.1069,-4.211,-4.316,-4.3644,-4.4757,-4.6223,-4.8215,-4.9249,-5.0238,-5.203,-5.3098,-5.4284,-5.6307,-5.7686,-5.9215,0.0,-6.1507,-6.1739,-6.2238,-6.1977,-6.1309,-6.0235,-6.0409,-6.0903,-6.1658,-6.2296,-6.2674,-6.2674,-6.3022,-6.2877,-6.2122,-6.1861,-6.1542,-6.1222,-6.1193,-6.1193,-6.1193,-6.1193,-6.1193,-6.1193,-6.0671,-6.0206,-5.98,-5.8871,-5.7623,-5.6142,-5.5271,-5.4226,-5.3036,-5.2049,-5.1468,-5.1041,-4.9314,-4.8692,-4.8355,-4.5348,-4.4266,-4.4159,-3.2628,-3.4357,-3.5749,-3.5939,-3.6514,-3.7036,-3.718,-3.7204,-3.7204,-3.7204,-3.7661,-3.7974,-3.7974,-3.7974,-3.7974,-3.7974,-3.8503,-4.0042,-4.2904,-4.4948,-4.7545,-5.0888,-5.2403,-5.375,-5.4928,-5.5097,-5.5554,-5.6347,-5.6492,-5.6564,-5.6564,-5.6179,-5.5914,-5.5746,-5.4952,-5.452,-5.4351,-5.3991,-5.375,-5.3534,-5.2475,-5.1249,-4.983,-4.7834,-4.5669,-4.3697,-4.3697,-4.2842,-4.1606,-4.0371,-3.9971,-3.9922,-3.9233,-3.9752,-4.0591,-4.0517,-4.1269,-4.2115,-4.2324,-4.3697,-4.5384,-4.633,-4.7592,-4.9216,-5.1527,-5.2258,-5.2961,-5.4856,-5.5851,-5.6908,-5.8491,-5.9706,-6.0894,-6.2383,-6.2441,-6.247,-6.2761,-6.2093,-6.1019,-5.948,-5.9219,-5.9655,-6.0932,-6.1803,-6.2441,-6.279,-6.308,-6.2906,-6.2122,-6.1948,-6.1658,-6.1222,-6.1193,-6.1193,-6.1193,-6.1193,-6.1193,-6.1193,-6.0845,-6.0409,-5.9916,-5.8958,-5.7274,-5.5126,-5.4691,-5.4023,-5.3181,-5.2078,-5.1527,-5.1236,-5.0104,-4.9378,-4.8721,-4.6595,-4.5797,-4.56,-3.2457,-3.3685,-3.4681,-3.5329,-3.5973,-3.6603,-3.7108,-3.7204,-3.7204,-3.7204,-3.7661,-3.7974,-3.7974,-3.7974,-3.7974,-3.7974,-3.8503,-3.9729,-4.187,-4.3529,-4.6054,-4.9758,-5.0984,-5.2283,-5.3846,-5.4375,-5.464,-5.4688,-5.5193,-5.5433,-5.5433,-5.5433,-5.5145,-5.4664,-5.4616,-5.4327,-5.3846,-5.3822,-5.3534,-5.3004,-5.1946,-5.0239,-4.8195,-4.6583,-4.4347,-4.2038,-4.2038,-4.172,-4.0985,-3.9412,-3.9887,-4.0971,-3.9879,-4.0287,-4.1395,-4.2404,-4.3444,-4.4443,-4.5032,-4.6146,-4.7431,-4.8616,-5.0537,-5.2644,-5.4573,-5.5709,-5.6651,-5.7908,-5.8977,-5.9472,-5.8926,-6.0578,-6.1861,-6.1338,-6.2267,-6.2848,-6.2209,-6.1048,-6.0032,-5.9393,-5.7652,-5.7013,0.0,-5.9539,-6.0787,-6.2035,-6.16,-6.1513,-6.2064,-6.1542,-6.1222,-6.1193,-6.1193,-6.1193,-6.1193,-6.1193,-6.1193,-6.1193,-5.9945,-5.9364,-5.9277,-5.7361,-5.5794,-5.4546,-5.4517,-5.3791,-5.2594,-5.1875,-5.1265,-5.0627,-4.9979,-4.9717,-4.9582,-4.8818,-4.7804,-4.6645,-3.146,-3.2457,-3.3254,-3.3188,-3.4274,-3.5282,-3.5572,-3.6189,-3.6795,-3.7156,-3.7661,0.0,0.0,0.0,0.0,0.0,-3.8166,-3.9032,-4.0812,-4.2423,-4.4323,-4.6631,-4.8748,-5.0479,-5.173,-5.262,-5.3389,-5.4087,-5.4255,-5.4351,-5.4351,-5.4015,-5.3942,-5.4063,-5.3365,-5.3149,-5.3269,-5.2572,-5.2187,-5.1826,-4.971,-4.8195,-4.6944,-4.4299,-4.2749,-4.1892,0.0,-4.0827,-4.0626,-4.0437,-4.072,-4.1119,-4.0768,-4.1419,-4.2452,-4.3539,-4.4816,-4.6099,-4.6947,-4.8258,-4.9936,-5.2424,-5.3582,-5.4828,-5.7304,-5.8165,-5.8427,-5.8604,-5.8549,-5.8205,-5.7395,-5.8146,-5.9277,-6.0351,-6.16,-6.2499,-6.2732,-6.2761,-6.1425,-5.7797,-5.829,0.0,0.0,0.0,0.0,-6.0729,-6.1048,-6.128,-6.1483,-6.1309,-6.1193,-6.1193,-6.1193,-6.1193,-6.1193,-6.1193,-6.1193,-6.1193,-5.9916,-5.8842,-5.7913,-5.6432,-5.53,-5.4487,-5.4052,-5.3355,-5.2565,-5.1875,-5.1236,-5.0598,-4.993,-4.9717,-4.9611,-4.8972,-4.8188,-4.7375,0.0,-3.1761,-3.2271,-3.1795,-3.3209,0.0,0.0,0.0,0.0,0.0,0.0,0.0,0.0,0.0,0.0,0.0,0.0,-3.831,-3.9729,-4.0787,-4.223,-4.4202,-4.6078,-4.769,-4.8964,-4.9662,-5.0335,-5.1008,-5.1008,-5.1105,-5.1273,-5.096,-5.1081,-5.1537,-5.0864,-5.0768,-5.1032,-5.0143,-4.9782,-4.9589,-4.7281,-4.5934,-4.502,-4.2399,-4.145,0.0,-4.0869,-4.0952,-4.1233,-4.12,-4.1716,-4.2257,-4.1914,-4.255,-4.3717,-4.4883,-4.6138,-4.7502,-4.9126,-5.0865,-5.2866,-5.5452,-5.6619,-5.7594,-5.9403,-5.9551,-5.9182,-5.8725,-5.7743,-5.6644,-5.5565,-5.5881,-5.6723,-5.7971,-5.9422,-6.0787,-6.189,-6.2006,-6.0932,-5.8087,-5.8406,-5.8203,0.0,0.0,0.0,-6.0061,-6.0816,-6.1193,-6.1193,-6.1193,-6.1193,-6.1193,-6.1193,-6.1193,-6.1193,-6.1193,-6.0961,-6.0496,-5.9684,-5.8348,-5.6607,-5.5765,-5.4952,-5.4139,-5.3704,-5.3152,-5.2565,-5.1875,-5.1236,-5.0598,-4.993,-4.9717,-4.9611,-4.8972,-4.8449,-4.7985,0.0,0.0,-3.1781,0.0,0.0,0.0,0.0,0.0,0.0,0.0,0.0,0.0,0.0,0.0,0.0,0.0,0.0,0.0,-3.8671,-3.8767,-3.9898,-4.2458,-4.3072,-4.413,-4.5694,-4.5766,-4.5814,-4.5838,-4.5814,-4.6054,-4.6559,-4.6535,-4.6776,-4.7257,-4.7281,-4.7305,-4.7257,-4.6752,-4.6559,-4.6415,-4.4741,-4.3553,-4.253,-4.0941,-4.0379,-4.043,-4.105,-4.1963,-4.2647,-4.1667,-4.2722,-4.4256,-4.328,-4.3832,-4.5156,-4.6461,-4.7506,-4.8909,-5.1733,-5.4143,-5.6194,-5.7755,-5.9454,-6.071,-6.0684,-5.9882,-5.9045,-5.8261,-5.6578,-5.4836,-5.3559,-5.3907,-5.44,-5.4546,-5.62,-5.8145,-6.0119,-5.9393,-5.9045,0.0,0.0,0.0,0.0,0.0,0.0,-6.0061,0.0,-6.1135,-6.1193,-6.1193,-6.1193,-6.1193,-6.1193,-6.1193,-6.1193,-6.1193,-6.0555,-5.9306,-5.9306,-5.7942,-5.5474,-5.5416,-5.472,-5.3559,-5.353,-5.3123,-5.2484,-5.1875,-5.1236,-5.0618,-4.9979,-4.9717,-4.9611,-4.9001,-4.874,-4.8518,0.0,0.0,0.0,0.0,0.0,0.0,0.0,0.0,0.0,0.0,0.0,0.0,0.0,0.0,0.0,0.0,0.0,0.0,-3.7589,-3.7974,-3.8503,-3.9176,-4.086,-4.2158,-4.2976,-4.3746,-4.4323,-4.4693,-4.4323,-4.4202,-4.4323,-4.3938,-4.3842,-4.3986,-4.4457,-4.4539,-4.4515,-4.4395,-4.4323,-4.4154,-4.2182,-4.1244,-4.0925,-4.0099,-3.9813,-4.0056,-4.1743,-4.255,-4.2889,-4.3423,-4.4068,-4.4715,-4.4931,-4.5308,-4.6187,-4.8431,-5.0405,-5.2483,-5.5308,-5.7712,-5.9583,-6.0438,-6.102,-6.1088,-5.9913,-5.9103,-5.7971,-5.591,-5.3936,-5.2194,-5.0917,-5.1614,0.0,-5.4865,-5.7594,0.0,-6.2703,-6.3196,0.0,-6.1135,0.0,-6.0758,-5.919,-5.9626,0.0,0.0,-6.0235,-6.0206,-6.1135,-6.1193,-6.1193,-6.1193,-6.1193,-6.1193,-6.1193,-6.1193,-6.0555,-5.9306,-5.9306,-5.8203,-5.6142,-5.5649,-5.4981,-5.4226,-5.3733,-5.2891,-5.1846,-5.1701,-5.0946,-4.995,-4.9805,-4.9717,-4.9688,-4.9494,-4.9117,-4.8634,0.0,0.0,0.0,0.0,0.0,0.0,0.0,0.0,0.0,0.0,0.0,0.0,0.0,0.0,0.0,0.0,0.0,0.0,0.0,-3.7036,-3.7156,-3.7613,-3.8791,-3.9681,-4.021,-4.0787,-4.1244,-4.1557,-4.1004,-4.086,-4.1076,-4.0571,-4.0507,-4.0724,-4.1037,-4.122,-4.1437,-4.1196,-4.1365,0.0,0.0,-3.9489,-3.964,-3.9075,-3.926,-3.9956,-4.1568,-4.2792,-4.3887,-4.5015,-4.5789,-4.6348,-4.7259,-4.8109,-4.9251,-5.1828,-5.3765,-5.5663,-5.8864,-6.071,-6.1932,-6.2668,-6.2361,-6.1386,-5.9683,-5.7913,-5.5997,-5.3704,-5.1468,-4.9727,-4.9001,-4.9465,-5.0772,0.0,0.0,0.0,-6.1919,-6.2906,-6.3196,0.0,-6.2993,0.0,-6.1483,-6.1251,-6.1309,0.0,-6.07,-6.0438,-6.1164,-6.1193,-6.1193,-6.1193,-6.1193,-6.1193,-6.1193,-6.1193,-6.0555,-5.9306,-5.9306,-5.829,-5.6374,-5.5707,-5.5068,-5.4487,0.0,-5.3094,-5.2397,-5.1846,-5.1178,-5.0481,-4.9901,-4.9717,-4.9717,-4.9717,-4.9436,-4.9146,0.0,0.0,0.0,0.0,0.0,0.0,0.0,0.0,0.0,0.0,-3.7156,-3.7397,0.0,0.0,0.0,0.0,0.0,0.0,0.0,0.0,-3.617,-3.7156,-3.7252,-3.7517,-3.7974,-3.7974,-3.795,-3.7878,-3.7348,-3.73,-3.7661,-3.7132,-3.7132,-3.7565,-3.7637,-3.7974,-3.8479,-3.8046,-3.8455,-3.9296,-3.8359,-3.8262,-3.8647,0.0,-3.8948,-4.0083,-4.1119,-4.2937,-4.5089,-4.6471,-4.747,-4.8436,-4.9753,-5.1247,-5.304,-5.5752,-5.7163,-5.8581,-6.2101,-6.3236,-6.3627,-6.4265,-6.3154,-6.1338,-5.9364,-5.6432,-5.3617,-5.1759,-4.9465,-4.7782,-4.7782,-4.7927,-4.8914,-5.1585,0.0,-5.6171,-6.0148,-6.1193,-6.2499,-6.4938,-6.427,-6.3777,-6.4178,-6.2732,-6.1832,-6.2209,-6.1658,-6.128,-6.1193,-6.1193,-6.1193,-6.1193,-6.1193,-6.1193,-6.1193,-6.1193,-6.0555,-5.9306,-5.9306,-5.8319,-5.649,-5.5765,-5.5126,-5.4604,0.0,0.0,-5.3297,-5.2107,-5.1556,-5.1381,-5.0162,-4.9717,-4.9717,-4.9717,-4.9717,-4.9717,0.0,0.0,0.0,0.0,0.0,0.0,0.0,0.0,0.0,0.0,-3.6916,-3.7397,0.0,0.0,0.0,0.0,0.0,0.0,0.0,0.0,0.0,-3.7156,-3.7613,-3.7878,-3.7974,-3.7974,-3.7757,-3.7324,-3.6795,-3.6362,-3.6026,-3.5497,-3.528,-3.54,-3.5833,-3.6314,-3.6843,-3.718,-3.7685,-3.8238,-3.8046,-3.8046,-3.8224,-3.9025,0.0,0.0,-4.2084,-4.3937,-4.5654,-4.7511,-4.8565,-4.9371,-5.1235,-5.2861,-5.4811,-5.8407,-5.9944,-6.1251,-6.4468,-6.5367,-6.5164,-6.4289,-6.2293,-5.9887,-5.7477,-5.4429,0.0,-5.0307,-4.8827,-4.7782,-4.7782,-4.8653,-5.0365,-5.35,-5.5184,-5.7797,-6.2674,-6.3457,-6.4299,0.0,-6.636,-6.607,-6.5635,0.0,0.0,0.0,0.0,-6.1716,-6.1222,-6.1193,-6.1193,-6.1193,-6.1193,-6.1193,-6.1193,-6.1193,-6.0555,-5.9306,-5.9306,-5.8552,-5.71,-5.5939,-5.5358,-5.5184,0.0,0.0,-5.2688,-5.1933,-5.1323,-5.0772,-4.9988,-4.9717,-4.9717,-4.9717,-4.9717,-4.9717,0.0,0.0,0.0,0.0,0.0,0.0,0.0,-3.5101,-3.5905,-3.6723,-3.7036,-3.7397,-3.7926,-3.7974,-3.7878,0.0,0.0,0.0,0.0,0.0,0.0,-3.718,-3.7445,-3.7685,-3.7974,-3.7974,-3.7853,-3.7613,0.0,-3.6675,-3.6435,-3.5881,-3.5641,-3.5665,-3.5905,-3.6314,-3.6819,-3.7084,-3.7493,-3.7974,-3.7974,-3.7974,-3.8133,0.0,0.0,0.0,-4.2501,-4.3937,-4.5734,-4.7318,-4.8596,-5.0014,-5.2966,-5.5307,-5.7565,-6.0351,-6.189,-6.3225,-6.5751,-6.6186,-6.5693,-6.4764,-6.2122,-5.9074,-5.649,0.0,0.0,-4.9465,-4.842,-4.7898,-4.8217,-4.8769,-5.0133,-5.3036,-5.4284,-5.6461,-6.0932,-6.2412,-6.3748,-6.5664,-6.6186,-6.6273,0.0,0.0,0.0,0.0,0.0,-6.1832,-6.1222,-6.1193,-6.1193,-6.1193,-6.1193,-6.1193,-6.1193,-6.1193,-6.0555,-5.9306,-5.9306,-5.861,-5.7274,-5.5997,-5.5416,-5.5329,-5.4052,0.0,-5.3007,-5.2368,-5.173,-5.1091,-5.0452,-4.9988,-4.9717,-4.9717,-4.9717,-4.9717,0.0,0.0,0.0,0.0,0.0,0.0,-3.5322,-3.5713,-3.6122,-3.706,-3.73,-3.7517,-3.7926,-3.7974,-3.7926,0.0,0.0,0.0,0.0,0.0,0.0,0.0,0.0,0.0,-3.7974,0.0,0.0,-3.7805,-3.7397,0.0,0.0,0.0,0.0,0.0,-3.6411,-3.6699,-3.7204,-3.7204,-3.7493,0.0,0.0,-3.8104,0.0,0.0,0.0,0.0,0.0,-4.3965,-4.5797,-4.7066,-4.8393,-5.0046,-5.3355,-5.6374,-5.9045,-6.0932,-6.2703,-6.4381,-6.636,-6.6506,-6.5925,-6.5025,-6.1803,-5.8232,-5.5765,-5.2659,-4.9959,-4.8943,-4.8333,-4.813,-4.8624,-4.8827,-4.9727,-5.2165,-5.2978,-5.4662,-5.8552,-6.0816,-6.2761,0.0,-6.5722,0.0,0.0,0.0,0.0,0.0,0.0,0.0,-6.1222,-6.1193,-6.1193,-6.1193,-6.1193,-6.1193,-6.1193,-6.1048,-6.0409,-5.9306,-5.9161,-5.8464,-5.7274,-5.5997,-5.5416,-5.5329,-5.4052,0.0,0.0,-5.2833,-5.2281,-5.1759,-5.0975,-5.0415,-4.9921,-4.9727,-4.9717,-4.9717,0.0,0.0,0.0,0.0,0.0,0.0,-3.5222,-3.6026,-3.6531,-3.7108,-3.7613,-3.7926,-3.7974,-3.7974,-3.7781,0.0,0.0,0.0,0.0,0.0,0.0,0.0,0.0,0.0,0.0,0.0,0.0,-3.7252,0.0,0.0,0.0,0.0,0.0,0.0,0.0,0.0,-3.7204,-3.7204,0.0,0.0,0.0,0.0,0.0,0.0,0.0,0.0,0.0,-4.4741,-4.6069,-4.7346,-4.8246,-4.9088,-5.0627,-5.3675,-5.7042,-5.8987,-6.1687,-6.4381,-6.636,-6.6854,-6.636,-6.4561,-6.0787,-5.6984,-5.5039,0.0,-4.8885,-4.874,-4.8682,-4.8653,-4.8663,-4.9204,-5.0249,-5.2304,-5.2681,-5.3994,-5.7855,-6.0526,-6.2616,-6.3951,0.0,0.0,0.0,0.0,0.0,0.0,0.0,0.0,0.0,-6.1193,-6.1193,-6.1193,-6.1193,-6.1193,-6.1193,-6.0584,-5.9974,-5.9306,-5.8668,-5.8,-5.7274,-5.5997,-5.5416,-5.5329,0.0,0.0,0.0,-5.2833,-5.2594,-5.242,-5.1149,-5.0627,-5.0511,-4.9901,-4.9717,-4.9717,0.0,0.0,0.0,0.0,0.0,0.0,-3.5324,-3.6074,-3.6723,-3.7565,-3.7853,-3.7974,-3.7974,-3.7974,-3.7902,-3.7685,-3.7661,0.0,0.0,0.0,0.0,0.0,0.0,0.0,0.0,0.0,-3.7878,-3.7661,-3.7661,0.0,0.0,0.0,0.0,0.0,0.0,0.0,0.0,-3.7661,0.0,0.0,0.0,0.0,0.0,0.0,0.0,0.0,0.0,0.0,-4.5953,-4.6475,-4.6824,-4.7114,-4.7637,-4.964,-5.2543,-5.6432,-5.9539,-6.2325,-6.4996,-6.6012,-6.5867,-6.3951,-6.0351,-5.6723,-5.4429,-5.1527,-4.9291,-4.9291,-4.9291,-4.9291,-4.9291,-4.9494,-4.993,-5.0763,-5.083,-5.1759,-5.4487,-5.6403,-5.8581,-6.1396,-6.3312,0.0,0.0,0.0,0.0,0.0,0.0,0.0,0.0,-6.1193,-6.1193,-6.1193,-6.1193,-6.1193,-6.1193,-6.0932,-6.0293,-5.9306,-5.9045,-5.8348,-5.7274,-5.5997,-5.5416,-5.5329,0.0,0.0,0.0,-5.3239,-5.292,-5.2536,-5.1585,-5.1004,-5.0598,-4.9979,-4.9717,-4.9717,0.0,0.0,0.0,0.0,0.0,-3.4005,-3.5399,-3.6074,-3.6723,-3.7637,-3.7733,-3.7805,-3.7974,-3.7829,-3.7805,-3.7974,-3.7974,0.0,0.0,0.0,0.0,0.0,0.0,0.0,0.0,0.0,-3.7974,-3.7974,-3.7974,-3.7974,0.0,0.0,0.0,0.0,0.0,0.0,0.0,0.0,0.0,0.0,0.0,0.0,0.0,0.0,0.0,0.0,0.0,0.0,0.0,0.0,0.0,-4.5895,-4.5895,-4.6795,-4.8798,-5.3384,-5.6897,-5.9974,-6.279,-6.4299,-6.4677,-6.2964,-5.9771,-5.6432,-5.4052,-5.1527,-4.9717,-4.9717,-4.9717,-4.9717,-4.9717,-4.9717,-4.9717,-4.9717,-4.9892,-5.0511,-5.2078,-5.3733,-5.5765,0.0,0.0,0.0,0.0,0.0,0.0,0.0,0.0,0.0,0.0,-6.1193,-6.1193,-6.1193,-6.1193,-6.1193,-6.1193,-6.099,-6.0351,-5.9306,-5.9103,-5.8406,-5.7274,-5.62,-5.5591,-5.5358,0.0,0.0,0.0,-5.35,-5.3239,-5.2775,-5.2136,-5.1497,-5.0888,-5.022,-4.9892,-4.9717,0.0,0.0,0.0,0.0,0.0,-3.3131,-3.525,-3.6074,-3.6603,-3.7132,-3.7204,-3.7397,-3.7926,-3.7517,-3.7421,-3.7926,-3.7974,0.0,0.0,0.0,0.0,0.0,0.0,0.0,-3.7974,-3.7974,-3.7974,-3.7974,-3.7974,-3.7974,-3.7974,-3.7974,-3.7974,-3.7974,0.0,0.0,0.0,0.0,0.0,0.0,0.0,0.0,0.0,0.0,0.0,0.0,0.0,0.0,0.0,0.0,0.0,0.0,0.0,-4.5895,-4.6563,-4.9785,-5.3878,-5.7768,-5.9713,-6.1658,-6.2819,-6.1542,-5.8813,-5.591,-5.3965,-5.1527,-4.9717,-4.9717,-4.9717,-4.9717,-4.9717,-4.9717,-4.9717,-4.9717,-5.027,-5.0888,-5.1527,-5.3791,-5.5416,0.0,0.0,0.0,0.0,0.0,0.0,0.0,0.0,0.0,0.0,-6.1193,-6.1193,-6.1193,-6.1193,-6.1193,-6.1193,-6.0526,-5.9916,-5.9306,-5.8639,-5.7971,-5.7274,-5.6665,-5.6026,0.0,0.0,0.0,0.0,-5.35,-5.35,-5.3442,-5.2804,-5.2165,-5.1527,-5.0888,-5.0299,-4.9717,0.0,0.0,0.0,0.0,0.0,0.0,-3.4342,-3.5593,-3.6603,-3.7132,-3.7517,-3.7661,-3.7469,-3.7613,-3.7661,-3.7469,-3.7781,0.0,0.0,0.0,0.0,0.0,0.0,0.0,-3.7974,-3.7974,-3.7974,-3.7974,-3.7974,-3.7974,-3.8027,-3.8739,-3.8687,-3.8027,-3.8948,0.0,0.0,0.0,0.0,0.0,0.0,0.0,0.0,0.0,0.0,0.0,0.0,0.0,0.0,0.0,0.0,0.0,0.0,0.0,0.0,-4.7608,-5.0598,-5.3936,-5.6287,-5.8,-5.8929,-5.8116,-5.6171,-5.4052,-5.2543,-5.0888,-4.9717,-4.9717,-4.9717,-4.9717,-4.9717,-4.9717,-4.9814,-5.0278,-5.0211,-5.022,-5.0888,0.0,0.0,-5.6403,0.0,0.0,0.0,0.0,0.0,0.0,0.0,0.0,0.0,-6.1193,-6.1193,-6.1193,-6.1193,-6.1193,-6.1193,-6.0526,-5.9887,-5.9306,-5.861,-5.7942,-5.7274,-5.6694,0.0,0.0,0.0,0.0,0.0,-5.3704,-5.35,-5.3442,-5.2833,-5.2455,-5.2136,-5.1062,-5.0589,-5.0307,0.0,0.0,0.0,0.0,0.0,0.0,-3.4174,-3.5521,-3.6531,-3.6843,-3.7348,-3.7565,-3.7228,-3.7493,-3.7541,-3.7228,-3.7685,0.0,0.0,0.0,0.0,0.0,0.0,0.0,-3.7974,-3.7974,-3.7974,-3.7974,-3.835,-3.835,-3.821,-3.9484,-3.9615,-3.8792,-3.9622,-3.9776,0.0,0.0,0.0,0.0,0.0,0.0,-4.0567,0.0,0.0,0.0,0.0,0.0,0.0,0.0,0.0,0.0,0.0,0.0,0.0,0.0,-4.8547,-5.1033,-5.3355,-5.5097,-5.6171,-5.5794,-5.44,-5.2891,-5.1846,-5.0598,-4.9717,-4.9717,-4.9717,-4.9717,-4.9717,-4.9717,-4.9863,-5.022,-4.9959,-4.9901,-5.0598,0.0,0.0,-5.6578,0.0,0.0,0.0,0.0,0.0,0.0,0.0,0.0,0.0,0.0,-6.1193,-6.1193,-6.1193,-6.1077,-6.0816,-6.0409,-5.9771,-5.8929,-5.8493,-5.7942,-5.7303,-5.6926,0.0,0.0,0.0,0.0,0.0,-5.3791,-5.35,-5.3471,-5.3094,-5.263,-5.2107,-5.1323,-5.0714,-5.0249,0.0,0.0,0.0,0.0,0.0,0.0,0.0,-3.5713,-3.6411,-3.6411,-3.6892,-3.7228,-3.7204,-3.7228,-3.7228,-3.7204,-3.7685,0.0,0.0,0.0,0.0,0.0,0.0,-3.8027,-3.8027,-3.8027,-3.8027,-3.8027,-3.8825,-3.8985,-3.8473,-4.0174,-4.0591,-4.0032,-4.0134,-4.0667,-4.1492,0.0,0.0,0.0,-4.0768,-4.1369,0.0,0.0,0.0,0.0,0.0,0.0,0.0,0.0,0.0,0.0,0.0,0.0,0.0,0.0,0.0,0.0,0.0,-5.2775,-5.4168,-5.4168,-5.3268,-5.2194,-5.1614,-5.054,0.0,-4.9717,-4.9717,-4.9717,-4.9717,-4.9717,-4.9746,-4.9727,-4.9698,-4.9901,-5.0598,-5.1933,0.0,0.0,0.0,0.0,0.0,0.0,0.0,0.0,0.0,0.0,0.0,0.0,-6.1164,-6.1135,-6.1135,-6.0816,-6.0206,-6.0119,-5.948,-5.829,-5.8261,-5.7913,-5.7303,-5.7274,0.0,0.0,0.0,0.0,0.0,-5.3791,-5.35,-5.35,-5.35,-5.2775,-5.1672,-5.1643,-5.083,-4.9727,0.0,0.0,0.0,0.0,0.0,0.0,0.0,0.0,0.0,0.0,-3.7204,-3.7637,-3.7228,-3.7565,-3.7637,0.0,0.0,0.0,0.0,0.0,0.0,0.0,-3.7974,-3.808,-3.8291,-3.8315,-3.8421,-3.8631,-3.8595,-3.8648,-3.8736,-4.0568,-4.1049,-4.0363,-4.1369,-4.1492,-4.1043,-4.1713,0.0,0.0,-4.3054,-4.3102,0.0,0.0,0.0,0.0,-4.5475,-4.5895,0.0,0.0,0.0,0.0,0.0,0.0,0.0,0.0,-4.7677,-4.8779,-4.9291,0.0,-5.0801,-5.0801,-5.0569,-5.0307,0.0,-4.9901,-4.9717,-4.9717,-4.9717,-4.9717,-4.9717,-4.9717,-4.9892,-5.0415,-5.0017,-4.9901,-5.0598,-5.3471,0.0,0.0,0.0,0.0,0.0,0.0,0.0,0.0,0.0,0.0,0.0,0.0,-6.0961,-6.0438,-6.0438,-6.0351,-6.0206,-5.9248,-5.861,-5.829,-5.7768,-5.7448,-5.7274,-5.6839,0.0,0.0,0.0,0.0,-5.4458,-5.3791,-5.35,-5.35,-5.35,-5.3036,-5.2281,-5.1788,-5.112,-5.0415,0.0,0.0,0.0,0.0,0.0,0.0,0.0,0.0,0.0,0.0,-3.7324,-3.7781,-3.7252,-3.7661,-3.7757,0.0,0.0,0.0,0.0,0.0,0.0,-3.7974,-3.7974,-3.8157,-3.8396,-3.8421,-3.8526,-3.8788,-3.9835,-4.0302,-4.0231,-4.2743,-4.3417,-4.2484,-4.343,-4.2958,-4.1614,-4.2786,-4.293,-4.2447,-4.3293,0.0,0.0,0.0,0.0,0.0,-4.5685,-4.5895,0.0,-4.6621,-4.6592,-4.6417,0.0,0.0,0.0,0.0,-4.8391,-4.9175,-4.9175,-4.9407,-4.9717,-4.9717,-4.9717,-4.9717,-4.9717,-4.9717,-4.9717,-4.9717,-4.9717,-4.9717,-4.9717,-4.9717,-4.9785,-5.0211,-4.995,-5.022,-5.1759,0.0,0.0,0.0,0.0,0.0,0.0,0.0,0.0,0.0,0.0,0.0,0.0,0.0,-6.0584,-6.0206,-5.9626,-5.9335,-5.9335,-5.8639,-5.8145,-5.7826,-5.7187,-5.6897,-5.6868,-5.6229,0.0,0.0,0.0,0.0,-5.4458,-5.3791,-5.35,-5.35,-5.35,-5.3123,-5.2484,-5.1846,-5.1207,-5.0618,0.0,0.0,0.0,0.0,0.0,0.0,0.0,0.0,0.0,0.0,0.0,0.0,0.0,0.0,0.0,0.0,0.0,0.0,0.0,0.0,-3.808,-3.808,-3.808,-3.821,-3.8473,-3.8526,-3.8708,-3.9069,-4.136,-4.2294,-4.2034,-4.5157,-4.602,-4.4953,-4.551,-4.4565,-4.2738,-4.4031,-4.3965,-4.3094,-4.3314,0.0,0.0,0.0,0.0,0.0,0.0,0.0,0.0,-4.6737,-4.6865,-4.6923,-4.7695,0.0,0.0,0.0,0.0,0.0,-4.9717,-4.9717,-4.9717,-4.9717,-4.9717,-4.9717,-4.9717,-4.9717,-4.9717,-4.9717,-4.9717,-4.9717,-4.9717,-4.9756,-4.9814,-4.9814,-5.0075,-5.1149,-5.3733,-5.5097,0.0,0.0,0.0,0.0,0.0,0.0,0.0,0.0,0.0,0.0,0.0,0.0,0.0,-6.0061,-5.8929,-5.8261,-5.8145,-5.8145,-5.7826,-5.7158,-5.6665,-5.6345,-5.6229,-5.5562,0.0,0.0,0.0,0.0,-5.4313,-5.3733,-5.35,-5.35,-5.35,-5.3123,-5.2484,-5.1846,-5.1207,-5.0618,0.0,0.0,0.0,0.0,0.0,0.0,0.0,0.0,0.0,0.0,0.0,0.0,0.0,0.0,0.0,0.0,0.0,0.0,0.0,-3.8185,-3.8368,-3.8368,-3.8368,-3.8473,-3.8736,-3.8998,-3.9506,-4.0217,-4.1389,-4.2216,-4.2839,-4.4934,-4.5671,-4.5268,-4.62,-4.5642,-4.4078,-4.5201,-4.5837,-4.6142,-4.6189,0.0,0.0,0.0,0.0,0.0,0.0,0.0,0.0,-4.723,-4.7288,-4.6981,-4.8217,0.0,0.0,0.0,0.0,0.0,-4.9717,-4.9717,-4.9717,-4.9717,-4.9717,-4.9717,-4.9717,-4.9717,-4.9717,-4.9717,-4.9717,-4.9717,-4.9717,-5.0133,-5.056,-5.056,-5.1875,-5.382,0.0,0.0,0.0,0.0,0.0,0.0,0.0,0.0,0.0,0.0,0.0,0.0,0.0,0.0,0.0,-5.9451,-5.8697,-5.8029,-5.7448,-5.7448,-5.7158,-5.6549,-5.6461,-5.6113,-5.5533,-5.4923,-5.4662,0.0,0.0,-5.3675,-5.3675,-5.3559,-5.35,-5.35,-5.35,-5.3123,-5.2484,-5.1846,-5.1207,-5.0618,0.0,0.0,0.0,0.0,0.0,0.0,0.0,0.0,0.0,0.0,0.0,0.0,0.0,0.0,0.0,0.0,0.0,0.0,0.0,-3.8315,-3.8473,-3.8631,-3.9058,-3.9241,-3.905,-4.0104,-4.0875,-4.1415,-4.3606,-4.4924,-4.5271,-4.6356,-4.6824,-4.6633,-4.6437,-4.59,-4.523,-4.6061,-4.6563,-4.6807,0.0,0.0,0.0,0.0,0.0,0.0,0.0,0.0,0.0,0.0,-4.7317,-4.7491,-4.842,0.0,0.0,0.0,0.0,0.0,-4.9582,-4.9436,-4.9233,-4.9582,-4.9717,-4.9717,-4.9717,-4.9717,-4.9717,-4.9717,-4.9717,-4.9717,-4.9717,-5.027,-5.1004,-5.2049,0.0,-5.5474,-5.6665,0.0,0.0,0.0,0.0,0.0,0.0,0.0,0.0,0.0,0.0,0.0,0.0,0.0,0.0,0.0,-5.8116,-5.7448,-5.6839,-5.681,-5.6665,-5.6403,-5.6026,-5.5533,-5.4894,-5.4255,-5.3965,-5.3965,0.0,-5.35,-5.35,-5.35,-5.35,-5.35,-5.35,-5.3326,-5.2949,-5.1991,-5.1207,-5.0618,0.0,0.0,0.0,0.0,0.0,0.0,0.0,0.0,0.0,0.0,0.0,0.0,0.0,0.0,0.0,0.0,0.0,0.0,0.0,-3.8526,-3.8684,-3.8893,-3.9727,-3.9984,-3.9509,-4.0949,-4.1957,-4.2552,-4.5422,-4.7129,-4.7765,-4.8086,-4.813,-4.7956,-4.6998,-4.6475,-4.6359,-4.6853,-4.7143,-4.7271,0.0,0.0,0.0,0.0,0.0,0.0,0.0,0.0,0.0,0.0,0.0,0.0,0.0,0.0,0.0,-4.9717,-4.932,-4.9059,-4.9553,-4.932,-4.9059,-4.9553,-4.9717,-4.9727,-4.9921,-4.9901,-4.9959,-5.0104,-5.0133,-5.0075,-4.993,-5.0685,0.0,-5.3878,-5.5823,0.0,0.0,0.0,0.0,0.0,0.0,0.0,0.0,0.0,0.0,0.0,0.0,0.0,0.0,0.0,0.0,0.0,-5.7652,-5.7013,-5.6432,-5.6403,-5.6258,-5.5968,-5.5445,-5.4865,-5.4255,-5.3733,-5.35,-5.35,-5.35,-5.35,-5.35,-5.35,-5.35,-5.35,-5.35,-5.3413,-5.3152,-5.2049,-5.1207,-5.0618,0.0,0.0,0.0,0.0,0.0,0.0,0.0,0.0,0.0,0.0,0.0,0.0,0.0,0.0,0.0,0.0,0.0,0.0,-3.8421,-3.8945,-3.9258,-3.9258,-4.0067,-4.0342,-4.0081,-4.0871,-4.2123,-4.365,-4.4985,-4.6974,-4.9513,-4.9553,-4.9233,-4.8653,-4.8566,-4.8188,-4.7637,-4.7695,-4.8043,-4.8595,-4.8653,0.0,0.0,0.0,0.0,0.0,0.0,0.0,0.0,0.0,0.0,0.0,0.0,0.0,-4.9717,-4.9717,-4.9688,-4.9611,-4.9717,-4.964,-4.9611,-4.9717,-4.9717,-4.9843,-5.0502,-5.0598,-5.0772,-5.1352,-5.1468,-5.1294,-5.0714,-5.2078,-5.3936,-5.5881,0.0,0.0,0.0,0.0,0.0,0.0,0.0,0.0,0.0,0.0,0.0,0.0,0.0,0.0,0.0,0.0,0.0,0.0,0.0,-5.7013,-5.6432,-5.6403,-5.5823,-5.4662,-5.4604,-5.4226,-5.3588,-5.353,-5.35,-5.35,-5.35,-5.35,-5.35,-5.35,-5.35,-5.35,-5.35,-5.3152,-5.2594,-5.1875,-5.1207,-5.0618,0.0,0.0,0.0,0.0,0.0,0.0,0.0,0.0,0.0,0.0,0.0,0.0,0.0,0.0,0.0,0.0,0.0,0.0,-3.8945,-3.9154,-3.9362,-3.9542,-4.0172,-4.0623,-4.0843,-4.2891,-4.4439,-4.5498,-4.7643,-4.9073,-4.9717,-4.9262,-4.8943,-4.8663,-4.8304,-4.8014,-4.7811,-4.8188,-4.8508,-4.8769,-4.9146,-4.9088,0.0,0.0,0.0,0.0,0.0,0.0,0.0,0.0,-4.7985,-4.7927,-4.8798,-4.9349,-4.9717,-4.9717,-4.9117,-4.8682,-4.9465,-4.9088,-4.8729,-4.9514,-4.9717,-4.9959,-5.1033,-5.1556,-5.1984,-5.2165,-5.2862,-5.321,-5.2572,-5.3675,-5.5184,-5.6723,0.0,0.0,0.0,0.0,0.0,0.0,0.0,0.0,0.0,0.0,0.0,0.0,0.0,0.0,0.0,0.0,0.0,0.0,0.0,-5.5852,-5.5242,-5.5242,-5.4778,-5.3907,-5.4313,-5.4168,-5.35,-5.35,-5.35,-5.35,-5.35,-5.35,-5.35,-5.35,-5.35,-5.3471,-5.3094,-5.2775,-5.2507,-5.141,-5.0888,-5.0618,0.0,0.0,0.0,0.0,0.0,0.0,0.0,0.0,0.0,0.0,0.0,0.0,0.0,0.0,0.0,0.0,0.0,0.0,-3.9258,-3.9362,-3.9517,-3.9697,-4.0224,-4.0936,-4.1813,-4.4226,-4.5801,-4.6451,-4.908,-5.0182,-4.9717,-4.9233,-4.903,-4.9001,-4.8566,-4.8391,-4.842,-4.8856,-4.903,-4.9059,-4.9494,-4.9407,0.0,0.0,0.0,0.0,0.0,0.0,0.0,0.0,-4.8072,-4.8159,-4.8595,-4.9175,-4.9717,-4.9717,-4.9059,-4.8566,-4.9436,-4.903,-4.8642,-4.9465,-4.9892,-5.0365,-5.1875,-5.2543,-5.2978,-5.3384,-5.4023,-5.4429,-5.4168,-5.4807,0.0,0.0,0.0,0.0,0.0,0.0,0.0,0.0,0.0,0.0,0.0,0.0,0.0,0.0,0.0,0.0,0.0,0.0,0.0,0.0,0.0,0.0,-5.4517,-5.4517,-5.4168,-5.353,-5.3994,-5.3965,-5.35,-5.35,-5.35,-5.35,-5.3297,-5.321,-5.321,-5.3007,-5.292,-5.2862,-5.2455,-5.2281,-5.2136,-5.1062,-5.0734,-5.0618,0.0,0.0,0.0,0.0,0.0,0.0,0.0,0.0,-3.6603,-3.7132,-3.7923,0.0,0.0,0.0,0.0,0.0,0.0,0.0,-3.931,-3.9542,-3.9697,-3.9697,-4.0224,-4.1254,-4.297,-4.4665,-4.5801,-4.6319,-4.8574,-4.9746,-4.9717,-4.9717,-4.9717,-4.9717,-4.9717,-4.9717,-4.9717,-4.9717,-4.9717,-4.9717,-4.9717,-4.9717,-4.9611,0.0,0.0,0.0,0.0,0.0,0.0,0.0,-4.874,-4.8663,-4.8692,-4.9175,-4.9717,-4.9717,-4.9717,-4.9717,-4.9717,-4.9717,-4.9717,-4.9746,-5.0191,-5.1178,-5.3094,-5.353,-5.3878,-5.5184,-5.4952,-5.472,-5.5329,-5.5445,0.0,0.0,0.0,0.0,0.0,0.0,0.0,0.0,0.0,0.0,0.0,0.0,0.0,0.0,0.0,0.0,0.0,0.0,0.0,0.0,0.0,0.0,-5.4517,-5.4487,-5.4168,-5.35,-5.35,-5.35,-5.35,-5.35,-5.35,-5.3471,-5.2833,-5.2623,-5.2565,-5.1875,-5.1614,-5.1614,-5.1614,-5.1614,-5.1527,-5.0888,-5.0705,-5.0618,0.0,0.0,0.0,0.0,0.0,0.0,0.0,0.0,-3.7213,-3.8007,-3.8445,0.0,0.0,0.0,0.0,0.0,0.0,0.0,-3.9594,-3.9645,-4.0032,-4.0693,-4.0235,-4.1261,-4.4074,-4.6173,-4.7724,-4.8674,-4.9837,-5.0133,-4.9717,-4.9717,-4.9717,-4.9717,-4.9717,-4.9717,-4.9717,-4.9717,-4.9717,-4.9717,-4.9717,-4.9717,-4.9688,0.0,0.0,0.0,0.0,0.0,0.0,0.0,0.0,0.0,-4.9233,-4.9524,-4.9717,-4.9717,-4.9349,-4.9117,-4.9553,-4.9349,-4.9233,-5.0162,-5.0859,-5.1846,-5.3791,-5.4226,-5.4836,-5.6984,-5.6926,-5.6665,-5.7332,-5.7448,0.0,0.0,0.0,0.0,0.0,0.0,0.0,0.0,0.0,0.0,0.0,0.0,0.0,0.0,0.0,0.0,0.0,0.0,0.0,0.0,0.0,0.0,-5.382,-5.3384,-5.3036,-5.2833,-5.2397,-5.2426,-5.2862,-5.2862,-5.2601,-5.2165,-5.1991,-5.1904,-5.1875,-5.1701,-5.1614,-5.1585,-5.112,-5.0946,-5.0888,-5.022,-5.0037,-4.9979,0.0,0.0,0.0,0.0,0.0,0.0,0.0,0.0,-3.7736,-3.826,-3.8728,-3.9154,0.0,0.0,0.0,0.0,0.0,0.0,-4.0262,-3.9929,-4.0313,-4.1766,-4.067,-4.157,-4.4881,-4.7415,-4.9001,-4.9717,-5.0124,-5.0124,-4.9717,-4.9717,-4.9814,-5.0124,-5.0124,-5.0124,-5.0124,-5.0124,-4.993,-4.9717,-4.9717,-4.9717,-4.9717,0.0,0.0,0.0,0.0,0.0,0.0,0.0,0.0,0.0,-4.9262,-4.9465,-4.9717,-4.9717,-4.9407,-4.9175,-4.9582,-4.9582,-4.9756,-5.0801,-5.1904,-5.3268,-5.5184,-5.6026,-5.6984,-5.9045,-5.8726,-5.8232,-5.861,-5.8493,0.0,0.0,0.0,0.0,0.0,0.0,0.0,0.0,0.0,0.0,0.0,0.0,0.0,0.0,0.0,0.0,0.0,0.0,0.0,0.0,0.0,0.0,-5.2775,-5.2368,-5.2194,-5.2194,-5.1788,-5.1701,-5.1868,-5.2078,-5.1991,-5.1614,-5.1352,-5.1091,-5.0859,-5.0859,-5.0859,-5.0801,-5.0423,-5.0328,-5.022,-4.9863,-4.9717,-4.9717,0.0,0.0,-3.6864,-3.6603,0.0,0.0,0.0,0.0,-3.8206,-3.8255,-3.8856,-3.931,0.0,0.0,0.0,0.0,0.0,0.0,-4.1169,-4.0465,-4.087,-4.2922,-4.1874,-4.2632,-4.5578,-4.8311,-4.9717,-4.9717,-4.9717,-4.9717,-4.9717,-4.9727,-5.0153,-5.0734,-5.0734,-5.0734,-5.0734,-5.0598,-5.027,-4.9717,-4.9717,-4.9717,-4.9717,-4.9717,0.0,0.0,0.0,0.0,0.0,0.0,0.0,0.0,-4.9001,-4.9204,-4.9717,-4.9717,-4.9717,-4.9746,-4.9756,-5.0299,-5.0917,-5.1614,-5.3326,-5.5329,-5.7158,-5.8552,-5.9771,-6.0816,-6.0206,-5.948,-5.948,-5.8987,0.0,0.0,0.0,0.0,0.0,0.0,0.0,0.0,0.0,0.0,0.0,0.0,0.0,0.0,0.0,0.0,0.0,0.0,0.0,0.0,0.0,0.0,-5.1701,-5.1585,-5.1527,0.0,-5.1468,-5.1149,-5.0598,-5.1236,-5.1497,-5.141,-5.083,-5.0249,-4.9717,-4.9717,-4.9717,-4.9717,-4.9717,-4.9717,-4.9717,-4.9717,-4.9717,-4.9717,0.0,0.0,-3.826,-3.7882,0.0,0.0,0.0,0.0,0.0,-3.9317,-3.9519,0.0,0.0,0.0,0.0,0.0,0.0,0.0,-4.1219,-4.1766,-4.2912,-4.4709,-4.6159,-4.6912,-4.6845,-4.8735,-4.9717,-4.9717,-4.9717,-4.9717,-4.9746,-5.027,-5.054,-5.0734,-5.0734,-5.0734,-5.0705,-5.0153,-4.9814,-4.9717,-4.9717,-4.9717,-4.9717,-4.9717,-4.9717,0.0,0.0,0.0,0.0,0.0,0.0,0.0,-4.9524,-4.9553,-4.9717,-4.9717,-4.9717,-4.9785,-5.0307,-5.0946,-5.1701,-5.2833,-5.53,-5.7855,-5.9248,-6.0206,-6.0584,-5.9858,-6.0293,-6.0787,-6.0787,0.0,0.0,0.0,0.0,0.0,0.0,0.0,0.0,0.0,0.0,0.0,0.0,0.0,0.0,0.0,0.0,0.0,0.0,0.0,0.0,0.0,0.0,-5.2565,-5.2368,-5.1381,-5.0888,0.0,-5.0336,-5.0017,-4.995,-5.0569,-5.0598,-5.0075,-4.9959,-4.9814,-4.9717,-4.9717,-4.9717,-4.9717,-4.9717,-4.9717,-4.9717,-4.9717,-4.9717,-4.9717,0.0,0.0,0.0,0.0,0.0,0.0,0.0,0.0,0.0,0.0,0.0,0.0,0.0,0.0,0.0,0.0,-4.1864,0.0,-4.2012,-4.2501,-4.3415,-4.4906,-4.7347,-4.8373,-4.7594,-4.8977,-4.9717,-4.9717,-4.9717,-4.9843,-5.0211,-5.056,-5.1149,-5.1991,-5.1381,-5.1294,-5.1577,-5.0618,-5.0008,-4.9717,-4.9717,-4.9717,-4.9717,-4.9717,-4.9717,-4.9717,-4.9717,0.0,0.0,0.0,0.0,0.0,0.0,0.0,-4.9717,-4.9717,-4.9717,-4.9805,-5.0153,-5.0888,-5.2223,-5.472,-5.7274,-5.948,-6.0438,-6.0932,-6.1019,-6.0351,-6.0729,-6.1193,0.0,0.0,0.0,0.0,0.0,0.0,0.0,0.0,0.0,0.0,0.0,0.0,0.0,0.0,0.0,0.0,0.0,0.0,0.0,0.0,0.0,0.0,-5.2281,-5.1817,-5.1228,-5.054,-5.0191,-5.0191,-4.9892,-4.9717,-4.9746,-5.0046,-5.0017,-4.9717,-4.9717,-4.9717,-4.9717,-4.9717,-4.9717,-4.9717,-4.9717,-4.9921,-5.0104,-4.9785,-4.9921,-5.0104,0.0,0.0,0.0,0.0,0.0,0.0,0.0,0.0,0.0,0.0,0.0,0.0,0.0,0.0,-4.1667,0.0,0.0,0.0,-4.3081,-4.3465,-4.4166,-4.5266,-4.7592,-4.8681,-4.8324,-4.9314,-4.9843,-4.9843,-4.9843,-5.0365,-5.1323,-5.1004,-5.173,-5.3297,-5.2252,-5.202,-5.2339,-5.1228,-5.0278,-4.9717,-4.9717,-4.9717,-4.9717,-4.9717,-4.9717,-4.9717,-4.9717,-4.9717,-4.9717,-4.9717,0.0,0.0,0.0,0.0,-4.9717,-4.9717,-4.9717,-4.9746,-4.9814,-5.0888,-5.2775,-5.6287,-5.8523,-6.0061,-6.0845,-6.1106,-6.1164,-6.1048,-6.1106,0.0,0.0,0.0,0.0,0.0,0.0,0.0,0.0,0.0,0.0,0.0,0.0,0.0,0.0,0.0,0.0,0.0,0.0,0.0,0.0,0.0,-5.2833,-5.1643,-5.1527,-5.0946,-4.9872,-4.9776,-4.9717,-4.9717,-4.9717,-4.9717,-4.9717,-4.9717,-4.9717,-4.9717,-4.9717,-4.9717,-4.9717,-4.9717,-4.9717,-4.9717,-4.9717,-5.0075,-5.0598,-5.0095,-5.0191,-5.0598,0.0,0.0,0.0,0.0,0.0,0.0,0.0,0.0,0.0,0.0,-4.2339,-4.3067,0.0,0.0,0.0,-4.2647,-4.4387,-4.511,-4.4172,0.0,0.0,-4.8105,-4.9059,-4.9533,-4.9473,-5.02,-5.0589,-5.0589,-5.0589,-5.173,-5.3965,-5.2281,-5.1933,-5.2688,-5.2514,-5.2165,-5.1701,-5.0975,-5.0278,-4.9717,-4.9717,-4.9717,-4.9717,-4.9717,-4.9717,-4.9717,-4.9717,-4.9717,-4.9717,-4.9717,-4.9717,0.0,0.0,0.0,-4.9717,-4.9717,-4.9717,-4.9863,-5.0394,-5.1875,-5.3791,-5.5968,-5.7565,-5.8871,-6.0061,-6.0787,-6.1048,0.0,0.0,0.0,0.0,0.0,0.0,0.0,0.0,0.0,0.0,0.0,0.0,0.0,0.0,0.0,0.0,0.0,0.0,0.0,0.0,0.0,0.0,-5.2798,-5.2368,-5.1643,-5.1091,-5.0714,-5.0589,-5.0008,-4.9717,-4.9717,-4.9717,-4.9717,-4.9717,-4.9717,-4.9717,-4.9717,-4.9717,-4.9717,-4.9717,-4.9717,-4.9717,-4.9717,-4.9717,-5.0075,-5.0705,-5.0618,-5.0598,-5.0705,0.0,0.0,0.0,0.0,0.0,0.0,0.0,0.0,0.0,0.0,0.0,-4.4425,0.0,0.0,0.0,-4.4747,-4.6091,-4.6582,-4.5745,-4.7344,-4.8275,-4.8188,-4.9146,-4.9717,-4.9717,-5.0008,-5.0307,-5.0734,-5.0734,-5.1991,-5.4487,-5.3646,-5.3936,-5.5184,-5.4139,-5.35,-5.3123,-5.141,-5.0511,-5.024,-4.9814,-4.9717,-4.9717,-4.9717,-4.9717,-4.9717,-4.9717,-4.9717,-4.9717,-4.9717,-4.9717,-4.9717,-4.9717,0.0,0.0,0.0,-4.9717,-4.9863,-5.0481,-5.1817,-5.3355,-5.4952,-5.6549,-5.8,-5.8929,-5.9655,-6.0061,-5.9771,0.0,0.0,0.0,0.0,0.0,0.0,0.0,0.0,0.0,0.0,0.0,0.0,0.0,0.0,0.0,0.0,0.0,0.0,0.0,0.0,-5.2652,-5.2223,-5.1759,-5.112,-5.083,-5.0481,-5.0104,-4.9863,-4.9717,-4.9717,-4.9717,-4.9717,-4.9717,-4.9717,-4.9717,-4.9717,-4.9717,-4.9717,-4.9717,-4.9717,-4.9717,-4.9717,-4.9717,-5.0075,-5.0734,-5.0734,-5.0734,-5.0714,0.0,0.0,0.0,0.0,0.0,0.0,0.0,0.0,0.0,0.0,0.0,0.0,0.0,0.0,0.0,0.0,-4.7328,-4.7637,-4.73,-4.8141,-4.8595,-4.8275,-4.9175,-4.9717,-4.9717,-4.9892,-5.0249,-5.0917,-5.0917,-5.2397,-5.5213,-5.5068,-5.6171,-5.8203,-5.6142,-5.5039,-5.4604,-5.2543,-5.1556,-5.1323,-5.0511,-5.0162,-5.0162,-5.0162,-5.0162,-5.0162,-4.9988,-4.993,-4.993,-4.993,-4.9814,-4.9698,-4.9921,-4.9863,0.0,0.0,0.0,-4.9785,-5.0278,-5.1287,-5.2368,-5.35,-5.5184,-5.6781,-5.7419,0.0,-5.8958,0.0,0.0,0.0,0.0,0.0,0.0,0.0,0.0,0.0,0.0,0.0,0.0,0.0,0.0,0.0,0.0,0.0,0.0,0.0,0.0,0.0,-5.2158,-5.1643,-5.1091,-5.0502,-5.0473,-5.0191,-4.9717,-4.9717,-4.9717,-4.9717,-4.9717,-4.9717,-4.9717,-4.9717,-4.9717,-4.9717,-4.9717,-4.9717,-4.9717,-4.9717,-4.9717,-4.9717,-4.9717,-5.0075,-5.0734,-5.0734,-5.0772,-5.0975,0.0,0.0,0.0,0.0,0.0,0.0,0.0,0.0,0.0,0.0,0.0,-4.8046,-4.6923,-4.7358,-4.7735,-4.7735,-4.7782,-4.8014,-4.8595,-4.8634,-4.8972,-4.9553,-4.964,0.0,-4.9717,-5.0307,-5.0946,-5.1556,-5.1556,-5.3471,-5.7158,-5.6578,-5.8,-6.0874,-5.829,-5.649,-5.5329,-5.4604,-5.3965,-5.3268,-5.202,-5.1527,-5.1527,-5.1527,-5.1527,-5.1439,-5.083,-5.0676,-5.0676,-5.0676,-5.024,-4.9785,-5.0473,-5.0191,-4.9717,0.0,0.0,0.0,-4.9727,-5.0249,-5.0946,-5.1614,-5.321,-5.4807,-5.5416,0.0,0.0,0.0,0.0,0.0,0.0,0.0,0.0,0.0,0.0,0.0,0.0,0.0,0.0,0.0,0.0,0.0,0.0,0.0,0.0,0.0,0.0,0.0,-5.0801,-5.0793,-5.0423,-4.9756,-4.9727,-4.9746,-4.9717,-4.9717,-4.9717,-4.9717,-4.9717,-4.9717,-4.9717,-4.9717,-4.9717,-4.9717,-4.9717,-4.9717,-4.9717,-4.9717,-4.9717,-4.9717,-4.9717,-5.0075,-5.0734,-5.0734,-5.1062,-5.1585,0.0,0.0,0.0,0.0,0.0,0.0,0.0,0.0,0.0,0.0,0.0,0.0,0.0,-4.8624,-4.9001,-4.9001,-4.9001,-4.8914,-4.8692,-4.9117,-4.9262,-4.9059,-4.9465,-4.9717,-4.9717,-5.0386,-5.1004,-5.1614,-5.1614,-5.3152,-5.6084,-5.5881,-5.7042,-5.9306,-5.8348,-5.7681,-5.71,-5.4836,-5.3733,-5.3413,-5.2136,-5.1614,-5.1614,-5.1614,-5.1614,-5.1585,-5.1381,-5.1294,-5.1294,-5.1294,-5.112,-5.0888,-5.0714,-5.056,-5.027,-4.9863,-4.9717,-4.9717,-4.9717,-4.9892,-5.0191,-5.0859,-5.1846,-5.2833,-5.3442,-5.4778,-5.5736,0.0,0.0,0.0,0.0,0.0,0.0,0.0,0.0,0.0,0.0,0.0,0.0,0.0,0.0,0.0,0.0,0.0,0.0,0.0,0.0,0.0,-5.0685,-5.0328,-4.9979,-4.9746,-4.9717,-4.9717,-4.9717,-4.9717,-4.9717,-4.9717,-4.9717,-4.9717,-4.9717,-4.9717,-4.9717,-4.9717,-4.9717,-4.9717,-4.9717,-4.9717,-4.9717,-4.9717,-4.9717,-4.9863,-5.0075,-5.0511,-5.083,-5.112,0.0,0.0,0.0,0.0,0.0,-4.6359,-4.672,-4.6998,-4.7317,-4.7724,0.0,0.0,0.0,0.0,-5.0336,-5.0336,-5.0336,-5.0133,-4.9678,-4.9901,-4.9814,-4.9407,-4.9582,-4.9834,-5.0017,-5.0502,-5.1091,-5.1933,-5.1933,-5.3123,-5.5416,-5.5416,-5.6578,-5.861,-5.8174,-5.8319,-5.8784,-5.6432,-5.5474,-5.5329,-5.382,-5.321,-5.321,-5.321,-5.321,-5.321,-5.2978,-5.2891,0.0,0.0,0.0,-5.1875,-5.1439,-5.0909,-5.0299,-4.9814,-4.9717,-4.9717,-4.9717,-4.9717,-4.9785,-5.022,-5.083,-5.141,-5.1846,0.0,0.0,0.0,0.0,0.0,0.0,0.0,0.0,0.0,0.0,0.0,0.0,0.0,0.0,0.0,0.0,0.0,0.0,0.0,0.0,0.0,0.0,0.0,-5.0336,-4.993,-4.9717,-4.9717,-4.9717,-4.9717,-4.9717,-4.9717,-4.9717,-4.9717,-4.9717,-4.9717,-4.9717,-4.9717,-4.9717,-4.9717,-4.9717,-4.9717,-4.9717,-4.9717,-4.9717,-4.9717,-4.9717,-4.9717,-4.9727,-5.0211,-5.0598,-5.112,0.0,0.0,-4.665,-4.6011,-4.6417,-4.6807,-4.6807,-4.7375,-4.7782,-4.784,0.0,0.0,0.0,0.0,0.0,-5.1614,-5.1614,-5.1614,-5.1614,-5.1033,-5.0714,-5.0714,-5.0075,-5.0046,-5.0685,-5.0763,-5.1374,-5.2623,-5.2623,-5.353,-5.5358,-5.5358,-5.6723,-5.9161,-5.7884,-5.8348,-6.009,-5.948,-5.9248,-5.9132,-5.7187,-5.6432,-5.649,-5.6432,-5.6432,-5.6345,-5.5678,-5.5445,0.0,-5.4778,0.0,0.0,-5.2652,-5.1345,-4.9776,-4.9776,-4.9776,-4.9776,0.0,0.0,0.0,-4.9698,-5.0211,-5.0705,-5.0705,0.0,0.0,0.0,0.0,0.0,0.0,0.0,0.0,0.0,0.0,0.0,0.0,0.0,0.0,0.0,0.0,0.0,0.0,0.0,0.0,0.0,0.0,-4.9717,-4.9717,-4.9717,-4.9717,-4.9717,-4.9717,-4.9717,-4.9717,-4.9717,-4.9717,-4.9717,-4.9717,-4.9717,-4.9717,-4.9717,-4.9717,-4.9717,-4.9717,-4.9717,-4.9717,-4.9717,-4.9717,-4.9717,-4.9717,-4.9717,-4.9717,-4.9717,-5.0481,-5.1585,0.0,-4.7143,-4.672,-4.6592,-4.6662,-4.6923,-4.7433,-4.7666,-4.8101,0.0,0.0,0.0,-5.0917,-5.1817,-5.2107,-5.1643,-5.1614,-5.1614,-5.1614,-5.1439,-5.1352,-5.1352,-5.1178,-5.1178,-5.1352,-5.1817,-5.2274,-5.2623,-5.2623,-5.3065,-5.4052,-5.4052,-5.5184,-5.7216,-5.7274,-5.7884,-5.8755,-5.7681,-5.8029,-5.9132,-5.7187,-5.7245,-5.8348,-5.6955,-5.6665,-5.6984,0.0,-5.6142,-5.6113,0.0,-5.5329,-5.4458,-5.353,-5.2252,-5.1091,-5.1091,-5.1091,-5.1091,-5.1091,0.0,0.0,0.0,0.0,0.0,-5.0008,-5.0598,0.0,0.0,0.0,0.0,0.0,0.0,0.0,0.0,0.0,0.0,0.0,0.0,0.0,0.0,0.0,0.0,0.0,0.0,0.0,0.0,-4.9834,-4.9717,-4.9717,-4.9717,-4.9717,-4.9717,-4.9717,-4.9717,-4.9717,-4.9717,-4.9717,-4.9717,-4.9717,-4.9717,-4.9717,-4.9717,-4.9717,-4.9717,-4.9717,-4.9717,-4.9717,-4.9717,-4.9717,-4.9717,-4.9717,-4.9717,-4.9717,-4.9717,-5.022,-5.1004,-4.8217,-4.7869,-4.7503,-4.7259,-4.723,-4.7346,-4.7724,-4.7782,-4.813,0.0,0.0,0.0,-5.2949,-5.353,-5.3617,-5.3239,-5.321,-5.321,-5.321,-5.2717,-5.2397,-5.2397,-5.1904,-5.1875,-5.2397,-5.2514,-5.2833,-5.3384,-5.3094,-5.3297,-5.3936,-5.3936,-5.4807,-5.6403,-5.649,-5.7013,-5.7826,-5.6839,-5.7536,-5.9219,-5.8348,-5.8842,-5.9945,-5.8523,-5.8377,-5.8842,0.0,0.0,-5.7913,-5.739,-5.6229,0.0,0.0,-5.2659,-5.1614,-5.1614,-5.1614,-5.1614,-5.1614,-5.1352,-5.1004,-5.0743,0.0,0.0,-4.9727,-5.0037,-5.0299,0.0,0.0,0.0,0.0,0.0,0.0,0.0,0.0,0.0,0.0,0.0,0.0,0.0,0.0,0.0,0.0,0.0,0.0,0.0,-4.9717,-4.9717,-4.9717,-4.9717,-4.9717,-4.9717,-4.9717,-4.9717,-4.9717,-4.9717,-4.9717,-4.9717,-4.9717,-4.9717,-4.9717,-4.9717,-4.9717,-4.9717,-4.9717,-4.9717,-4.9717,-4.9717,-4.9717,-4.9717,-4.9717,-4.9717,-4.9698,-4.9988,-5.0336,-5.0801,0.0,-4.8769,-4.8566,-4.8072,-4.7985,-4.8072,-4.8275,-4.8304,-4.8566,0.0,-5.1004,-5.3007,-5.5271,-5.5591,-5.5591,-5.5533,-5.5445,-5.5416,-5.5416,-5.4342,-5.3733,-5.3733,-5.2659,-5.2572,-5.3704,-5.3181,-5.3442,-5.4604,-5.4023,-5.4023,-5.4604,-5.4604,-5.5242,-5.6374,-5.5794,-5.6142,-5.7187,-5.6868,-5.7681,-5.9248,-5.9858,-6.0613,-6.1338,-6.0584,-6.0729,-6.1222,-6.0613,-6.038,-6.0119,-5.8755,-5.6723,0.0,0.0,0.0,0.0,0.0,-5.1817,-5.1817,-5.1817,-5.1788,-5.1585,-5.1033,-5.088,0.0,-4.993,-4.9785,-4.9805,0.0,0.0,0.0,0.0,0.0,0.0,0.0,0.0,0.0,0.0,0.0,0.0,0.0,0.0,0.0,0.0,0.0,-4.9717,-4.9717,-4.9717,-4.9717,-4.9717,-4.9717,-4.9717,-4.9717,-4.9717,-4.9717,-4.9717,-4.9717,-4.9717,-4.9717,-4.9717,-4.9717,-4.9717,-4.9717,-4.9717,-4.9717,-4.9717,-4.9717,-4.9717,-4.9717,-4.9717,-4.9746,-4.9805,-4.9805,-4.9805,-5.0423,-5.0627,-5.0793,-4.9524,-4.9088,-4.8856,-4.9233,-4.932,-4.9872,-5.1381,-5.1693,-5.2049,-5.3239,-5.4604,-5.5649,-5.6171,-5.6636,-5.6723,-5.6258,-5.5707,-5.5416,-5.5416,-5.5184,-5.5039,-5.5039,-5.4807,-5.4778,-5.5039,-5.4923,-5.4981,-5.5242,-5.5097,-5.5097,-5.5242,-5.5242,-5.5649,-5.6403,-5.6258,-5.6345,-5.6665,-5.8116,-5.8639,-5.8552,-5.9219,-6.0787,-6.2587,-6.1454,-6.1396,-6.189,-6.1774,-6.1425,-6.0729,-5.89,-5.7303,-5.591,0.0,0.0,0.0,-5.3297,0.0,0.0,0.0,0.0,0.0,0.0,0.0,0.0,-5.0627,-5.0531,-5.0336,0.0,0.0,0.0,0.0,0.0,0.0,0.0,0.0,0.0,0.0,0.0,0.0,0.0,0.0,0.0,0.0,0.0,-4.9717,-4.9717,-4.9717,-4.9717,-4.9717,-4.9717,-4.9717,-4.9717,-4.9717,-4.9717,-4.9717,-4.9717,-4.9717,-4.9717,-4.9717,-4.9717,-4.9717,-4.9717,-4.9717,-4.9717,-4.9717,-4.9717,-4.9717,-4.9717,-4.9717,-4.9727,-5.0328,-5.0211,-4.9805,-5.0423,-5.0386,-5.0046,-4.9805,-4.9407,-4.9407,-5.0046,-5.0452,-5.1091,-5.2368,-5.2833,-5.3384,-5.4371,-5.5881,-5.6984,-5.7332,-5.7623,-5.7536,-5.6897,-5.6549,-5.6345,-5.6345,-5.6084,-5.591,-5.591,-5.5591,-5.5562,-5.591,-5.5591,-5.5562,-5.591,-5.5562,-5.5591,-5.591,-5.591,-5.6258,-5.6839,-5.6549,-5.6578,-5.6926,-5.7884,-5.8493,-5.8871,-5.9858,-6.1396,-6.2964,-6.1687,-6.1774,-6.2499,-6.189,-6.1222,-6.0496,-5.9219,-5.8145,0.0,0.0,-5.5707,-5.5271,0.0,-5.4226,-5.44,0.0,0.0,0.0,-5.3617,0.0,0.0,0.0,-5.117,-5.0618,0.0,0.0,0.0,0.0,0.0,0.0,0.0,0.0,0.0,0.0,0.0,0.0,0.0,0.0,0.0,0.0,0.0,-4.9717,-4.9717,-4.9717,-4.9717,-4.9717,-4.9717,-4.9717,-4.9717,-4.9717,-4.9717,-4.9717,-4.9717,-4.9717,-4.9717,-4.9717,-4.9892,-5.0211,-5.0211,-5.0336,-5.0627,-5.0307,-5.0365,-5.0627,-5.0307,-5.0365,-5.0656,-5.0656,-5.0656,-5.0714,-5.1381,-5.1207,-5.083,-4.9814,-4.9717,-4.993,-5.0714,-5.1381,-5.2107,-5.2978,-5.3646,-5.44,-5.53,-5.6752,-5.8,-5.8784,-5.8639,-5.8464,-5.8435,-5.7855,-5.7652,-5.8029,-5.7245,-5.6723,-5.6578,-5.6055,-5.6026,-5.6578,-5.6055,-5.6026,-5.6578,-5.6026,-5.6055,-5.6578,-5.6578,-5.6839,-5.7274,-5.6926,-5.7042,-5.7507,-5.7768,-5.8493,-5.9568,-6.0729,-6.1803,-6.2616,-6.1716,-6.2006,-6.2761,-6.1745,-6.0932,-6.0293,-5.9684,-5.9045,-5.829,-5.7129,-5.6694,0.0,0.0,0.0,0.0,0.0,0.0,0.0,0.0,0.0,-5.3849,0.0,0.0,0.0,0.0,0.0,0.0,0.0,0.0,0.0,0.0,0.0,0.0,0.0,0.0,0.0,0.0,0.0,0.0,0.0,0.0,-4.9717,-4.9717,-4.9717,-4.9717,-4.9717,-4.9717,-4.9717,-4.9717,-4.9717,-4.9717,-4.9717,-4.9717,-4.9717,-4.9717,-4.9814,-5.0211,-5.0734,-5.0801,-5.1149,-5.1585,-5.1062,-5.1149,-5.1585,-5.1062,-5.1236,-5.1759,-5.1236,-5.1265,-5.1701,-5.2339,-5.2165,-5.1788,-4.9814,-4.9717,-5.0075,-5.1294,-5.2049,-5.3065,-5.4807,-5.5649,-5.6723,-5.8523,-5.8958,-5.9539,-6.0729,-5.9858,-6.0061,-6.2238,-5.9829,-5.8929,-6.0642,-5.9074,-5.7826,-5.7216,-5.7129,-5.7129,-5.7216,-5.7129,-5.7129,-5.7216,-5.7129,-5.7129,-5.7216,-5.7216,-5.7245,-5.7332,-5.7855,-5.8116,-5.8261,-5.9393,-5.9945,-6.0148,-6.0903,-6.128,0.0,-6.1832,-6.2093,-6.218,-6.2035,-6.16,-6.099,0.0,-5.9684,-5.9074,0.0,-5.7681,-5.7071,-5.6374,0.0,0.0,0.0,0.0,0.0,0.0,-5.5707,0.0,0.0,0.0,0.0,0.0,0.0,0.0,0.0,0.0,0.0,0.0,0.0,0.0,0.0,0.0,0.0,0.0,0.0,0.0,0.0,0.0,0.0,-4.9717,-4.9717,-4.9717,-4.9717,-4.9717,-4.9717,-4.9717,-4.9717,-4.9717,-4.9717,-4.9717,-4.9717,-4.9746,-5.0328,-5.0647,-5.0685,-5.1265,-5.1556,-5.1614,-5.1556,-5.1556,-5.1614,-5.1556,-5.1875,-5.2507,-5.242,-5.2049,-5.1701,-5.2339,-5.2165,-5.173,-4.9814,-4.9988,-5.054,-5.1468,-5.2455,-5.3646,-5.5184,-5.7565,-5.9219,-5.9306,-6.0584,-6.1716,-6.2238,-6.1832,-6.1774,-6.2441,-6.128,-6.038,0.0,-5.9335,-5.8755,-5.8464,-5.8464,-5.829,-5.7884,-5.7884,-5.7681,-5.7303,-5.7303,-5.7303,-5.7303,-5.771,-5.7884,-5.7913,-5.8581,-5.8871,-5.8958,-6.0235,-6.0555,-6.0293,-6.1309,-6.1716,0.0,-6.2006,-6.2093,-6.2093,-6.2093,-6.1716,-6.1106,0.0,-6.0293,0.0,0.0,0.0,0.0,0.0,0.0,0.0,0.0,0.0,0.0,0.0,0.0,0.0,-5.5387,0.0,-5.3297,0.0,0.0,0.0,0.0,0.0,0.0,0.0,0.0,0.0,0.0,0.0,0.0,0.0,0.0,0.0,0.0,0.0,0.0,0.0,0.0,-4.9717,-4.9717,-4.9717,-4.9717,-4.9717,-4.9717,-4.9717,-4.9717,-4.9717,-4.9921,-5.0249,-5.0589,-5.1112,-5.1788,-5.2049,-5.2368,-5.2688,-5.2339,-5.2368,-5.2688,-5.231,-5.2543,-5.3123,-5.3123,-5.2949,-5.2694,-5.2827,-5.2717,-5.2515,-5.0278,-5.0452,-5.0946,-5.173,-5.2775,-5.4052,-5.5678,-5.8464,-6.0206,-5.9626,-6.1309,-6.2848,-6.3545,-6.3603,-6.3835,-6.4415,-6.3806,-6.2761,0.0,0.0,-6.0032,-5.9335,-5.9306,-5.9074,-5.8581,-5.8581,-5.8348,-5.7855,-5.7855,-5.7855,-5.7855,-5.8348,-5.8581,-5.861,-5.9626,-5.9974,-5.9916,-6.1367,-6.16,-6.1077,-6.2006,-6.247,-6.2587,-6.2238,-6.2093,-6.2064,-6.189,-6.1571,-6.1135,-6.0642,-6.0787,0.0,-5.9539,0.0,0.0,0.0,0.0,0.0,-5.7652,0.0,0.0,0.0,0.0,0.0,0.0,0.0,0.0,0.0,0.0,0.0,0.0,0.0,0.0,-5.0946,0.0,0.0,0.0,0.0,0.0,0.0,0.0,0.0,0.0,0.0,0.0,0.0,-4.9717,0.0,-4.9717,-4.9717,-4.9717,-4.9717,-4.9717,-4.9717,-4.9717,-4.9892,-5.0191,-5.0734,-5.1033,-5.1722,-5.2623,-5.2746,-5.3094,-5.35,-5.3036,-5.3094,-5.3471,-5.3007,-5.3094,-5.35,-5.35,-5.35,-5.3477,-5.3213,-5.3107,-5.3054,-5.1439,-5.1091,-5.1112,-5.2362,-5.3065,-5.4371,-5.6868,-5.7913,-5.8813,-6.0003,-6.0816,-6.218,-6.4648,-6.4938,-6.6418,-7.0134,-6.816,-6.6447,-6.5686,0.0,-6.189,0.0,0.0,-5.9306,0.0,-5.9277,-5.9248,-5.9248,-5.9248,-5.9248,-5.9248,-5.9248,-5.9277,-5.9364,-6.1193,-6.1687,-6.1251,-6.3138,-6.3574,-6.2993,-6.3051,-6.3428,-6.3772,0.0,-6.2093,-6.2006,-6.1425,0.0,0.0,-6.1164,-6.1164,0.0,0.0,0.0,0.0,0.0,0.0,0.0,0.0,0.0,0.0,-5.8261,0.0,0.0,0.0,0.0,-5.5968,0.0,0.0,0.0,0.0,0.0,-5.1585,-5.1585,-5.1062,0.0,0.0,0.0,0.0,0.0,0.0,0.0,0.0,0.0,0.0,-4.9717,-4.9717,-4.9717,-4.9717,-4.9717,-4.9717,-4.9717,-4.9717,-4.9717,-4.9717,-5.0307,-5.0705,-5.0685,-5.1984,-5.2565,-5.2652,-5.321,-5.35,-5.35,-5.35,-5.35,-5.35,-5.35,-5.35,-5.35,-5.35,-5.35,-5.3477,-5.3213,-5.3107,-5.3054,-5.2746,-5.3065,-5.3065,-5.2681,-5.3471,-5.4894,-5.6984,-5.9306,-6.1425,-6.3138,-6.5054,-6.7522,-7.0918,-7.1673,-7.2137,0.0,0.0,-7.0163,-6.7405,-6.6215,0.0,0.0,0.0,-6.1629,0.0,0.0,-6.0148,-5.9306,-5.9306,-5.9306,-5.9306,-5.9713,-5.9887,-5.9974,-6.1425,-6.1745,-6.1338,-6.369,-6.3806,-6.2499,0.0,-6.4357,-6.5112,0.0,0.0,-6.2674,-6.2035,-6.1542,0.0,-6.1193,-6.1193,-6.1106,-6.0671,-6.0555,-6.0467,-6.0032,-5.9568,0.0,0.0,0.0,-5.8871,-5.8406,0.0,0.0,0.0,0.0,0.0,0.0,0.0,0.0,0.0,-5.3326,-5.2746,-5.231,-5.1352,-5.0734,0.0,0.0,0.0,0.0,0.0,0.0,0.0,0.0,0.0,-4.9717,-4.9717,-4.9717,0.0,-4.9717,-4.9717,-4.9717,-4.9717,-4.9717,-4.9717,-5.0336,-5.0888,-5.1323,-5.2165,-5.2804,-5.321,-5.3413,-5.35,-5.35,-5.35,-5.35,-5.35,-5.35,-5.35,-5.35,-5.35,-5.35,-5.3477,-5.3001,-5.2841,-5.2787,-5.4081,-5.4371,-5.4255,-5.3413,-5.4342,-5.5765,-5.739,-6.0758,-6.3719,-6.5431,-6.8305,-7.1469,-7.4837,0.0,-7.5708,0.0,-7.5098,-7.324,-6.9147,-6.8683,0.0,-6.4822,-6.4207,0.0,0.0,0.0,0.0,0.0,-6.0438,-6.0409,-5.9974,-6.038,-6.0555,-6.0613,-6.2122,-6.2325,-6.1658,-6.4009,-6.427,0.0,0.0,-6.5054,0.0,0.0,-6.3574,-6.3632,0.0,-6.1716,-6.1193,-6.1193,-6.1193,-6.1106,-6.07,-6.07,-6.0758,-6.0322,-6.0032,-5.9916,-6.0148,-5.9771,0.0,-5.9016,-5.8813,0.0,-5.7826,0.0,0.0,0.0,0.0,0.0,0.0,0.0,-5.3646,-5.3007,-5.202,-5.1228,0.0,-5.0734,0.0,0.0,0.0,0.0,0.0,0.0,-4.9717,-4.9717,-4.9717,-4.9717,0.0,0.0,-4.9717,-4.9717,-4.9717,-4.9785,-5.0017,-5.0685,-5.1323,-5.1962,-5.2601,-5.3123,-5.35,-5.35,-5.3646,-5.3849,-5.3617,-5.3646,-5.3849,-5.3617,-5.35,-5.35,-5.35,-5.35,-5.3477,-5.2894,-5.2573,-5.2358,-5.5358,-5.501,-5.4662,-5.4749,-5.5765,-5.6984,-5.8261,-6.2209,-6.5548,-6.697,-7.0512,-7.3908,-7.6521,-7.6915,-7.7362,-7.8553,-7.803,-7.5795,-7.144,-7.1615,0.0,0.0,-6.5025,-6.4207,-6.4033,0.0,0.0,0.0,-6.2499,-6.2441,-6.1338,-6.1251,-6.1193,-6.128,-6.3167,-6.3283,-6.218,-6.4154,-6.4996,-6.5025,-6.5635,-6.5577,-6.4996,-6.4328,-6.4473,-6.4764,-6.279,-6.1716,-6.1251,-6.1222,-6.1193,-6.1193,-6.1193,-6.0758,-6.0235,-6.0235,-5.9829,-5.951,-6.009,-5.9829,-5.951,-6.0061,0.0,0.0,0.0,0.0,-5.8116,0.0,0.0,0.0,0.0,0.0,0.0,-5.3588,-5.2949,-5.2158,-5.0888,0.0,0.0,0.0,0.0,0.0,0.0,-4.9717,-4.9717,-4.9717,-4.9717,-4.9717,0.0,0.0,0.0,-4.9717,-4.9717,-4.9988,-5.0705,-5.1294,-5.1933,-5.2623,-5.321,-5.353,-5.3559,-5.3559,-5.3936,-5.4517,-5.3878,-5.3965,-5.4458,-5.382,-5.3559,-5.35,-5.35,-5.35,-5.3424,-5.2894,-5.2358,-5.1841,-5.62,-5.6374,-5.6897,-5.7884,-5.8348,-5.8987,-6.0264,-6.3428,-6.6999,-7.0657,-7.4518,-7.8088,-8.1136,-8.2297,-8.2617,-8.2007,-8.1339,0.0,0.0,0.0,0.0,-7.0337,-6.9437,-6.7667,-6.4793,-6.5054,0.0,-6.4009,0.0,-6.2674,-6.3283,-6.1861,-6.1193,-6.1251,-6.2703,-6.2616,-6.16,-6.398,-6.4996,-6.4996,-6.517,-6.5693,0.0,0.0,-6.5141,-6.5373,-6.2964,-6.2006,-6.1803,-6.1338,-6.1193,-6.1193,-6.1193,-6.1077,-6.0932,-6.0932,-6.0816,-6.0758,-6.0903,-6.0816,-6.0642,-6.0293,-6.009,-5.98,0.0,0.0,0.0,0.0,0.0,0.0,0.0,0.0,0.0,-5.3065,-5.2281,-5.1759,0.0,0.0,0.0,0.0,0.0,0.0,0.0,-4.9717,-4.9717,-4.9717,-4.9717,-4.9717,0.0,0.0,0.0,-4.9717,-4.9717,-4.9988,-5.0705,-5.1294,-5.1933,-5.2623,-5.321,-5.3762,-5.4255,-5.4255,-5.4604,-5.5184,-5.501,-5.4778,-5.4517,-5.4313,-5.3965,-5.35,-5.35,-5.3372,-5.316,-5.2841,-5.2465,-5.2059,-5.7361,-5.8639,-5.9887,-6.009,-6.1977,-6.3341,-6.2906,-6.4851,0.0,-7.205,-7.623,0.0,-8.1688,-8.3575,-8.4474,-8.4068,-8.2907,0.0,-7.9423,0.0,0.0,-7.3037,-7.1789,-6.9873,-6.7144,-6.6331,0.0,-6.4561,0.0,-6.247,-6.3138,-6.1513,-6.0932,-6.128,-6.2819,-6.2964,-6.2151,-6.4154,-6.4822,-6.4561,-6.4561,0.0,0.0,-6.4415,-6.4386,-6.4473,-6.2732,-6.2093,-6.2006,-6.1396,-6.1193,-6.1193,-6.1193,-6.1193,-6.1193,-6.1193,-6.1193,-6.1193,-6.1193,-6.1193,-6.1106,-6.0729,-6.0642,-6.0467,-5.9829,-5.919,-5.8668,0.0,0.0,0.0,0.0,0.0,0.0,-5.3239,-5.2688,0.0,0.0,0.0,0.0,0.0,0.0,0.0,0.0,-4.9892,-4.9717,-4.9717,-4.9717,0.0,0.0,0.0,0.0,-4.9717,-5.022,-5.0714,-5.1091,-5.1991,-5.2775,-5.3413,-5.3791,-5.4284,-5.4894,-5.4894,-5.5242,-5.5823,-5.5533,-5.5213,-5.4894,-5.4633,-5.411,-5.35,-5.3372,-5.3319,-5.3213,-5.268,-5.2358,-5.2167,-5.8668,-6.099,-6.2703,-6.1513,-6.5344,0.0,0.0,-6.7289,0.0,-7.3153,0.0,-8.041,-8.0991,-8.3081,-8.4678,-8.5171,0.0,-8.1833,-8.0033,-7.9627,-7.8117,-7.5156,-7.3095,-7.1382,-6.9931,-6.7463,0.0,0.0,0.0,-6.2003,-6.2119,-6.0725,-6.0406,-6.1075,-6.2902,-6.3424,-6.3051,-6.4241,-6.4357,-6.3777,-6.3893,-6.3632,-6.3225,-6.3225,-6.3225,-6.3138,-6.247,-6.218,-6.2006,-6.1396,-6.1193,-6.1193,-6.1193,-6.1193,-6.1193,-6.1193,-6.1193,-6.1193,-6.1193,-6.1193,-6.1193,-6.1193,-6.1193,-6.1048,-6.0467,-5.98,-5.9132,-5.8552,-5.7826,-5.7129,0.0,0.0,0.0,0.0,0.0,0.0,0.0,0.0,0.0,0.0,0.0,0.0,0.0,0.0,0.0,-4.9717,-4.9717,0.0,0.0,0.0,0.0,0.0,-5.0917,0.0,-5.173,0.0,-5.382,-5.4633,-5.4546,-5.4865,-5.5533,-5.5533,-5.591,-5.649,-5.5823,-5.5533,-5.5474,-5.4807,-5.411,-5.3477,-5.3299,-5.3353,-5.3372,-5.2491,-5.2167,-5.2167,-5.9887,-6.16,-6.2848,-6.2064,-6.488,-6.8131,-7.086,-7.3705,-7.6375,-7.864,-8.2384,-8.491,-8.5026,-8.5897,-8.6303,-8.5897,-8.5084,0.0,0.0,0.0,0.0,-7.7798,-7.533,-7.2921,-7.0599,-6.8567,-6.7173,0.0,0.0,-6.1495,-6.2476,-6.0445,-5.9669,-6.011,-6.1405,-6.2138,-6.2325,-6.308,0.0,-6.247,-6.3051,-6.3516,-6.3864,-6.3864,-6.3864,-6.3777,-6.3138,-6.2558,-6.2006,-6.1396,-6.1193,-6.1193,-6.1193,-6.1193,-6.1193,-6.1193,-6.1193,-6.1193,-6.1193,-6.1193,-6.1193,-6.1193,-6.1193,-6.1164,-6.1048,-6.0119,-5.9277,-5.9161,-5.8145,-5.7129,-5.652,0.0,0.0,0.0,0.0,0.0,0.0,0.0,0.0,0.0,0.0,0.0,0.0,0.0,0.0,0.0,0.0,0.0,0.0,0.0,0.0,0.0,0.0,0.0,0.0,0.0,0.0,-5.5242,-5.4749,-5.5126,-5.6229,-5.6229,-5.6578,-5.71,-5.649,-5.6229,-5.6142,-5.4981,-5.411,-5.3506,-5.379,-5.3621,-5.3107,-5.2465,-5.2167,-5.2167,-6.3051,-6.3922,-6.488,-6.5896,0.0,0.0,0.0,-7.9104,-8.0991,-7.9917,-8.1978,-8.3662,-8.401,-8.581,-8.7,-8.7029,-8.5839,-8.4794,-8.4126,-8.2007,-8.0062,-7.8465,-7.623,0.0,-7.176,-6.8857,-6.7202,-6.6883,0.0,-6.0825,-6.2097,-5.9833,-5.8885,-5.9092,-6.0505,-6.2047,0.0,0.0,0.0,-6.2587,-6.2238,-6.2296,-6.2558,-6.2558,-6.2558,-6.2529,-6.2209,-6.189,-6.16,-6.1309,-6.1193,-6.1193,-6.1193,-6.1193,-6.1193,-6.1193,-6.1193,-6.1193,-6.1193,-6.1193,-6.1193,-6.1193,-6.1193,-6.1193,-6.1193,-6.0467,-5.9684,-5.9364,-5.8784,-5.8145,-5.7507,-5.6607,0.0,0.0,0.0,0.0,0.0,0.0,0.0,0.0,0.0,0.0,0.0,0.0,0.0,0.0,0.0,0.0,0.0,0.0,0.0,0.0,0.0,0.0,0.0,0.0,0.0,-5.591,-5.5271,-5.5649,-5.6868,-5.6868,-5.7042,-5.7274,-5.6984,-5.649,-5.5823,-5.4894,-5.4409,-5.4277,-5.4294,-5.3927,-5.3274,-5.2648,-5.2341,-5.2167,-6.6128,-6.6767,-6.7841,0.0,-7.3153,0.0,-7.9075,-8.2559,-8.3923,-8.1281,-8.192,-8.282,-8.3342,-8.5665,-8.7232,-8.7319,-8.5955,-8.462,-8.3546,-8.192,-8.0236,-7.8494,-7.655,-7.4663,-7.2863,-6.906,-6.6941,0.0,0.0,0.0,-6.1138,-5.9283,-5.8565,-5.8856,0.0,0.0,0.0,0.0,-6.2325,-6.2616,-6.1745,-6.1396,-6.1396,-6.1542,-6.1513,-6.1396,-6.1396,-6.1309,-6.1193,-6.1193,-6.1193,-6.1193,-6.1193,-6.1193,-6.1193,-6.1193,-6.1193,-6.1193,-6.1193,-6.1193,-6.1193,-6.1193,-6.1193,-6.1193,-6.1193,-6.0671,-6.0061,-5.9597,-5.9393,-5.9132,-5.861,-5.8087,0.0,0.0,0.0,0.0,0.0,0.0,0.0,0.0,0.0,0.0,0.0,0.0,0.0,0.0,0.0,-5.0743,-5.0859,-5.0743,0.0,0.0,0.0,-5.2746,-5.35,0.0,-5.5068,0.0,-5.5794,-5.6084,-5.7303,-5.7303,-5.7303,-5.7303,-5.7158,-5.6461,-5.5387,-5.4985,-5.4909,-5.5063,-5.4791,-5.4366,-5.3685,-5.2964,-5.2515,-5.2256,0.0,0.0,0.0,0.0,0.0,0.0,-7.9975,-8.2471,-8.4678,-8.6071,-8.6855,-8.7319,-8.7377,-8.7668,-8.7174,-8.549,-8.52,-8.4068,-8.163,-8.0788,-7.9801,-7.8465,-7.655,-7.4895,-7.356,-6.9757,-6.7202,0.0,0.0,0.0,0.0,-5.9038,-5.9358,0.0,0.0,0.0,0.0,-6.1948,-6.1803,-6.1425,-6.1832,-6.2006,-6.2064,-6.2674,-6.2529,-6.2006,-6.2006,-6.1658,-6.1193,-6.1193,-6.1193,-6.1193,-6.1193,-6.1193,-6.1193,-6.1193,-6.1193,-6.1193,-6.1193,-6.1193,-6.1193,-6.1193,-6.1193,-6.1193,-6.1193,-6.0671,-6.0177,-6.0119,-5.9684,-5.9277,-5.9219,-5.9161,-5.89,0.0,0.0,0.0,0.0,0.0,0.0,0.0,0.0,0.0,0.0,0.0,0.0,0.0,0.0,-5.0917,-5.1497,-5.1004,-5.0975,-5.1585,0.0,-5.2281,-5.35,-5.3588,0.0,-5.7216,-5.5997,-5.6084,-5.7303,-5.7303,-5.7303,-5.7274,-5.6723,-5.6084,-5.5391,-5.5721,-5.569,-5.5365,-5.539,-5.4994,-5.4284,-5.3133,-5.2658,-5.2601,0.0,0.0,0.0,0.0,0.0,0.0,0.0,-8.4591,-8.581,-8.7348,-8.7435,-8.7493,-8.7871,-8.7581,-8.7058,-8.6303,-8.5142,-8.372,-8.192,-8.0468,-7.8959,-7.7304,-7.5737,-7.4314,-7.3037,-7.0018,-6.7812,0.0,0.0,0.0,0.0,0.0,0.0,0.0,0.0,-6.0694,-6.1716,-6.16,-6.1861,-6.2325,-6.2151,-6.2093,-6.2093,-6.2006,-6.1774,-6.1542,-6.1542,-6.1396,-6.1193,-6.1193,-6.1193,-6.1193,-6.1193,-6.1193,-6.1193,-6.1193,-6.1193,-6.1193,-6.1193,-6.1193,-6.1193,-6.1193,-6.1193,-6.1193,-6.1193,-6.099,-6.0584,-5.9829,-5.948,-5.9539,-6.0293,-6.0119,-5.9742,0.0,0.0,0.0,0.0,0.0,0.0,0.0,0.0,0.0,0.0,0.0,0.0,0.0,0.0,0.0,-5.2165,-5.1962,0.0,-5.3326,0.0,-5.3181,-5.5242,-5.4487,-5.5184,-5.7303,-5.6432,-5.6461,-5.7303,-5.7303,-5.7303,-5.7274,-5.6441,-5.5952,-5.575,-5.5731,-5.5506,-5.5193,-5.5624,-5.5282,-5.4516,-5.4036,-5.3613,-5.3192,-7.4256,0.0,-7.5156,0.0,-7.9598,-8.0759,-8.4852,-8.5636,-8.6129,-8.7232,-8.6826,-8.6739,-8.7552,-8.7261,-8.6681,-8.5926,-8.462,-8.311,-8.1455,-8.0062,-7.8524,-7.6811,-7.5504,0.0,-7.3182,-7.0686,-6.8857,-6.7725,-6.4821,0.0,0.0,0.0,0.0,0.0,-5.9505,-6.0376,-6.1803,-6.1571,-6.189,-6.2529,-6.2412,-6.2151,-6.1803,-6.1542,-6.1338,-6.1193,-6.1193,-6.1193,-6.1193,-6.1193,-6.1193,-6.1193,-6.1193,-6.1193,-6.1193,-6.1193,-6.1193,-6.1193,-6.1193,-6.1193,-6.1193,-6.1193,-6.1193,-6.1193,-6.1193,-6.1193,-6.0932,-6.0032,-5.9858,-6.0061,-6.0787,-6.0671,-6.038,-6.0003,0.0,0.0,0.0,0.0,0.0,0.0,-5.4052,-5.321,-5.3384,0.0,0.0,0.0,0.0,0.0,0.0,0.0,0.0,0.0,0.0,0.0,0.0,-5.5039,-5.5445,-5.7303,-5.6694,-5.6723,-5.7303,-5.7303,-5.7303,-5.7274,-5.633,-5.6044,-5.6188,-5.5707,-5.5481,-5.5452,-5.5849,-5.5591,-5.4965,-5.471,-5.4316,-5.3838,-7.6056,-7.7914,-7.9627,-8.0933,-8.2733,-8.4039,-8.4097,-8.4678,-8.5316,-8.5955,-8.552,-8.5607,-8.6855,-8.6971,-8.5984,-8.3458,-8.3226,-8.2094,-7.9511,-7.9307,-7.8727,0.0,0.0,-7.5185,-7.4488,-7.1992,-7.0395,-6.9728,0.0,0.0,-6.3446,0.0,-6.0863,-6.1164,-6.1164,-6.1193,-6.1251,-6.1832,-6.1745,-6.1338,-6.2587,-6.2325,-6.128,-6.1861,-6.1716,-6.1193,-6.1193,-6.1193,-6.1193,-6.1193,-6.1193,-6.1193,-6.1193,-6.1193,-6.1193,-6.1193,-6.1193,-6.1193,-6.1193,-6.1193,-6.1193,-6.1193,-6.1193,-6.1193,-6.1193,-6.1193,-6.1193,-6.1164,-6.1164,-6.099,-6.0322,-6.0758,-6.0787,-5.951,0.0,0.0,0.0,0.0,0.0,0.0,-5.4865,-5.472,-5.5329,0.0,0.0,0.0,0.0,0.0,0.0,0.0,0.0,-5.353,-5.35,0.0,-5.5416,-5.4807,-5.5445,-5.7303,-5.6694,-5.6723,-5.7303,-5.7303,-5.7303,-5.7274,-5.6386,-5.636,-5.6822,-5.5907,-5.5823,-5.6337,-5.6077,-5.5961,-5.5876,-5.4937,-5.4597,-5.4484,-7.8204,-7.9569,-8.0991,-8.2326,-8.3081,-8.3778,-8.4649,-8.4939,-8.5316,-8.5955,-8.5868,-8.5723,-8.5694,-8.5287,-8.4881,0.0,-8.3284,-8.1949,0.0,-7.9394,-7.8117,-7.6811,-7.5534,-7.475,-7.4518,-7.2456,-7.1063,-7.0424,0.0,0.0,0.0,-6.3763,-6.3029,-6.2499,-6.2935,-6.3138,-6.3167,-6.3806,-6.3951,-6.3777,-6.3748,-6.3225,-6.247,-6.218,-6.1594,-6.0892,-6.1133,-6.1073,-6.0892,-6.1133,-6.1073,-6.0892,-6.1133,-6.1193,-6.1193,-6.1193,-6.1193,-6.1193,-6.1193,-6.1193,-6.1193,-6.1193,-6.1193,-6.1193,-6.1193,-6.0845,-6.0526,-6.0526,-6.0206,-5.9974,-6.0148,-6.0032,-5.9916,-5.9916,0.0,0.0,0.0,0.0,0.0,0.0,0.0,-5.5039,0.0,-5.4429,0.0,0.0,0.0,0.0,0.0,0.0,0.0,0.0,-5.44,0.0,-5.6694,-5.5649,-5.5852,-5.7303,-5.71,-5.71,-5.7303,-5.7303,-5.7303,-5.7303,-5.6819,-5.6335,-5.5964,-5.5851,-5.5594,-5.5194,-5.5502,-5.5671,-5.5584,-5.5329,-5.5215,-5.5131,-7.9191,-8.0527,-8.1746,-8.2326,-8.3052,-8.372,-8.43,-8.4562,-8.4852,-8.5258,-8.5113,-8.4823,-8.4416,-8.3546,0.0,-8.43,-8.2617,-8.131,-8.0875,-7.9075,-7.7682,-7.684,-7.5359,-7.4518,-7.4518,0.0,0.0,-7.144,-7.013,-6.8113,-6.5571,-6.5196,-6.4602,-6.3806,-6.4212,-6.427,-6.4004,-6.4706,-6.4706,-6.427,-6.4096,-6.3661,-6.3022,-6.2354,-6.1678,-6.1027,-6.1039,-6.0802,-6.056,-6.0892,-6.0802,-6.056,-6.0892,-6.1013,-6.1073,-6.1133,-6.1193,-6.1193,-6.1193,-6.1193,-6.1193,-6.1193,-6.1133,-6.1013,-6.1013,-6.0814,-6.0584,-6.0584,-6.0031,-5.9566,-5.9829,-5.9363,-5.8956,-5.9074,-5.8523,-5.8089,-5.7971,0.0,0.0,0.0,0.0,0.0,0.0,-5.5358,0.0,0.0,0.0,0.0,0.0,0.0,0.0,-5.5387,-5.53,0.0,-5.6955,-5.6171,-5.6287,-5.7303,-5.7303,-5.7303,-5.7303,-5.7303,-5.7303,-5.7303,-5.7134,-5.6649,-5.6021,-5.6079,-5.5735,-5.5135,-5.5414,-5.5496,-5.5468,-5.5243,-5.5299,-5.5383,-7.9307,-8.0991,0.0,0.0,-8.2878,0.0,-8.3342,-8.3691,-8.4039,-8.4068,-8.3487,-8.3081,-8.311,-8.1891,-8.1572,-8.2878,0.0,0.0,0.0,-7.8465,-7.7391,-7.7391,-7.5534,-7.4518,-7.4576,-7.3298,-7.2602,-7.2544,-7.0773,-6.8625,-6.6186,-6.6034,-6.5686,-6.5199,-6.5141,-6.4793,-6.427,-6.4909,-6.4444,-6.3341,-6.3922,-6.3748,-6.308,-6.2412,-6.1906,-6.1484,-6.0851,-6.0438,-6.0255,-6.056,-6.0438,-6.0255,-6.056,-6.0621,-6.0681,-6.1013,-6.1133,-6.1193,-6.1193,-6.1133,-6.1133,-6.1193,-6.0952,-6.0681,-6.0681,-6.0894,-6.1046,-6.1077,-6.0345,-5.9619,-5.9277,-5.8723,-5.8057,-5.7395,-5.757,-5.7657,-5.7278,0.0,0.0,0.0,0.0,0.0,0.0,-5.6752,-5.6142,0.0,0.0,0.0,0.0,0.0,-5.5474,-5.5474,-5.6084,-5.6432,-5.6461,-5.6432,-5.6723,-5.7303,-5.7303,-5.7303,-5.7303,-5.7303,-5.7303,-5.7303,-5.7303,-5.7134,-5.688,-5.6509,-5.625,-5.599,-5.5613,-5.5496,-5.544,-5.485,-5.5018,-5.5327,0.0,0.0,-8.3575,-8.3429,-8.3778,-8.4039,-8.3894,-8.3604,-8.3575,-8.4039,-8.2675,-8.1862,-8.2384,-8.0817,-8.0091,-8.0904,-8.0091,-7.954,-7.954,-7.8204,-7.7391,-7.7391,-7.5534,-7.475,-7.5272,-7.3531,-7.2369,-7.1905,-7.1159,-7.0147,-6.8857,-6.7603,-6.7053,-6.7173,-6.6651,-6.636,-6.6244,-6.6912,-6.6447,-6.5286,-6.5431,-6.4822,-6.3685,-6.2832,-6.1973,-6.1146,-6.0516,-6.0071,-5.9887,-6.0194,-6.0071,-5.9887,-6.0194,-6.0132,-6.001,-6.0316,-6.0621,-6.0802,-6.0802,-6.0621,-6.056,-6.1073,-6.0952,-6.0681,-6.0681,-6.0186,-5.9757,-5.974,-5.9126,-5.8514,-5.8234,-5.806,-5.7829,-5.7426,-5.7426,-5.7251,-5.6709,0.0,0.0,0.0,-5.6993,-5.7107,-5.7303,-5.6752,-5.6345,0.0,0.0,0.0,0.0,0.0,-5.6171,-5.6171,-5.6316,-5.6636,-5.71,-5.6636,-5.6723,-5.7303,-5.7303,-5.7303,-5.7303,-5.7303,-5.7303,-5.7303,-5.7303,-5.7134,-5.688,-5.6509,-5.625,-5.599,-5.5613,-5.5496,-5.5468,-5.5327,-5.5383,-5.5468,-8.0265,-8.163,-8.2762,-8.2762,-8.3284,-8.3691,-8.3691,-8.34,-8.3197,-8.3226,-8.2036,-8.1107,-8.0904,-7.9917,-7.922,-7.8988,-7.864,-7.8553,-7.8872,-7.742,-7.655,-7.655,-7.4982,-7.4285,-7.4634,-7.3327,-7.2311,-7.1673,-7.1751,-7.1159,-6.9916,-6.9016,-6.8457,-6.8208,-6.7574,-6.7113,-6.6882,-6.694,-6.6536,-6.5779,-6.5427,-6.5,-6.4503,-6.3423,-6.2423,-6.1451,-6.0636,-5.999,-5.9572,-6.0199,-5.999,-5.9572,-6.0199,-6.0052,-5.973,-5.9702,-6.0071,-6.0499,-6.0499,-6.0377,-6.0255,-6.0467,-6.0499,-6.0438,-6.0255,-6.0058,-5.9896,-5.9731,-5.8946,-5.8253,-5.8027,-5.7308,-5.6821,-5.6937,-5.6824,-5.6623,-5.6394,-5.6595,0.0,-5.7111,-5.6881,-5.6881,-5.7283,-5.6905,-5.647,-5.6181,0.0,0.0,-5.6374,-5.6403,-5.6403,-5.6403,-5.6665,-5.6839,-5.6897,-5.6839,-5.6984,-5.7303,-5.7303,-5.7303,-5.7303,-5.7303,-5.7303,-5.7303,-5.7303,-5.7191,-5.705,-5.6566,-5.6308,-5.6135,-5.5671,-5.5496,-5.5468,-5.5187,-5.5271,-5.5412,-7.9423,-8.0381,-8.1223,-8.1339,-8.2384,-8.3168,-8.3052,-8.2965,-8.2675,-8.2123,-8.1223,-8.0236,-7.9278,-7.8988,-7.8465,-7.7507,-7.7333,-7.7507,-7.8059,-7.6491,-7.5504,-7.5504,-7.4285,-7.3618,-7.3618,-7.295,-7.2253,-7.1528,-7.2182,-7.1622,-6.9984,-6.9942,-6.9445,-6.8593,-6.7879,-6.7336,-6.6907,-6.6336,-6.5993,-6.5736,-6.5007,-6.4907,-6.5015,-6.3836,-6.2784,-6.1902,-6.0898,-5.9962,-5.938,-6.0222,-6.0018,-5.952,-6.025,-6.0206,-5.9719,-5.9295,-5.9578,-6.0071,-6.0132,-6.0194,-6.0132,-5.9702,-5.9887,-6.0071,-5.9763,-6.0014,-6.0295,-6.0112,-5.9048,-5.8161,-5.8189,-5.6837,-5.587,-5.6306,-5.6192,-5.6077,-5.6222,0.0,-5.6565,-5.7107,-5.6708,-5.6565,-5.7194,-5.6967,-5.6593,-5.6019,-5.627,0.0,0.0,-5.6437,-5.6493,-5.6493,-5.6986,-5.7042,-5.6549,-5.7042,-5.7303,-5.7303,-5.7303,-5.7303,-5.7303,-5.7247,-5.7247,-5.7247,-5.7247,-5.7191,-5.7134,-5.6623,-5.6394,-5.6308,-5.5729,-5.5496,-5.544,-5.4906,-5.5046,-5.5355,-7.9917,-8.0701,-8.1368,-8.1949,-8.2675,-8.2994,-8.2442,-8.1862,-8.1455,-8.1368,-7.9394,-7.8117,-7.8494,-7.7566,-7.7043,-7.7362,-7.6898,-7.6637,-7.6753,-7.5969,-7.5504,-7.5504,-7.4285,-7.3618,-7.3618,-7.295,-7.205,-7.086,-7.1766,-7.1207,-6.935,-6.8974,-6.8777,-6.8564,-6.745,-6.7164,-6.7536,-6.745,-6.6793,-6.5793,-6.5688,-6.5031,-6.4087,-6.3021,-6.2238,-6.155,-6.0547,-5.9739,-5.9317,-5.997,-6.0076,-6.002,-6.0167,-6.0111,-5.9942,-5.9373,-5.9267,-5.9392,-5.9702,-6.001,-6.0071,-5.9454,-5.9516,-5.9763,-5.973,-5.9182,-5.8814,-5.9273,-5.8402,-5.762,-5.7831,-5.7236,-5.6637,-5.646,-5.636,-5.6193,-5.5729,0.0,-5.6134,-5.6219,-5.6162,-5.6192,-5.6537,-5.6537,-5.6423,-5.6337,-5.6366,-5.6366,-5.6366,-5.6679,-5.6792,-5.6792,-5.7133,-5.7274,-5.7158,-5.7245,-5.7303,-5.7303,-5.7303,-5.7303,-5.7303,-5.7107,-5.6993,-5.6993,-5.6993,-5.6823,-5.6509,-5.6451,-5.625,-5.6019,-5.5613,-5.5496,-5.5496,-5.5383,-5.5412,-5.5468,-7.9162,-7.9772,-8.0381,-8.1049,-8.1688,-8.2007,-8.1717,-8.1397,-8.0933,-8.0265,-7.8872,-7.7914,-7.7885,-7.7653,-7.7333,-7.6927,-7.6956,-7.6521,-7.5475,-7.5127,-7.4982,-7.4982,-7.3763,-7.3066,-7.3066,-7.2427,-7.1644,-7.0715,-7.1532,-7.1117,-6.9696,-6.9142,-6.8863,-6.8797,-6.7163,-6.6725,-6.7125,-6.6785,-6.6433,-6.6122,-6.5333,-6.4927,-6.4548,-6.3422,-6.262,-6.1997,-6.0991,-6.0245,-5.9795,-6.0441,-6.0413,-6.0125,-6.0526,-6.0413,-6.002,-5.9402,-5.9205,-5.9205,-5.942,-5.9516,-5.9578,-5.9267,-5.9329,-5.942,-5.942,-5.9256,-5.9092,-5.9154,-5.8329,-5.7704,-5.8043,-5.7249,-5.6601,-5.6423,-5.6406,0.0,0.0,-5.5894,-5.6237,-5.6237,-5.6237,-5.6296,-5.6385,-5.6276,-5.6193,-5.6193,-5.6308,-5.6394,-5.6394,-5.6537,-5.6652,-5.6652,-5.7078,-5.7477,-5.7826,-5.7477,-5.7477,-5.7826,-5.7477,-5.7303,-5.7303,-5.705,-5.688,-5.688,-5.6709,-5.6509,-5.6394,-5.625,-5.6077,-5.599,-5.5613,-5.5496,-5.5496,-5.5496,-5.5496,-5.5496,-7.8146,-7.8553,-7.9104,-7.9917,-8.0585,-8.0991,-8.0991,-8.0991,-8.0527,-7.9249,-7.8698,-7.8146,-7.7478,-7.8001,-7.7943,-7.6782,-7.6985,-7.6491,-7.4837,-7.4459,-7.4285,-7.4285,-7.3211,-7.2602,-7.2602,-7.1992,-7.144,-7.0947,-7.144,-7.1201,-7.0358,-6.9724,-6.9276,-6.8939,-6.721,-6.6493,-6.6567,-6.6089,-6.6089,-6.6258,-6.5193,-6.4894,-6.5063,-6.3932,-6.3112,-6.2519,-6.1638,-6.0807,-6.0245,-6.1059,-6.0891,-6.0469,-6.1116,-6.0863,-6.0245,-5.9598,-5.9317,-5.9205,-5.9205,-5.9205,-5.9205,-5.9205,-5.9205,-5.9205,-5.9205,-5.942,-5.9544,-5.9267,-5.8518,-5.8075,-5.8451,-5.7491,-5.6648,-5.6648,0.0,0.0,0.0,-5.6114,-5.6479,-5.662,-5.6507,-5.6423,-5.6423,-5.6237,-5.6072,-5.6072,-5.6418,-5.6619,-5.6619,-5.6677,-5.6708,-5.6623,-5.7081,-5.7626,-5.8176,-5.7828,-5.7858,-5.8292,-5.7684,-5.7366,-5.7309,-5.688,-5.6709,-5.6652,-5.6423,-5.6222,-5.6193,-5.6019,-5.599,-5.5845,-5.5613,-5.5496,-5.5496,-5.5496,-5.5496,-5.5496,-7.7362,-7.7507,-7.7943,-7.9162,-7.9917,-8.0381,-8.0381,-8.0381,-7.9917,-7.864,-7.8436,-7.8146,-7.7478,-7.8001,-7.8117,-7.7391,-7.684,-7.623,-7.5475,-7.4343,-7.3676,-7.3676,-7.3008,-7.2602,-7.2602,-7.1992,-7.1644,-7.1615,-7.1644,-7.1432,-7.1049,-7.0416,-6.9706,-6.8967,-6.7664,-6.6916,-6.6595,-6.6539,-6.623,-6.5724,-6.5652,-6.5287,-6.4752,-6.4049,-6.3364,-6.2773,-6.2155,-6.1172,-6.0329,-6.1537,-6.1537,-6.1144,-6.1762,-6.1537,-6.0891,-6.0245,-5.9654,-5.9205,-5.9205,-5.9205,-5.9205,-5.9205,-5.9205,-5.9205,-5.9205,-5.9205,-5.9205,-5.9205,-5.8699,-5.8418,-5.9036,-5.8137,-5.7322,-5.7322,0.0,0.0,-5.6367,-5.6395,-5.6648,-5.7238,-5.6788,-5.6423,-5.6423,-5.6367,-5.6339,-5.6339,-5.6961,-5.7298,-5.7298,-5.757,-5.7613,-5.7337,-5.7367,-5.757,-5.783,-5.8377,-5.8577,-5.831,-5.7944,-5.7628,-5.7338,-5.6477,-5.6105,-5.6048,-5.6019,-5.5845,-5.5613,-5.5874,-5.5787,-5.5496,-5.5496,-5.5496,-5.5496,-5.5496,-5.5496,-5.5496,-7.7275,-7.7391,-7.7682,-7.8582,-7.8959,-7.9249,-7.9627,-7.9685,-7.9365,-7.8524,-7.8727,-7.8727,-7.8088,-7.7885,-7.7537,-7.6869,-7.5853,-7.4808,-7.3792,-7.3269,-7.3008,-7.3008,-7.2747,-7.2602,-7.2602,-7.1615,-7.1266,-7.1673,-7.1266,-7.1225,-7.1461,-7.0824,-7.0288,-6.9893,-6.8212,-6.7352,-6.7129,-6.6764,-6.6454,-6.623,-6.5836,-6.5302,-6.4752,-6.4038,-6.3448,-6.2858,-6.224,-6.1706,-6.1369,-6.1846,-6.1874,-6.1706,-6.1931,-6.1846,-6.1453,-6.0441,-5.9964,-5.9711,-5.9317,-5.9205,-5.9205,-5.9205,-5.9205,-5.9205,-5.9205,-5.9205,-5.9205,-5.9205,-5.8727,-5.8474,-5.9093,-5.8531,-5.794,-5.794,0.0,-5.7463,-5.7069,-5.735,-5.7519,-5.7407,-5.7519,-5.7435,-5.7041,-5.7013,-5.7013,-5.7013,-5.7238,-5.7378,-5.7378,-5.7499,-5.7567,-5.767,-5.786,-5.8008,-5.8142,-5.8371,-5.8627,-5.882,-5.7969,-5.7511,-5.7365,-5.6448,-5.599,-5.599,-5.5787,-5.5613,-5.5496,-5.5613,-5.5613,-5.5496,-5.5496,-5.5496,-5.5496,-5.5496,-5.5496,-5.5496,-7.7014,-7.7275,-7.7624,-7.8291,-7.8553,-7.8901,-7.9511,-7.9423,-7.9162,-7.8727,-7.9046,-7.9075,-7.8465,-7.8001,-7.7304,-7.6259,-7.5156,-7.3966,-7.2689,-7.2602,-7.2602,-7.2602,-7.2602,-7.2602,-7.2602,-7.1557,-7.1237,-7.1673,-7.1237,-7.1237,-7.1673,-7.1097,-7.0675,-7.045,-6.8624,-6.7664,-6.7466,-6.6848,-6.6595,-6.6539,-6.6145,-6.5696,-6.5246,-6.4403,-6.3841,-6.3392,-6.2577,-6.2183,-6.2043,-6.224,-6.2183,-6.2043,-6.224,-6.2155,-6.1734,-6.0273,-5.9992,-5.9992,-5.9373,-5.9205,-5.9205,-5.9205,-5.9205,-5.9205,-5.9205,-5.9205,-5.9205,-5.9205,-5.8868,-5.8727,-5.9121,-5.8868,-5.8531,-5.8334,-5.8306,-5.8165,-5.7744,-5.8025,-5.8221,-5.7997,-5.8165,-5.8137,-5.7716,-5.7659,-5.7659,-5.7659,-5.7856,-5.7969,-5.7969,-5.7772,-5.7781,-5.7934,-5.8203,-5.8264,-5.8323,-5.8383,-5.8583,-5.8888,-5.7788,-5.719,-5.7073,-5.6215,-5.5845,-5.5845,-5.5613,-5.5496,-5.5496,-5.5496,-5.5496,-5.5496,-5.5496,-5.5496,-5.5496,-5.5496,-5.5496,-5.5496,-7.6538,-7.6956,-7.7624,-7.8291,-7.8901,-7.9511,-8.0178,-7.9714,-7.9278,-7.9278,-7.9278,-7.9075,-7.8465,-7.8378,-7.7595,-7.5679,-7.4895,-7.3966,-7.2689,-7.2602,-7.2602,-7.2602,-7.2602,-7.2602,-7.2602,-7.1992,-7.1673,-7.1673,-7.1673,-7.1673,-7.1673,-7.1278,-7.0893,-7.0407,-6.8797,-6.7877,-6.7466,-6.6848,-6.6595,-6.6595,-6.6595,-6.6595,-6.6454,-6.5218,-6.4837,-6.46,-6.3364,-6.2549,-6.2127,-6.2717,-6.2521,-6.2127,-6.2745,-6.2521,-6.165,-5.9767,-5.9654,-5.9992,-5.9373,-5.9205,-5.9205,-5.9205,-5.9205,-5.9205,-5.9205,-5.9205,-5.9205,-5.9205,-5.9205,-5.9205,-5.9205,-5.9205,-5.9008,-5.839,-5.8306,-5.8306,-5.8306,-5.8306,-5.8531,-5.9121,-5.8671,-5.8306,-5.8306,-5.8306,-5.8306,-5.8306,-5.8868,-5.9205,-5.9205,-5.8643,-5.8306,-5.8306,-5.8306,-5.8306,-5.8306,-5.8612,-5.8612,-5.8278,-5.7341,-5.6719,-5.6395,-5.5777,-5.5496,-5.5496,-5.5496,-5.5496,-5.5496,-5.5496,-5.5496,-5.5496,-5.5496,-5.5496,-5.5496,-5.5496,-5.5496,-5.5496,-7.5795,-7.6666,-7.7478,-7.7653,-7.8233,-7.8727,-7.893,-7.8785,-7.8494,-7.803,-7.8378,-7.8436,-7.7769,-7.6898,-7.6143,-7.5563,-7.4082,-7.3008,-7.2631,-7.2602,-7.2602,-7.2602,-7.2602,-7.2488,-7.2273,-7.185,-7.1834,-7.1984,-7.1834,-7.1834,-7.1984,-7.187,-7.1409,-7.0728,-6.9379,-6.8527,-6.8112,-6.7045,-6.6595,-6.6595,-6.6595,-6.6342,-6.5921,-6.5555,-6.5134,-6.4724,-6.3841,-6.342,-6.3223,-6.2998,-6.2802,-6.2689,-6.2858,-6.2521,-6.1818,-6.0835,-6.0357,-5.9992,-5.9373,-5.9205,-5.9205,-5.9205,-5.9205,-5.9205,-5.9205,-5.9205,-5.9205,-5.9205,-5.9205,-5.9205,-5.9205,-5.9205,-5.9149,-5.898,-5.8952,-5.8952,-5.8952,-5.8952,-5.884,-5.8615,-5.8783,-5.8783,-5.8334,-5.8699,-5.8952,-5.8952,-5.9121,-5.9205,-5.9205,-5.9036,-5.8952,-5.8952,-5.8952,-5.8727,-5.8306,-5.8428,-5.8428,-5.8278,-5.7073,-5.6482,-5.6395,-5.5777,-5.5496,-5.5496,-5.5496,-5.5496,-5.5496,-5.5496,-5.5496,-5.5496,-5.5496,-5.5496,-5.5496,-5.5496,-5.5496,-5.5496,-7.5504,-7.6753,-7.7711,-7.7449,-7.8378,-7.9075,-7.8785,-7.8553,-7.8349,-7.8175,-7.8059,-7.7856,-7.7449,-7.6259,-7.5388,-7.5127,-7.3589,-7.2602,-7.2602,-7.2602,-7.2602,-7.2602,-7.2602,-7.2416,-7.2129,-7.204,-7.1966,-7.1683,-7.1966,-7.2037,-7.1897,-7.187,-7.1579,-7.1085,-6.9518,-6.8665,-6.8393,-6.7129,-6.6595,-6.6595,-6.6595,-6.637,-6.6005,-6.578,-6.5443,-6.5021,-6.4122,-6.3785,-6.3701,-6.3111,-6.2942,-6.2886,-6.2633,-6.2296,-6.1846,-6.0975,-6.061,-6.0329,-5.9458,-5.9402,-5.9514,-5.9289,-5.9205,-5.9205,-5.9205,-5.9205,-5.9205,-5.9205,-5.9205,-5.9205,-5.9205,-5.9205,-5.9205,-5.9205,-5.9205,-5.9205,-5.9205,-5.9205,-5.9064,-5.8699,-5.8783,-5.8812,-5.8671,-5.8783,-5.8952,-5.9205,-5.9205,-5.9205,-5.9205,-5.9205,-5.9205,-5.9205,-5.9205,-5.8924,-5.8306,-5.8053,-5.78,-5.7547,-5.6535,-5.6058,-5.603,-5.5664,-5.5496,-5.5496,-5.5496,-5.5496,-5.5496,-5.5496,-5.5496,-5.5496,-5.5496,-5.5496,-5.5496,-5.5496,-5.5496,-5.5496,-7.5417,-7.6985,-7.8117,-7.7507,-7.8901,-7.9888,-7.9162,-7.8582,-7.8378,-7.8814,-7.7856,-7.7159,-7.7159,-7.6056,-7.5098,-7.4488,-7.3327,-7.2602,-7.2602,-7.2602,-7.2602,-7.2602,-7.2602,-7.2416,-7.2129,-7.2416,-7.2127,-7.1222,-7.2127,-7.2311,-7.1689,-7.1525,-7.1348,-7.1219,-6.9317,-6.8393,-6.8309,-6.7101,-6.6595,-6.6595,-6.6595,-6.6595,-6.6539,-6.5977,-6.5752,-6.5612,-6.4403,-6.3926,-6.3785,-6.3139,-6.2942,-6.283,-6.2268,-6.2015,-6.1706,-6.061,-6.0638,-6.075,-5.9598,-5.9711,-5.9992,-5.9373,-5.9205,-5.9205,-5.9205,-5.9205,-5.9205,-5.9205,-5.9205,-5.9205,-5.9205,-5.9205,-5.9205,-5.9205,-5.9205,-5.9205,-5.9205,-5.9205,-5.9205,-5.9149,-5.8699,-5.8587,-5.9093,-5.8671,-5.8615,-5.9177,-5.9205,-5.9205,-5.9205,-5.9205,-5.9205,-5.9205,-5.9177,-5.884,-5.8221,-5.7603,-5.6985,-5.6395,-5.5805,-5.5496,-5.5496,-5.5496,-5.5496,-5.5496,-5.5496,-5.5496,-5.5496,-5.5496,-5.5496,-5.5496,-5.5496,-5.5496,-5.5496,-5.5496,-5.5496,-5.5496,-7.4721,-7.6288,-7.7566,-7.742,-7.8175,-7.8436,-7.7246,-7.6956,-7.655,-7.565,-7.5301,-7.5127,-7.5127,-7.4459,-7.3966,-7.3821,-7.3066,-7.2602,-7.2602,-7.2602,-7.2602,-7.2602,-7.2602,-7.2416,-7.2129,-7.2416,-7.2329,-7.1856,-7.2329,-7.2258,-7.1495,-7.0979,-7.0375,-6.9765,-6.8353,-6.7719,-6.7663,-6.6904,-6.6595,-6.6595,-6.6595,-6.6595,-6.6595,-6.6426,-6.6398,-6.6286,-6.5527,-6.4965,-6.4375,-6.3307,-6.2942,-6.2914,-6.2773,-6.2071,-6.134,-6.1537,-6.1003,-6.0273,-6.002,-6.002,-5.9992,-5.9373,-5.9205,-5.9205,-5.9205,-5.9205,-5.9205,-5.9205,-5.9205,-5.9205,-5.9205,-5.9205,-5.9205,-5.9205,-5.9205,-5.9205,-5.9205,-5.9205,-5.9036,-5.8559,-5.8812,-5.8868,-5.8531,-5.8812,-5.9064,-5.9205,-5.9205,-5.9205,-5.9205,-5.9205,-5.9205,-5.9205,-5.8755,-5.8221,-5.7575,-5.6957,-5.6564,-5.6395,-5.5805,-5.5496,-5.5496,-5.5496,-5.5496,-5.5496,-5.5496,-5.5496,-5.5496,-5.5496,-5.5496,-5.5496,-5.5496,-5.5496,-5.5496,-5.5496,-5.5496,-5.5496,-7.4518,-7.5824,-7.6956,-7.6956,-7.7507,-7.7595,-7.6683,-7.6724,-7.6433,-7.5156,-7.4982,-7.4866,-7.4576,-7.3995,-7.3472,-7.3153,-7.2805,-7.2747,-7.3066,-7.2805,-7.2747,-7.3066,-7.2776,-7.2416,-7.2129,-7.2416,-7.2416,-7.2057,-7.2273,-7.2129,-7.1768,-7.0778,-7.0201,-7.0063,-6.8268,-6.7691,-6.7916,-6.6988,-6.6595,-6.6595,-6.6595,-6.6595,-6.6595,-6.6595,-6.6398,-6.6117,-6.578,-6.5078,-6.4235,-6.3897,-6.342,-6.297,-6.3251,-6.2521,-6.1593,-6.1931,-6.1537,-6.0891,-6.0301,-6.0357,-6.0385,-5.9458,-5.9205,-5.9205,-5.9205,-5.9205,-5.9205,-5.9205,-5.9205,-5.9205,-5.9205,-5.9205,-5.9205,-5.9205,-5.9205,-5.9205,-5.9205,-5.9205,-5.9093,-5.8783,-5.8755,-5.8643,-5.8334,-5.8868,-5.9205,-5.9205,-5.9205,-5.9205,-5.9205,-5.9205,-5.9205,-5.9205,-5.8896,-5.8446,-5.7828,-5.721,-5.6732,-5.6395,-5.5805,-5.5496,-5.5496,-5.5496,-5.5496,-5.5496,-5.5496,-5.5496,-5.5496,-5.5496,-5.5496,-5.5496,-5.5496,-5.5496,-5.5496,-5.5496,-5.5496,-5.5496,-7.4488,-7.5388,-7.6247,-7.6288,-7.6637,-7.6695,-7.6056,-7.6433,-7.6346,-7.5156,-7.5011,-7.4808,-7.4285,-7.3763,-7.3211,-7.266,-7.2718,-7.2979,-7.3414,-7.3037,-7.2979,-7.3414,-7.2849,-7.2416,-7.2129,-7.2273,-7.2345,-7.2057,-7.2129,-7.2129,-7.1985,-7.0591,-7.01,-7.0351,-6.8284,-6.7635,-6.8084,-6.7045,-6.6595,-6.6595,-6.6595,-6.6595,-6.6595,-6.6483,-6.6173,-6.5808,-6.5724,-6.4937,-6.4038,-6.4572,-6.3954,-6.3026,-6.3616,-6.297,-6.2043,-6.2127,-6.2099,-6.179,-6.075,-6.0778,-6.0835,-5.9654,-5.9289,-5.9205,-5.9205,-5.9205,-5.9205,-5.9205,-5.9205,-5.9205,-5.9205,-5.9205,-5.9205,-5.9205,-5.9205,-5.9205,-5.9205,-5.9205,-5.9205,-5.9205,-5.8755,-5.8446,-5.8446,-5.8924,-5.9205,-5.9205,-5.9205,-5.9205,-5.9205,-5.9205,-5.9205,-5.9205,-5.9121,-5.8812,-5.8306,-5.7575,-5.6957,-5.6395,-5.5889,-5.5608,-5.5496,-5.5608,-5.5608,-5.5524,-5.5608,-5.5608,-5.5496,-5.5496,-5.5496,-5.5496,-5.5496,-5.5496,-5.5496,-5.5496,-5.5496,-5.5496,-7.4328,-7.4663,-7.4982,-7.5534,-7.5214,-7.4692,-7.4082,-7.4082,-7.385,-7.3095,-7.3008,-7.2979,-7.2892,-7.2805,-7.2718,-7.2631,-7.3153,-7.3269,-7.2776,-7.3211,-7.3269,-7.2776,-7.2402,-7.2129,-7.2057,-7.1797,-7.1797,-7.2057,-7.2416,-7.2201,-7.1551,-7.0278,-6.9365,-6.8747,-6.7326,-6.6764,-6.6848,-6.6651,-6.6595,-6.6595,-6.6595,-6.6595,-6.6539,-6.6005,-6.6089,-6.6398,-6.5864,-6.5218,-6.4724,-6.4809,-6.3954,-6.3026,-6.3616,-6.297,-6.2127,-6.2661,-6.2436,-6.1987,-6.1818,-6.1425,-6.0919,-6.0188,-5.9598,-5.9205,-5.9205,-5.9205,-5.9205,-5.9205,-5.9205,-5.9205,-5.9205,-5.9205,-5.9205,-5.9205,-5.9205,-5.9205,-5.9205,-5.9205,-5.9205,-5.9205,-5.9149,-5.9093,-5.9093,-5.9177,-5.9205,-5.9205,-5.9205,-5.9205,-5.9205,-5.9205,-5.9205,-5.9205,-5.8699,-5.839,-5.8306,-5.7126,-5.6507,-5.6423,-5.6339,-5.6002,-5.5524,-5.6058,-5.6002,-5.5524,-5.6058,-5.6002,-5.5496,-5.5496,-5.5496,-5.5496,-5.5496,-5.5496,-5.5496,-5.5496,-5.5496,-5.5496,-7.3893,-7.4024,-7.4227,-7.4837,-7.443,-7.3908,-7.3647,-7.3908,-7.3763,-7.2747,-7.295,-7.3037,-7.266,-7.2602,-7.2602,-7.2602,-7.2892,-7.3095,-7.3153,-7.3095,-7.3095,-7.3182,-7.2475,-7.1985,-7.1797,-7.1579,-7.1507,-7.1405,-7.1768,-7.1696,-7.1114,-7.0276,-6.9562,-6.8927,-6.7663,-6.7101,-6.7073,-6.6735,-6.6595,-6.6595,-6.6595,-6.6595,-6.6567,-6.6286,-6.6145,-6.6033,-6.578,-6.5499,-6.5274,-6.5274,-6.4459,-6.3448,-6.3729,-6.3223,-6.2577,-6.2858,-6.2745,-6.2464,-6.2099,-6.1818,-6.1369,-6.0385,-5.9935,-5.9626,-5.9289,-5.9205,-5.9205,-5.9205,-5.9205,-5.9205,-5.9205,-5.9205,-5.9205,-5.9205,-5.9205,-5.9205,-5.9205,-5.9205,-5.9205,-5.9205,-5.9205,-5.9205,-5.9205,-5.9205,-5.9205,-5.9205,-5.9205,-5.9205,-5.9205,-5.9205,-5.9205,-5.9205,-5.8952,-5.8812,-5.8812,-5.7575,-5.7126,-5.7463,-5.676,-5.6283,-5.603,-5.6676,-5.6816,-5.6564,-5.6451,-5.6254,-5.6002,-5.5636,-5.5496,-5.5496,-5.5496,-5.5496,-5.5496,-5.5496,-5.5496,-5.5496]},{"header":{"parameterUnit":"m.s-1","parameterCategory":1,"la1":30.6,"la2":28.766,"lo1":-90.7593,"lo2":-88.6598,"dy":0.0162,"dx":0.0183,"nx":116,"ny":114,"refTime":"2024-05-10T06:00:00:Z","depth":0,"parameterNumber":3,"parameterNumberName":"V-component_of_WINDS"},"data":[0.0,0.0,0.0,0.0,0.0,0.0,0.0,0.0,0.0,0.0,0.0,0.0,0.0,0.0,0.0,0.0,0.0,0.0,0.0,0.0,0.0,0.0,0.0,0.0,0.0,0.0,0.0,0.0,0.0,0.0,0.0,0.0,0.0,0.0,0.0,0.0,0.0,0.0,0.0,0.0,0.0,0.0,0.0,0.0,0.0,0.0,0.0,0.0,0.0,0.0,0.0,0.0,0.0,0.0,0.0,0.0,0.0,0.0,0.0,0.0,0.0,0.0,0.0,0.0,0.0,0.0,0.0,0.0,0.0,0.0,0.0,0.0,0.0,0.0,0.0,0.0,0.0,0.0,0.0,0.0,0.0,0.0,0.0,0.0,0.0,0.0,0.0,0.0,0.0,0.0,0.0,0.0,0.0,0.0,0.0,0.0,0.0,0.0,0.0,0.0,0.0,0.0,0.0,0.0,0.0,0.0,0.0,0.0,0.0,0.0,0.0,0.0,0.0,0.0,0.0,0.0,0.0,0.0,0.0,0.0,0.0,0.0,0.0,0.0,0.0,0.0,0.0,0.0,0.0,0.0,0.0,0.0,0.0,0.0,0.0,0.0,0.0,0.0,0.0,0.0,0.0,0.0,0.0,0.0,0.0,0.0,0.0,0.0,0.0,0.0,0.0,0.0,0.0,0.0,0.0,0.0,0.0,0.0,0.0,0.0,0.0,0.0,0.0,0.0,0.0,0.0,0.0,0.0,0.0,0.0,0.0,0.0,0.0,0.0,0.0,0.0,0.0,0.0,0.0,0.0,0.0,0.0,0.0,0.0,0.0,0.0,0.0,0.0,0.0,0.0,0.0,0.0,0.0,0.0,0.0,0.0,0.0,0.0,0.0,0.0,0.0,0.0,0.0,0.0,0.0,0.0,0.0,0.0,0.0,0.0,0.0,0.0,0.0,0.0,0.0,0.0,0.0,0.0,0.0,0.0,0.0,0.0,0.0,0.0,0.0,0.0,0.0,0.0,0.0,0.0,0.0,0.0,0.0,0.0,0.0,0.0,0.0,0.0,0.0,0.0,0.0,0.0,0.0,0.0,0.0,0.0,0.0,0.0,0.0,0.0,0.0,0.0,0.0,0.0,0.0,0.0,0.0,0.0,0.0,0.0,0.0,0.0,0.0,0.0,0.0,0.0,0.0,0.0,0.0,0.0,0.0,0.0,0.0,0.0,0.0,0.0,0.0,0.0,0.0,0.0,0.0,0.0,0.0,0.0,0.0,0.0,0.0,0.0,0.0,0.0,0.0,0.0,0.0,0.0,0.0,0.0,0.0,0.0,0.0,0.0,0.0,0.0,0.0,0.0,0.0,0.0,0.0,0.0,0.0,0.0,0.0,0.0,0.0,0.0,0.0,0.0,0.0,0.0,0.0,0.0,0.0,0.0,0.0,0.0,0.0,0.0,0.0,0.0,0.0,0.0,0.0,0.0,0.0,0.0,0.0,0.0,0.0,0.0,0.0,0.0,0.0,0.0,0.0,0.0,0.0,0.0,0.0,0.0,0.0,0.0,0.0,0.0,0.0,0.0,0.0,0.0,0.0,0.0,0.0,0.0,0.0,0.0,0.0,0.0,0.0,0.0,0.0,0.0,0.0,0.0,0.0,0.0,0.0,0.0,0.0,0.0,0.0,0.0,0.0,0.0,0.0,0.0,0.0,0.0,0.0,0.0,0.0,0.0,0.0,0.0,0.0,0.0,0.0,0.0,0.0,0.0,0.0,0.0,0.0,0.0,0.0,0.0,0.0,0.0,0.0,0.0,0.0,0.0,0.0,0.0,0.0,0.0,0.0,0.0,0.0,0.0,0.0,0.0,0.0,0.0,0.0,0.0,0.0,0.0,0.0,0.0,0.0,0.0,0.0,0.0,0.0,0.0,0.0,0.0,0.0,0.0,0.0,0.0,0.0,0.0,0.0,0.0,0.0,0.0,0.0,0.0,0.0,0.0,0.0,0.0,0.0,0.0,0.0,0.0,0.0,0.0,0.0,0.0,0.0,0.0,0.0,0.0,0.0,0.0,0.0,0.0,0.0,0.0,0.0,0.0,0.0,0.0,0.0,0.0,0.0,0.0,0.0,0.0,0.0,0.0,0.0,0.0,0.0,0.0,0.0,0.0,0.0,0.0,0.0,0.0,0.0,0.0,0.0,0.0,0.0,0.0,0.0,0.0,0.0,0.0,0.0,0.0,0.0,0.0,0.0,0.0,0.0,0.0,0.0,0.0,0.0,0.0,0.0,0.0,0.0,0.0,0.0,0.0,0.0,0.0,0.0,0.0,0.0,0.0,0.0,0.0,0.0,0.0,0.0,0.0,0.0,0.0,0.0,0.0,0.0,0.0,0.0,0.0,0.0,0.0,0.0,0.0,0.0,0.0,0.0,0.0,0.0,0.0,0.0,0.0,0.0,0.0,0.0,0.0,0.0,0.0,0.0,0.0,0.0,0.0,0.0,0.0,0.0,0.0,0.0,0.0,0.0,0.0,0.0,0.0,0.0,0.0,0.0,0.0,0.0,0.0,0.0,0.0,0.0,0.0,0.0,0.0,0.0,0.0,0.0,0.0,0.0,0.0,0.0,0.0,0.0,0.0,0.0,0.0,0.0,0.0,0.0,0.0,0.0,0.0,0.0,0.0,0.0,0.0,0.0,0.0,0.0,0.0,0.0,0.0,0.0,0.0,0.0,0.0,0.0,0.0,0.0,0.0,0.0,0.0,0.0,0.0,0.0,0.0,0.0,0.0,0.0,0.0,0.0,0.0,0.0,0.0,0.0,0.0,0.0,0.0,0.0,0.0,0.0,0.0,0.0,0.0,0.0,0.0,0.0,0.0,0.0,0.0,0.0,0.0,0.0,0.0,0.0,0.0,0.0,0.0,0.0,0.0,0.0,0.0,0.0,0.0,0.0,0.0,0.0,0.0,0.0,0.0,0.0,0.0,0.0,0.0,0.0,0.0,0.0,0.0,0.0,0.0,0.0,0.0,0.0,0.0,0.0,0.0,0.0,0.0,0.0,0.0,0.0,0.0,0.0,0.0,0.0,0.0,0.0,0.0,0.0,0.0,0.0,0.0,0.0,0.0,0.0,0.0,0.0,0.0,0.0,0.0,0.0,0.0,0.0,0.0,0.0,0.0,0.0,0.0,0.0,0.0,0.0,0.0,0.0,0.0,0.0,0.0,0.0,0.0,0.0,0.0,0.0,0.0,0.0,0.0,0.0,0.0,0.0,0.0,0.0,0.0,0.0,0.0,0.0,0.0,0.0,0.0,0.0,0.0,0.0,0.0,0.0,0.0,0.0,0.0,0.0,0.0,0.0,0.0,0.0,0.0,0.0,0.0,0.0,0.0,0.0,0.0,0.0,0.0,0.0,0.0,0.0,0.0,0.0,0.0,0.0,0.0,0.0,0.0,0.0,0.0,0.0,0.0,0.0,0.0,0.0,0.0,0.0,0.0,0.0,0.0,0.0,0.0,0.0,0.0,0.0,0.0,0.0,0.0,0.0,0.0,0.0,0.0,0.0,0.0,0.0,0.0,0.0,0.0,0.0,0.0,0.0,0.0,0.0,0.0,0.0,0.0,0.0,0.0,0.0,0.0,0.0,0.0,0.0,0.0,0.0,0.0,0.0,0.0,0.0,0.0,0.0,0.0,0.0,0.0,0.0,0.0,0.0,0.0,0.0,0.0,0.0,0.0,0.0,0.0,0.0,0.0,0.0,0.0,0.0,0.0,0.0,0.0,0.0,0.0,0.0,0.0,0.0,0.0,0.0,0.0,0.0,0.0,0.0,0.0,0.0,0.0,0.0,0.0,0.0,0.0,0.0,0.0,0.0,0.0,0.0,0.0,0.0,0.0,0.0,0.0,0.0,0.0,0.0,0.0,0.0,0.0,0.0,0.0,0.0,0.0,0.0,0.0,0.0,0.0,0.0,0.0,0.0,0.0,0.0,0.0,0.0,0.0,0.0,0.0,0.0,0.0,0.0,0.0,0.0,0.0,0.0,0.0,0.0,0.0,0.0,0.0,0.0,0.0,0.0,0.0,0.0,0.0,0.0,0.0,0.0,0.0,0.0,0.0,0.0,0.0,0.0,0.0,0.0,0.0,0.0,0.0,0.0,0.0,0.0,0.0,0.0,0.0,0.0,0.0,0.0,0.0,0.0,0.0,0.0,0.0,0.0,0.0,0.0,0.0,0.0,0.0,0.0,0.0,0.0,0.0,0.0,0.0,0.0,0.0,0.0,0.0,0.0,0.0,0.0,0.0,0.0,0.0,0.0,0.0,0.0,0.0,0.0,0.0,0.0,0.0,0.0,0.0,0.0,0.0,0.0,0.0,0.0,0.0,0.0,0.0,0.0,0.0,0.0,0.0,0.0,0.0,0.0,0.0,0.0,0.0,0.0,0.0,0.0,0.0,0.0,0.0,0.0,0.0,0.0,0.0,0.0,0.0,0.0,0.0,0.0,0.0,0.0,0.0,0.0,0.0,0.0,0.0,0.0,0.0,0.0,0.0,0.0,0.0,0.0,0.0,0.0,0.0,0.0,0.0,0.0,0.0,0.0,0.0,0.0,0.0,0.0,0.0,0.0,0.0,0.0,0.0,0.0,0.0,0.0,0.0,0.0,0.0,0.0,0.0,0.0,0.0,0.0,0.0,0.0,0.0,0.0,0.0,0.0,0.0,0.0,0.0,0.0,0.0,0.0,0.0,0.0,0.0,0.0,0.0,0.0,0.0,0.0,0.0,0.0,0.0,0.0,0.0,0.0,0.0,0.0,0.0,0.0,0.0,0.0,0.0,0.0,0.0,0.0,0.0,0.0,0.0,0.0,0.0,0.0,0.0,0.0,0.0,0.0,0.0,0.0,0.0,0.0,0.0,0.0,0.0,0.0,0.0,0.0,0.0,0.0,0.0,0.0,0.0,0.0,0.0,0.0,0.0,0.0,0.0,0.0,0.0,0.0,0.0,0.0,0.0,0.0,0.0,0.0,0.0,0.0,0.0,0.0,0.0,0.0,0.0,0.0,0.0,0.0,0.0,0.0,0.0,0.0,0.0,0.0,0.0,0.0,0.0,0.0,0.0,0.0,0.0,0.0,0.0,0.0,0.0,0.0,0.0,0.0,0.0,0.0,0.0,0.0,0.0,0.0,0.0,0.0,0.0,0.0,0.0,0.0,0.0,0.0,0.0,0.0,0.0,0.0,0.0,0.0,0.0,0.0,0.0,0.0,0.0,0.0,0.0,0.0,0.0,0.0,0.0,0.0,0.0,0.0,0.0,0.0,0.0,0.0,0.0,0.0,0.0,0.0,0.0,0.0,0.0,0.0,0.0,0.0,0.0,0.0,0.0,0.0,0.0,0.0,0.0,0.0,0.0,0.0,0.0,0.0,0.0,0.0,0.0,0.0,0.0,0.0,0.0,0.0,0.0,0.0,0.0,0.0,0.0,0.0,0.0,0.0,0.0,0.0,0.0,0.0,0.0,0.0,0.0,0.0,0.0,0.0,0.0,0.0,0.0,0.0,0.0,0.0,0.0,0.0,0.0,0.0,0.0,0.0,0.0,0.0,0.0,0.0,0.0,0.0,0.0,0.0,0.0,0.0,0.0,0.0,0.0,0.0,0.0,0.0,0.0,0.0,0.0,0.0,0.0,0.0,0.0,0.0,0.0,0.0,0.0,0.0,0.0,0.0,0.0,0.0,0.0,0.0,0.0,0.0,0.0,0.0,0.0,0.0,0.0,0.0,0.0,0.0,0.0,0.0,0.0,0.0,0.0,0.0,0.0,0.0,0.0,0.0,0.0,0.0,0.0,0.0,0.0,0.0,0.0,0.0,0.0,0.0,0.0,0.0,0.0,0.0,0.0,0.0,0.0,0.0,0.0,0.0,0.0,0.0,0.0,0.0,0.0,0.0,0.0,0.0,0.0,0.0,0.0,0.0,0.0,0.0,0.0,0.0,0.0,0.0,0.0,0.0,0.0,0.0,0.0,0.0,0.0,0.0,0.0,0.0,0.0,0.0,0.0,0.0,0.0,0.0,0.0,0.0,0.0,0.0,0.0,0.0,0.0,0.0,0.0,0.0,0.0,0.0,0.0,3.8054,0.0,0.0,0.0,0.0,0.0,0.0,0.0,0.0,0.0,0.0,0.0,0.0,0.0,0.0,0.0,0.0,0.0,0.0,0.0,0.0,0.0,0.0,0.0,0.0,4.9681,4.9692,5.0127,5.0098,5.0067,5.0067,0.0,0.0,0.0,0.0,0.0,5.0067,4.8944,4.891,5.0067,4.9683,4.9884,5.0608,4.9551,4.904,4.904,0.0,0.0,0.0,0.0,0.0,0.0,0.0,0.0,0.0,0.0,0.0,0.0,0.0,0.0,0.0,0.0,0.0,0.0,0.0,0.0,0.0,0.0,0.0,0.0,0.0,0.0,0.0,0.0,0.0,0.0,0.0,0.0,0.0,0.0,0.0,0.0,0.0,0.0,0.0,0.0,0.0,0.0,0.0,0.0,0.0,0.0,0.0,0.0,0.0,0.0,0.0,0.0,0.0,0.0,0.0,0.0,0.0,0.0,0.0,0.0,0.0,0.0,0.0,0.0,0.0,0.0,0.0,0.0,0.0,0.0,0.0,3.7961,0.0,0.0,0.0,0.0,0.0,0.0,0.0,0.0,0.0,0.0,0.0,0.0,0.0,0.0,0.0,0.0,0.0,0.0,0.0,0.0,0.0,4.9746,5.0286,5.0331,5.0541,5.1151,5.1185,5.1153,5.0989,5.0989,0.0,0.0,5.0792,5.0859,5.096,5.0358,5.0458,5.1393,5.0994,5.1162,5.1825,5.209,5.2223,5.2255,5.1583,0.0,0.0,0.0,0.0,0.0,0.0,0.0,0.0,0.0,0.0,0.0,0.0,0.0,0.0,0.0,0.0,0.0,0.0,0.0,0.0,0.0,0.0,0.0,0.0,0.0,0.0,0.0,0.0,0.0,0.0,0.0,0.0,0.0,0.0,0.0,0.0,0.0,0.0,0.0,0.0,0.0,0.0,0.0,0.0,0.0,0.0,0.0,0.0,0.0,0.0,0.0,0.0,0.0,0.0,0.0,0.0,0.0,0.0,0.0,0.0,0.0,0.0,0.0,4.1713,4.1991,4.241,4.253,4.244,4.2098,3.9442,3.8089,3.7726,0.0,0.0,0.0,0.0,0.0,0.0,0.0,0.0,0.0,0.0,0.0,0.0,0.0,0.0,0.0,0.0,0.0,0.0,0.0,0.0,5.0742,5.02,5.0676,5.1116,5.1217,5.1185,5.0891,5.0224,5.0156,4.9849,4.9148,4.9112,4.944,5.0062,5.0039,5.0717,5.215,5.3377,5.4126,5.433,5.4906,5.5245,5.5281,5.2825,5.16,5.1441,0.0,0.0,0.0,0.0,0.0,0.0,0.0,0.0,0.0,0.0,0.0,0.0,0.0,0.0,0.0,0.0,0.0,0.0,0.0,0.0,0.0,0.0,0.0,0.0,0.0,0.0,0.0,0.0,0.0,0.0,0.0,0.0,0.0,0.0,0.0,0.0,0.0,0.0,0.0,0.0,0.0,4.0259,4.0351,0.0,0.0,0.0,0.0,0.0,0.0,0.0,0.0,0.0,0.0,0.0,0.0,0.0,0.0,4.3025,4.2934,4.2947,4.305,4.312,4.289,4.241,4.294,4.2581,4.1542,4.1671,0.0,3.9228,4.0323,0.0,0.0,0.0,0.0,0.0,0.0,0.0,0.0,0.0,0.0,0.0,0.0,0.0,0.0,0.0,0.0,0.0,0.0,0.0,0.0,0.0,5.1731,5.2672,5.3078,5.3518,5.3212,5.1978,5.191,5.1388,5.0163,5.0094,5.0223,5.0584,5.0623,5.1579,5.3536,5.5093,5.6293,5.7177,5.7552,5.7722,5.7584,5.5724,5.4325,5.3275,5.2362,0.0,0.0,0.0,0.0,0.0,0.0,0.0,0.0,0.0,0.0,0.0,0.0,0.0,0.0,0.0,0.0,0.0,0.0,0.0,0.0,0.0,0.0,0.0,0.0,0.0,0.0,0.0,0.0,0.0,0.0,0.0,0.0,0.0,0.0,0.0,0.0,0.0,0.0,0.0,4.0693,4.1124,4.1124,4.1124,4.1124,0.0,0.0,0.0,0.0,0.0,0.0,0.0,0.0,0.0,4.3391,4.4086,4.463,4.5128,4.5848,4.6196,4.6112,4.6501,4.6574,4.6304,4.6531,4.6352,4.5855,4.5765,4.4556,4.262,4.0975,3.9219,3.7494,0.0,0.0,0.0,0.0,0.0,3.7404,0.0,0.0,0.0,0.0,0.0,0.0,0.0,0.0,0.0,0.0,0.0,0.0,5.1382,5.3007,5.4363,5.5108,5.5473,5.501,5.3445,5.2992,5.208,5.0531,5.0461,5.0461,5.0461,5.1167,5.2572,5.4656,5.6345,5.7811,5.9081,5.9237,5.9252,5.9165,5.8113,5.6669,5.5009,5.3617,5.2837,5.243,0.0,0.0,0.0,0.0,0.0,0.0,0.0,0.0,0.0,0.0,0.0,0.0,0.0,0.0,0.0,0.0,0.0,0.0,0.0,0.0,0.0,0.0,0.0,0.0,0.0,0.0,0.0,0.0,0.0,0.0,0.0,0.0,0.0,0.0,0.0,0.0,0.0,4.1432,4.1986,4.1648,4.2202,4.2442,0.0,0.0,0.0,0.0,0.0,0.0,4.3822,4.4637,4.5414,4.598,4.6533,4.7109,4.7818,4.8626,4.9134,4.9284,4.9793,5.0048,5.0078,5.0228,5.0048,4.9494,4.9164,4.7908,4.5783,4.2342,4.0337,3.932,3.8362,3.8038,3.8008,3.7793,3.8033,3.8422,0.0,0.0,0.0,0.0,0.0,0.0,0.0,0.0,0.0,0.0,0.0,5.1483,5.2175,5.4248,5.5919,5.663,5.5973,5.4858,5.3408,5.1869,5.0353,4.88,4.8728,4.8728,4.8728,5.1382,5.3531,5.5061,5.7096,5.8518,5.9294,5.9337,5.95,5.972,5.8885,5.7577,5.5893,5.5246,5.4054,5.253,5.1631,0.0,0.0,0.0,0.0,0.0,0.0,0.0,0.0,0.0,0.0,0.0,0.0,0.0,0.0,0.0,0.0,0.0,0.0,0.0,0.0,0.0,0.0,0.0,0.0,0.0,0.0,0.0,0.0,0.0,0.0,0.0,0.0,0.0,0.0,0.0,0.0,0.0,0.0,4.174,4.3833,0.0,0.0,0.0,0.0,4.3797,4.501,4.5647,4.5514,4.731,4.8833,4.9912,4.9927,5.0601,5.1887,5.1349,5.1379,5.2007,5.2037,5.2037,5.2067,5.2695,5.1947,5.0166,5.081,4.9942,4.7967,4.5873,4.3868,4.2201,4.2141,4.2111,4.2021,4.1392,4.1145,4.1212,0.0,0.0,0.0,0.0,0.0,5.0208,4.9414,4.9466,4.9332,4.8637,5.0417,5.2104,5.2861,5.4782,5.654,5.7847,5.7171,5.5839,5.3898,5.2413,5.0702,4.8707,4.8604,4.9254,5.0704,5.2156,5.4285,5.7183,5.927,6.0961,6.2123,6.2575,6.2599,6.2248,6.0999,5.9357,5.7383,5.5492,5.3828,5.226,5.0652,4.9692,0.0,0.0,0.0,0.0,0.0,0.0,0.0,0.0,0.0,0.0,0.0,0.0,0.0,0.0,0.0,0.0,0.0,0.0,0.0,0.0,0.0,0.0,0.0,0.0,0.0,0.0,0.0,0.0,0.0,0.0,0.0,0.0,0.0,0.0,0.0,0.0,0.0,4.608,4.7373,0.0,4.7771,4.7494,4.746,4.7728,4.8739,4.9719,5.0637,5.1656,5.2564,5.3384,5.3832,5.4072,5.4132,5.47,5.47,5.4132,5.4132,5.3892,5.3473,5.3264,5.2785,5.2097,5.1498,5.0571,4.9464,4.8327,4.6172,4.3539,4.274,4.2141,4.1782,4.1991,4.1782,4.1482,0.0,0.0,0.0,5.2167,5.1036,4.9961,4.8885,4.8992,4.8871,4.8137,5.0182,5.2259,5.368,5.5679,5.7631,5.9418,5.8152,5.6518,5.481,5.2744,5.0778,4.9077,4.9189,5.0306,5.2488,5.3865,5.6172,5.9471,6.1122,6.279,6.4461,6.4429,6.4197,6.3805,6.2828,6.1099,5.8819,5.6885,5.4879,5.276,5.0902,4.9906,4.9284,0.0,0.0,0.0,0.0,0.0,0.0,0.0,0.0,0.0,0.0,0.0,0.0,0.0,0.0,0.0,0.0,0.0,0.0,0.0,0.0,0.0,0.0,0.0,0.0,0.0,0.0,0.0,0.0,0.0,0.0,0.0,0.0,0.0,0.0,0.0,4.8223,4.9243,5.0664,5.1539,5.1394,5.0637,5.0329,5.0653,5.1405,5.2339,5.3341,5.4562,5.5515,5.6137,5.6825,5.7064,5.6855,5.7453,5.7244,5.6166,5.6166,5.5718,5.485,5.4401,5.3952,5.3473,5.2606,5.1708,5.084,4.9972,4.8177,4.5843,4.4526,4.3629,4.309,4.3309,4.3129,4.2761,0.0,5.4175,5.3683,5.2872,5.1785,5.0284,4.811,4.7745,4.7464,4.6722,4.909,5.1976,5.4692,5.6989,5.9129,6.1303,5.8796,5.6807,5.6112,5.2704,5.0389,4.9743,5.0389,5.1713,5.3806,5.6484,5.9193,6.1871,6.2579,6.3933,6.5873,6.4549,6.3986,6.4263,6.4263,6.2801,6.0233,5.957,5.7306,5.4124,5.269,5.1634,5.0664,0.0,0.0,0.0,0.0,0.0,0.0,0.0,0.0,0.0,0.0,0.0,0.0,0.0,0.0,0.0,0.0,0.0,0.0,0.0,0.0,0.0,0.0,0.0,0.0,0.0,0.0,0.0,0.0,0.0,0.0,0.0,0.0,0.0,4.541,4.8218,5.054,5.088,5.3537,5.4855,5.3717,5.2965,5.252,5.2318,5.2933,5.3329,5.3357,5.5737,5.7453,5.806,5.8719,5.9379,5.9976,5.9434,5.8776,5.8095,5.8118,5.743,5.6256,5.6226,5.5508,5.4202,5.4202,5.3473,5.2097,5.0794,4.9883,4.9149,4.7818,4.689,4.619,4.5603,4.5334,4.5334,5.4143,5.3009,5.1957,5.1594,5.0307,4.8749,4.7161,4.7725,4.7923,4.6766,4.9429,5.2398,5.4786,5.6789,5.886,6.1074,5.8608,5.6574,5.5845,5.2586,5.0605,5.042,5.1528,5.356,5.6607,5.8824,6.104,6.3256,6.4487,6.5349,6.5903,6.6027,6.58,6.5451,6.5451,6.4212,6.2043,6.1361,5.9713,5.7199,5.4064,5.1938,5.0638,0.0,0.0,0.0,0.0,0.0,0.0,0.0,0.0,0.0,0.0,0.0,0.0,0.0,0.0,0.0,0.0,0.0,0.0,0.0,0.0,0.0,0.0,0.0,0.0,0.0,0.0,0.0,0.0,0.0,0.0,0.0,4.5082,4.6706,4.6798,5.0054,5.2654,5.3053,5.4674,5.5748,5.5702,5.5052,5.4771,5.5025,5.5213,5.5709,5.6725,5.745,5.7885,5.8115,5.8244,5.8222,5.7937,5.8726,5.9009,5.8834,5.8813,5.8159,5.6899,5.6875,5.5909,5.4299,5.4764,5.3892,5.2187,5.1798,5.0451,4.8476,4.7638,4.689,4.6309,4.6651,4.6441,4.5963,5.3583,5.2561,5.1594,5.0811,4.9837,4.8643,4.7228,4.7927,4.8235,4.7157,4.9989,5.2829,5.4746,5.6402,5.8115,6.0009,5.7284,5.5315,5.4868,5.279,5.1898,5.276,5.4391,5.6854,6.024,6.1748,6.3502,6.5534,6.6088,6.6611,6.7165,6.7289,6.7135,6.6765,6.6765,6.578,6.4087,6.3687,6.2179,5.9809,5.7276,5.4669,5.2298,5.1752,5.0599,4.9281,4.9004,4.8266,4.7434,4.7434,0.0,0.0,0.0,0.0,0.0,0.0,0.0,0.0,0.0,0.0,0.0,0.0,0.0,0.0,0.0,0.0,0.0,0.0,0.0,0.0,0.0,0.0,0.0,0.0,4.6611,4.8546,4.9484,5.1955,5.4079,5.5167,5.6073,5.6753,5.7137,5.6284,5.5834,5.6099,5.5819,5.6033,5.6777,5.7374,5.7661,5.7661,5.8221,5.8362,5.7936,5.8725,5.8971,5.8684,5.8668,5.7886,5.6366,5.6321,5.5583,0.0,5.4684,5.4158,5.2995,5.2426,5.1139,0.0,0.0,0.0,0.0,0.0,4.707,4.6681,5.3009,5.2559,5.1776,5.0429,4.9955,4.929,4.7833,4.8173,4.8358,4.7681,5.0513,5.3098,5.4314,5.5715,5.7118,5.8423,5.553,5.3622,5.3622,5.3129,5.3775,5.593,5.8023,6.0671,6.3995,6.4918,6.6304,6.8274,6.775,6.8089,6.9228,6.8581,6.8212,6.815,6.8058,6.7319,6.6119,6.6057,6.458,6.221,6.144,5.867,5.4884,5.4114,5.3037,5.1836,5.1159,5.0082,4.8943,4.8881,0.0,0.0,0.0,0.0,0.0,0.0,0.0,0.0,0.0,0.0,0.0,0.0,0.0,0.0,0.0,0.0,0.0,0.0,0.0,0.0,0.0,0.0,0.0,0.0,4.8774,5.0928,5.2452,5.3594,5.4878,5.6586,5.7015,5.7388,5.7701,5.6713,5.6067,5.5986,5.5498,5.5177,5.5099,0.0,0.0,0.0,0.0,5.8627,5.8627,5.8815,5.8597,5.8004,5.7986,5.7061,5.52,5.5236,5.4828,5.4118,5.4169,5.4107,5.3793,5.2505,5.1464,5.0632,4.9582,4.8446,4.7399,4.7339,4.7309,0.0,5.3416,5.1813,5.0499,5.0843,4.9757,4.8594,4.7711,4.8173,4.8358,4.7681,5.0112,5.2206,5.3006,5.433,5.5684,5.7087,5.4545,5.2914,5.2914,5.3283,5.4914,5.8054,6.0147,6.2579,6.5442,6.7227,6.8858,7.0336,7.0767,7.1136,7.1352,7.0644,7.0028,6.9474,6.8951,6.8274,6.7504,6.695,6.6088,6.5011,6.3749,6.0486,5.6238,5.5007,5.3976,5.3252,5.2575,5.1805,5.1036,5.0482,4.9743,4.9004,4.8573,4.8327,0.0,0.0,0.0,0.0,0.0,0.0,0.0,0.0,0.0,0.0,0.0,0.0,0.0,0.0,0.0,0.0,0.0,0.0,0.0,4.7047,4.9335,5.1374,5.3018,5.4033,5.4661,5.4728,5.5271,5.5616,5.5656,5.5842,5.5788,5.534,5.5573,5.5569,5.5125,5.5365,0.0,5.5472,5.571,5.5842,5.5842,5.6963,5.7396,5.7259,0.0,0.0,5.5354,5.536,5.4469,5.288,5.3387,5.3045,5.2014,5.0787,4.9307,4.7861,4.8322,4.8327,4.8027,4.7489,4.7309,4.7309,5.2835,5.1331,4.9908,4.9837,4.9147,4.8512,4.8173,4.8389,4.8481,4.8142,4.9928,5.1313,5.1652,5.2606,5.3498,5.4176,5.2667,5.2144,5.316,5.4791,5.7408,6.1132,6.3256,6.5472,6.7843,6.8889,6.9874,7.089,7.1259,7.1444,7.1413,7.1075,7.0551,6.9874,6.9536,6.9012,6.8397,6.8027,6.7319,6.6334,6.5288,6.2825,5.9655,5.83,5.6915,5.5622,5.4607,5.356,5.2575,5.1528,5.0759,5.0082,4.9374,4.9158,4.9004,0.0,0.0,0.0,0.0,0.0,0.0,0.0,0.0,0.0,0.0,0.0,0.0,0.0,0.0,4.2738,4.4289,0.0,4.699,4.9877,5.1118,5.2391,5.4406,5.4787,5.4853,5.4654,5.4916,5.5203,5.5465,5.5752,5.5909,5.5961,5.6196,5.6118,5.5543,5.5517,5.5386,5.5125,5.5099,5.5099,5.5099,5.5776,5.6105,5.6078,5.6111,5.568,5.481,5.4529,5.3883,5.2962,5.2685,5.2377,5.1902,5.0385,4.9089,4.7931,4.7712,4.7271,4.677,4.7169,4.6975,4.6638,5.1951,5.0914,4.967,4.8975,4.8728,4.8604,4.8604,4.8604,4.8604,4.8604,4.9712,5.0513,5.0513,5.0974,5.1251,5.1128,5.0851,5.1652,5.396,5.6515,5.9839,6.4057,6.6088,6.7935,6.9659,6.9967,7.0428,7.1105,7.1383,7.1506,7.1506,7.1383,7.0859,7.009,6.9967,6.9505,6.8889,6.8889,6.8274,6.7227,6.6427,6.4949,6.3071,6.1717,5.9839,5.7777,5.6423,5.4929,5.3529,5.2144,5.1159,5.0389,4.9682,4.9466,4.9332,4.858,4.8355,0.0,0.0,0.0,0.0,0.0,0.0,0.0,0.0,4.3678,4.4018,4.3917,4.4293,4.5221,4.7081,4.8276,4.9876,5.2549,5.3043,5.37,5.5491,5.5386,5.5099,5.5099,5.5099,5.5282,5.57,5.5857,5.6118,5.6588,5.6641,5.6432,5.5935,5.5804,5.5543,5.5125,5.5099,5.5099,5.5099,5.5099,5.5099,5.5099,5.4889,5.4524,5.4027,5.3347,5.3055,5.2971,5.1847,5.1431,5.1349,4.9798,4.88,4.8135,4.7091,4.5956,4.5107,4.6408,4.6283,4.5644,5.1331,5.0499,4.9868,4.9749,4.9138,4.8604,4.8604,4.8604,4.8604,4.8604,4.9312,4.9805,4.9805,4.9866,4.9651,4.9004,5.002,5.2052,5.5253,5.7469,6.0763,6.5472,6.7042,6.8181,6.8982,7.0182,7.1136,7.1844,7.3045,7.363,7.363,7.3014,7.206,7.0767,7.0151,6.9505,6.8889,6.8889,6.8797,6.8551,6.7319,6.5934,6.4518,6.3133,6.0948,5.8485,5.7179,5.5376,5.3529,5.2144,5.0851,4.9682,4.8943,4.8727,4.853,4.7636,4.7362,4.7146,4.6226,4.6048,4.6063,4.5871,4.5505,4.5391,0.0,0.0,4.6449,4.7405,4.7674,4.8089,4.9365,5.0691,5.2059,5.3188,5.4393,5.5221,5.5218,5.5151,5.5099,5.5099,5.5099,5.5125,5.5177,5.5621,5.5935,5.6013,5.6013,5.5987,5.5909,5.5465,5.5177,5.5099,5.5099,5.5099,5.5099,5.5099,5.5099,5.5099,5.4079,5.3556,5.3452,5.2328,5.1789,5.1705,5.0611,4.9278,4.7841,4.7129,4.6497,4.5919,4.5654,4.496,4.4148,4.5066,4.4997,4.4499,5.1842,5.0767,4.9908,4.9908,4.8876,4.8019,4.8019,4.8019,4.8019,4.8019,4.8635,4.9066,4.9066,4.9066,4.8943,4.8635,4.9528,5.1713,5.5438,5.7993,6.1317,6.5719,6.7566,6.8982,7.0028,7.0613,7.1444,7.2552,7.3137,7.3414,7.3383,7.2706,7.2091,7.1475,7.0398,6.9751,6.9443,6.9043,6.8889,6.8766,6.7442,6.6119,6.4641,6.2487,5.9963,5.758,5.7025,5.5438,0.0,5.2144,5.1067,5.0143,4.9466,4.8852,4.8218,4.7439,4.6798,4.6314,4.5913,4.4961,4.4499,4.6092,4.5944,4.5921,4.7796,4.8081,4.8408,4.97,5.0278,5.0842,5.1936,5.2975,5.4024,0.0,5.5625,5.5835,5.604,5.5804,5.5203,5.4236,5.4393,5.4837,5.5517,5.6092,5.6432,5.6432,5.6745,5.6615,5.5935,5.57,5.5412,5.5125,5.5099,5.5099,5.5099,5.5099,5.5099,5.5099,5.4628,5.421,5.3844,5.3008,5.1884,5.0551,4.9766,4.8826,4.7754,4.6865,4.6342,4.6058,4.5287,4.452,4.4019,4.5249,4.4948,4.4063,5.2343,5.1177,5.0119,4.9694,4.8346,4.7404,4.7588,4.7619,4.7619,4.7619,4.8204,4.8604,4.8604,4.8604,4.8604,4.8604,4.9281,5.1251,5.4914,5.7531,6.0855,6.5134,6.7073,6.8797,7.0305,7.0521,7.1105,7.2121,7.2306,7.2398,7.2398,7.1906,7.1567,7.1352,7.0336,6.9782,6.9566,6.9105,6.8797,6.852,6.7165,6.5596,6.3779,6.1225,5.8454,5.593,5.593,5.4467,5.2306,5.144,5.0363,4.93,4.9103,4.833,4.7422,4.6609,4.5734,4.5064,4.5189,4.4467,4.4211,4.6533,4.687,4.7217,4.9434,5.0027,5.0478,5.183,5.2539,5.3068,5.3715,5.4471,5.5313,5.617,5.6223,5.6249,5.651,5.5909,5.4942,5.3556,5.3321,5.3713,5.4863,5.5647,5.6223,5.6536,5.6798,5.6641,5.5935,5.5778,5.5517,5.5125,5.5099,5.5099,5.5099,5.5099,5.5099,5.5099,5.4785,5.4393,5.3949,5.3086,5.157,4.9636,4.9244,4.8643,4.7885,4.6891,4.6395,4.6133,4.5114,4.446,4.4255,4.5095,4.4516,4.3368,5.2449,5.1623,5.058,4.9075,4.7629,4.685,4.7496,4.7619,4.7619,4.7619,4.8204,4.8604,4.8604,4.8604,4.8604,4.8604,4.9281,5.0851,5.3591,5.5715,5.8947,6.3687,6.5257,6.6919,6.892,6.9597,6.9936,6.9997,7.0644,7.0952,7.0952,7.0952,7.0582,6.9967,6.9905,6.9536,6.892,6.8889,6.852,6.7843,6.6488,6.4303,6.1686,5.9624,5.6761,5.3806,5.3806,5.1865,4.9389,4.9659,4.8066,4.6106,4.7003,4.6653,4.5673,4.4684,4.3729,4.3106,4.3677,4.466,4.5804,4.7051,4.8379,4.9848,5.1675,5.2291,5.2828,5.4,5.4399,5.4496,5.3877,5.4905,5.57,5.5229,5.6066,5.6588,5.6013,5.4968,5.4053,5.3478,5.191,5.1335,0.0,5.3609,5.4733,5.5857,5.5465,5.5386,5.5883,5.5412,5.5125,5.5099,5.5099,5.5099,5.5099,5.5099,5.5099,5.5099,5.3975,5.3452,5.3373,5.1648,5.0237,4.9113,4.9087,4.8433,4.7252,4.6708,4.6159,4.5584,4.4903,4.4668,4.4643,4.4149,4.3232,4.2184,5.3144,5.2449,5.1576,5.05,4.8722,4.7464,4.7637,4.7269,4.7096,4.7558,4.8204,0.0,0.0,0.0,0.0,0.0,4.885,4.9959,5.2236,5.4299,5.673,5.9686,6.2394,6.4611,6.6211,6.735,6.8335,6.9228,6.9443,6.9566,6.9566,6.9135,6.9043,6.9197,6.8304,6.8027,6.8181,6.7289,6.6796,6.6334,6.3626,6.1686,6.0086,5.67,5.3743,5.1273,0.0,4.9418,4.8416,4.7451,4.6535,4.5869,4.6181,4.5598,4.4638,4.3634,4.3563,4.4034,4.5237,4.6297,4.7595,4.9966,5.0959,5.1803,5.3788,5.424,5.4246,5.4054,5.3768,5.3218,5.2019,5.247,5.3373,5.4341,5.5465,5.6275,5.6484,5.651,5.5308,5.204,5.2485,0.0,0.0,0.0,0.0,5.468,5.4968,5.5177,5.536,5.5203,5.5099,5.5099,5.5099,5.5099,5.5099,5.5099,5.5099,5.5099,5.3949,5.2981,5.2145,5.0812,4.9793,4.9061,4.8669,4.8041,4.7226,4.6708,4.6133,4.5558,4.4957,4.4668,4.467,4.4095,4.3389,4.2657,0.0,5.26,5.1645,5.0883,4.8889,0.0,0.0,0.0,0.0,0.0,0.0,0.0,0.0,0.0,0.0,0.0,0.0,4.9035,5.0851,5.2206,5.4052,5.6577,5.8978,6.104,6.2671,6.3564,6.4426,6.5288,6.5288,6.5411,6.5626,6.5226,6.538,6.5965,6.5103,6.498,6.5319,6.418,6.3718,6.3472,6.0517,5.8793,5.7623,5.4268,5.1531,0.0,4.7852,4.711,4.6708,4.6059,4.5326,4.4823,4.5144,4.4545,4.3622,4.3438,4.3879,4.4881,4.7028,4.8375,4.984,5.2507,5.3262,5.3707,5.5032,5.4928,5.4349,5.3576,5.2565,5.1452,5.0141,5.0315,5.1073,5.2197,5.3504,5.4733,5.5726,5.583,5.4863,5.2302,5.2589,5.2406,0.0,0.0,0.0,5.4079,5.4759,5.5099,5.5099,5.5099,5.5099,5.5099,5.5099,5.5099,5.5099,5.5099,5.4889,5.4471,5.3739,5.2537,5.0969,5.0211,4.9479,4.8747,4.8355,4.7858,4.7226,4.6708,4.6133,4.5558,4.4957,4.4668,4.467,4.4095,4.3624,4.3206,0.0,0.0,5.0984,0.0,0.0,0.0,0.0,0.0,0.0,0.0,0.0,0.0,0.0,0.0,0.0,0.0,0.0,0.0,4.9497,4.962,5.1067,5.4222,5.513,5.6484,5.8485,5.8577,5.8639,5.867,5.8639,5.8947,5.9593,5.9562,5.987,6.0486,6.0517,6.0547,6.0486,5.9839,5.9593,5.9408,5.7395,5.5745,5.4314,5.2284,5.0087,4.7969,4.6297,4.5098,4.4452,4.5372,4.4434,4.3018,4.3946,4.3451,4.2758,4.3993,4.4592,4.5609,4.8879,5.0821,5.2402,5.4449,5.5321,5.5631,5.5485,5.4393,5.3164,5.2459,5.0943,4.9374,4.8224,4.8538,4.8982,4.9113,5.0603,5.2354,5.4131,5.3478,5.3164,0.0,0.0,0.0,0.0,0.0,0.0,5.4079,0.0,5.5046,5.5099,5.5099,5.5099,5.5099,5.5099,5.5099,5.5099,5.5099,5.4524,5.34,5.34,5.2171,4.9949,4.9897,4.927,4.8224,4.8198,4.7832,4.7257,4.6708,4.6133,4.5477,4.4903,4.4668,4.467,4.4121,4.3885,4.3782,0.0,0.0,0.0,0.0,0.0,0.0,0.0,0.0,0.0,0.0,0.0,0.0,0.0,0.0,0.0,0.0,0.0,0.0,4.8112,4.8604,4.9281,5.0143,5.2298,5.396,5.5007,5.5992,5.673,5.7333,5.673,5.6577,5.673,5.6238,5.6115,5.63,5.6774,5.7008,5.6977,5.6823,5.673,5.6515,5.3991,5.279,5.2147,4.9408,4.7976,4.7211,4.5355,4.4545,4.4219,4.3804,4.3211,4.2712,4.3389,4.3278,4.3258,4.5262,4.6696,4.8303,5.1576,5.3465,5.4837,5.5868,5.616,5.5854,5.4302,5.3333,5.2197,5.0342,4.8564,4.6996,4.5846,4.6473,0.0,4.9401,5.1858,0.0,5.6458,5.6902,0.0,5.5046,0.0,5.4707,5.3295,5.3687,0.0,0.0,5.4236,5.421,5.5046,5.5099,5.5099,5.5099,5.5099,5.5099,5.5099,5.5099,5.4524,5.34,5.34,5.2406,5.0551,5.0106,4.9505,4.8826,4.8381,4.7623,4.6682,4.6552,4.5872,4.4877,4.4746,4.4668,4.4642,4.4565,4.4225,4.3886,0.0,0.0,0.0,0.0,0.0,0.0,0.0,0.0,0.0,0.0,0.0,0.0,0.0,0.0,0.0,0.0,0.0,0.0,0.0,4.7404,4.7558,4.8142,4.9651,5.079,5.1467,5.2206,5.279,5.3191,5.2483,5.2298,5.2575,5.1929,5.173,5.2007,5.2407,5.276,5.3037,5.2729,5.2944,0.0,0.0,5.0543,5.0623,4.8578,4.7521,4.6886,4.5463,4.4312,4.3506,4.347,4.3452,4.36,4.4456,4.4863,4.5527,4.7804,4.9159,5.0672,5.4176,5.5631,5.6378,5.7425,5.6893,5.5759,5.3857,5.2145,5.042,4.8355,4.6342,4.4774,4.4121,4.4539,4.5715,0.0,0.0,0.0,5.5752,5.6641,5.6902,0.0,5.6719,0.0,5.536,5.5151,5.5203,0.0,5.4654,5.4419,5.5072,5.5099,5.5099,5.5099,5.5099,5.5099,5.5099,5.5099,5.4524,5.34,5.34,5.2485,5.076,5.0159,4.9584,4.9061,0.0,4.7806,4.7179,4.6682,4.6081,4.5454,4.4931,4.4668,4.4668,4.4668,4.4513,4.4251,0.0,0.0,0.0,0.0,0.0,0.0,0.0,0.0,0.0,0.0,4.7558,4.7865,0.0,0.0,0.0,0.0,0.0,0.0,0.0,0.0,4.6296,4.7558,4.7681,4.8019,4.8604,4.8604,4.8573,4.8481,4.7804,4.7742,4.8204,4.7527,4.7527,4.8081,4.8173,4.8604,4.9251,4.8696,4.922,5.0297,4.9097,4.8974,4.9466,0.0,4.7776,4.6828,4.5869,4.4172,4.2601,4.3811,4.446,4.497,4.6193,4.7166,4.839,5.0864,5.181,5.2862,5.6656,5.744,5.7416,5.8631,5.724,5.5229,5.3452,5.0812,4.8277,4.6604,4.4539,4.3023,4.3023,4.3154,4.4042,4.6447,0.0,5.0577,5.4158,5.5099,5.6275,5.847,5.7869,5.7425,5.7913,5.6484,5.5674,5.6013,5.5517,5.5177,5.5099,5.5099,5.5099,5.5099,5.5099,5.5099,5.5099,5.5099,5.4524,5.34,5.34,5.2511,5.0864,5.0211,4.9636,4.9165,0.0,0.0,4.7989,4.6917,4.6421,4.6264,4.5166,4.4668,4.4668,4.4668,4.4668,4.4668,0.0,0.0,0.0,0.0,0.0,0.0,0.0,0.0,0.0,0.0,4.725,4.7865,0.0,0.0,0.0,0.0,0.0,0.0,0.0,0.0,0.0,4.7558,4.8142,4.8481,4.8604,4.8604,4.8327,4.7773,4.7096,4.6542,4.6111,4.5434,4.5157,4.5311,4.5865,4.648,4.7157,4.7588,4.8235,4.8943,4.8696,4.8696,4.8706,4.7764,0.0,0.0,4.4932,4.3177,4.211,4.3727,4.46,4.5339,4.6948,4.8121,4.946,5.2705,5.4092,5.5151,5.8175,5.8986,5.8803,5.814,5.6212,5.3922,5.1753,4.9008,0.0,4.5297,4.3964,4.3023,4.3023,4.3807,4.5349,4.8172,4.9688,5.204,5.6432,5.7137,5.7895,0.0,5.9751,5.949,5.9098,0.0,0.0,0.0,0.0,5.5569,5.5125,5.5099,5.5099,5.5099,5.5099,5.5099,5.5099,5.5099,5.4524,5.34,5.34,5.272,5.1413,5.0368,4.9845,4.9688,0.0,0.0,4.744,4.6761,4.6212,4.5715,4.5009,4.4668,4.4668,4.4668,4.4668,4.4668,0.0,0.0,0.0,0.0,0.0,0.0,0.0,4.5641,4.5957,4.7004,4.7404,4.7865,4.8543,4.8604,4.8481,0.0,0.0,0.0,0.0,0.0,0.0,4.7588,4.7927,4.8235,4.8604,4.8604,4.845,4.8142,0.0,4.6942,4.6634,4.5926,4.5618,4.5649,4.5957,4.648,4.7127,4.7465,4.7989,4.8604,4.8604,4.8604,4.848,0.0,0.0,0.0,4.4591,4.3177,4.1908,4.3359,4.4335,4.533,4.8006,5.0018,5.1831,5.4341,5.5726,5.6928,5.9202,5.9594,5.915,5.8314,5.5935,5.3191,5.0864,0.0,0.0,4.4539,4.3598,4.3127,4.3415,4.3912,4.514,4.7754,4.8878,5.0838,5.4863,5.6196,5.7399,5.9124,5.9594,5.9673,0.0,0.0,0.0,0.0,0.0,5.5674,5.5125,5.5099,5.5099,5.5099,5.5099,5.5099,5.5099,5.5099,5.4524,5.34,5.34,5.2772,5.157,5.042,4.9897,4.9819,4.8669,0.0,4.7728,4.7153,4.6578,4.6003,4.5428,4.5009,4.4668,4.4668,4.4668,4.4668,0.0,0.0,0.0,0.0,0.0,0.0,4.5619,4.5711,4.6234,4.7434,4.7742,4.8019,4.8543,4.8604,4.8543,0.0,0.0,0.0,0.0,0.0,0.0,0.0,0.0,0.0,4.8604,0.0,0.0,4.8389,4.7865,0.0,0.0,0.0,0.0,0.0,4.6603,4.6973,4.7619,4.7619,4.7989,0.0,0.0,4.8552,0.0,0.0,0.0,0.0,0.0,4.3204,4.1781,4.294,4.3861,4.5062,4.8041,5.076,5.3164,5.4863,5.6458,5.8096,5.9751,5.9882,5.9359,5.8549,5.5647,5.2433,5.0211,4.7414,4.4983,4.4068,4.352,4.3337,4.3781,4.3964,4.4774,4.697,4.7702,4.9218,5.272,5.4759,5.651,0.0,5.9176,0.0,0.0,0.0,0.0,0.0,0.0,0.0,5.5125,5.5099,5.5099,5.5099,5.5099,5.5099,5.5099,5.4968,5.4393,5.34,5.3269,5.2642,5.157,5.042,4.9897,4.9819,4.8669,0.0,0.0,4.7571,4.7074,4.6604,4.5898,4.5294,4.485,4.4774,4.4668,4.4668,0.0,0.0,0.0,0.0,0.0,0.0,4.5696,4.6111,4.6757,4.7496,4.8142,4.8543,4.8604,4.8604,4.8358,0.0,0.0,0.0,0.0,0.0,0.0,0.0,0.0,0.0,0.0,0.0,0.0,4.7681,0.0,0.0,0.0,0.0,0.0,0.0,0.0,0.0,4.7619,4.7619,0.0,0.0,0.0,0.0,0.0,0.0,0.0,0.0,0.0,4.2457,4.1481,4.2631,4.3441,4.4199,4.5584,4.8329,5.1361,5.3112,5.5543,5.8096,5.9751,6.0195,5.9751,5.8131,5.4733,5.1309,4.9557,0.0,4.4016,4.3885,4.3833,4.3807,4.3912,4.4304,4.5245,4.6991,4.733,4.8616,5.2093,5.4497,5.6379,5.7582,0.0,0.0,0.0,0.0,0.0,0.0,0.0,0.0,0.0,5.5099,5.5099,5.5099,5.5099,5.5099,5.5099,5.455,5.4001,5.34,5.2825,5.2223,5.157,5.042,4.9897,4.9819,0.0,0.0,0.0,4.7571,4.7252,4.7096,4.6055,4.5584,4.548,4.4931,4.4668,4.4668,0.0,0.0,0.0,0.0,0.0,0.0,4.5519,4.6172,4.7004,4.8081,4.845,4.8604,4.8604,4.8604,4.8512,4.8235,4.8204,0.0,0.0,0.0,0.0,0.0,0.0,0.0,0.0,0.0,4.8481,4.8204,4.8204,0.0,0.0,0.0,0.0,0.0,0.0,0.0,0.0,4.8204,0.0,0.0,0.0,0.0,0.0,0.0,0.0,0.0,0.0,0.0,4.1376,4.1847,4.216,4.2422,4.2892,4.4696,4.731,5.0812,5.3609,5.6118,5.8523,5.9437,5.9307,5.7582,5.4341,5.1073,4.9008,4.6395,4.4382,4.4382,4.4382,4.4382,4.4382,4.4565,4.4957,4.5607,4.5767,4.6604,4.9061,5.0786,5.2746,5.5282,5.7007,0.0,0.0,0.0,0.0,0.0,0.0,0.0,0.0,5.5099,5.5099,5.5099,5.5099,5.5099,5.5099,5.4863,5.4288,5.34,5.3164,5.2537,5.157,5.042,4.9897,4.9819,0.0,0.0,0.0,4.7937,4.7649,4.72,4.6447,4.5924,4.5558,4.4903,4.4668,4.4668,0.0,0.0,0.0,0.0,0.0,4.4316,4.5411,4.6172,4.7004,4.8173,4.8296,4.8389,4.8604,4.8419,4.8389,4.8604,4.8604,0.0,0.0,0.0,0.0,0.0,0.0,0.0,0.0,0.0,4.8604,4.8604,4.8604,4.8604,0.0,0.0,0.0,0.0,0.0,0.0,0.0,0.0,0.0,0.0,0.0,0.0,0.0,0.0,0.0,0.0,0.0,0.0,0.0,0.0,0.0,4.1324,4.1324,4.2134,4.3938,4.8068,5.123,5.4001,5.6536,5.7895,5.8235,5.6693,5.3818,5.0812,4.8669,4.6395,4.4668,4.4668,4.4668,4.4668,4.4668,4.4668,4.4668,4.4668,4.4824,4.548,4.6891,4.8381,5.0211,0.0,0.0,0.0,0.0,0.0,0.0,0.0,0.0,0.0,0.0,5.5099,5.5099,5.5099,5.5099,5.5099,5.5099,5.4916,5.4341,5.34,5.3217,5.2589,5.157,5.0603,5.0054,4.9845,0.0,0.0,0.0,4.8172,4.7937,4.7519,4.6944,4.6369,4.582,4.5218,4.4824,4.4668,0.0,0.0,0.0,0.0,0.0,4.4876,4.5526,4.6172,4.685,4.7527,4.7619,4.7865,4.8543,4.8019,4.7896,4.8543,4.8604,0.0,0.0,0.0,0.0,0.0,0.0,0.0,4.8604,4.8604,4.8604,4.8604,4.8604,4.8604,4.8604,4.8604,4.8604,4.8604,0.0,0.0,0.0,0.0,0.0,0.0,0.0,0.0,0.0,0.0,0.0,0.0,0.0,0.0,0.0,0.0,0.0,0.0,0.0,4.1324,4.1925,4.4826,4.8512,5.2014,5.3766,5.5517,5.6562,5.5412,5.2955,5.0342,4.859,4.6395,4.4668,4.4668,4.4668,4.4668,4.4668,4.4668,4.4668,4.4668,4.5164,4.582,4.6395,4.8433,4.9897,0.0,0.0,0.0,0.0,0.0,0.0,0.0,0.0,0.0,0.0,5.5099,5.5099,5.5099,5.5099,5.5099,5.5099,5.4497,5.3949,5.34,5.2798,5.2197,5.157,5.1021,5.0446,0.0,0.0,0.0,0.0,4.8172,4.8172,4.812,4.7545,4.697,4.6395,4.582,4.519,4.4668,0.0,0.0,0.0,0.0,0.0,0.0,4.4154,4.5557,4.685,4.7527,4.8019,4.8204,4.7958,4.8142,4.8204,4.7958,4.8358,0.0,0.0,0.0,0.0,0.0,0.0,0.0,4.8604,4.8604,4.8604,4.8604,4.8604,4.8604,4.8563,4.7946,4.7988,4.8563,4.7776,0.0,0.0,0.0,0.0,0.0,0.0,0.0,0.0,0.0,0.0,0.0,0.0,0.0,0.0,0.0,0.0,0.0,0.0,0.0,0.0,4.2866,4.5558,4.8564,5.0681,5.2223,5.306,5.2328,5.0577,4.8669,4.731,4.582,4.4668,4.4668,4.4668,4.4668,4.4668,4.4668,4.4853,4.5271,4.5111,4.5218,4.582,0.0,0.0,5.0786,0.0,0.0,0.0,0.0,0.0,0.0,0.0,0.0,0.0,5.5099,5.5099,5.5099,5.5099,5.5099,5.5099,5.4497,5.3922,5.34,5.2772,5.2171,5.157,5.1047,0.0,0.0,0.0,0.0,0.0,4.8355,4.8172,4.812,4.7571,4.7231,4.6944,4.5976,4.5451,4.5297,0.0,0.0,0.0,0.0,0.0,0.0,4.384,4.5464,4.6757,4.7157,4.7804,4.8081,4.765,4.7989,4.805,4.765,4.8235,0.0,0.0,0.0,0.0,0.0,0.0,0.0,4.8604,4.8604,4.8604,4.8604,4.8756,4.8756,4.8469,4.7792,4.7632,4.7904,4.7219,4.7089,0.0,0.0,0.0,0.0,0.0,0.0,4.6462,0.0,0.0,0.0,0.0,0.0,0.0,0.0,0.0,0.0,0.0,0.0,0.0,0.0,4.3808,4.595,4.8041,4.961,5.0577,5.0237,4.8982,4.7623,4.6682,4.5558,4.4668,4.4668,4.4668,4.4668,4.4668,4.4668,4.4798,4.5218,4.4983,4.4931,4.5558,0.0,0.0,5.0943,0.0,0.0,0.0,0.0,0.0,0.0,0.0,0.0,0.0,0.0,5.5099,5.5099,5.5099,5.4994,5.4759,5.4393,5.3818,5.306,5.2668,5.2171,5.1596,5.1256,0.0,0.0,0.0,0.0,0.0,4.8433,4.8172,4.8146,4.7806,4.7388,4.6917,4.6212,4.5663,4.5245,0.0,0.0,0.0,0.0,0.0,0.0,0.0,4.5711,4.6603,4.6603,4.7219,4.765,4.7619,4.765,4.765,4.7619,4.8235,0.0,0.0,0.0,0.0,0.0,0.0,4.8563,4.8563,4.8563,4.8563,4.8563,4.9028,4.8901,4.826,4.7878,4.7422,4.6872,4.6784,4.627,4.5479,0.0,0.0,0.0,4.6181,4.5644,0.0,0.0,0.0,0.0,0.0,0.0,0.0,0.0,0.0,0.0,0.0,0.0,0.0,0.0,0.0,0.0,0.0,4.7519,4.8773,4.8773,4.7963,4.6996,4.6473,4.5506,0.0,4.4668,4.4668,4.4668,4.4668,4.4668,4.4694,4.4774,4.4748,4.4931,4.5558,4.6761,0.0,0.0,0.0,0.0,0.0,0.0,0.0,0.0,0.0,0.0,0.0,0.0,5.5072,5.5046,5.5046,5.4759,5.421,5.4131,5.3556,5.2485,5.2459,5.2145,5.1596,5.157,0.0,0.0,0.0,0.0,0.0,4.8433,4.8172,4.8172,4.8172,4.7519,4.6525,4.6499,4.5767,4.4774,0.0,0.0,0.0,0.0,0.0,0.0,0.0,0.0,0.0,0.0,4.7619,4.8173,4.765,4.8081,4.8173,0.0,0.0,0.0,0.0,0.0,0.0,0.0,4.8604,4.8521,4.8355,4.8385,4.8301,4.8133,4.8412,4.837,4.8049,4.6668,4.6194,4.6535,4.5644,4.5479,4.5884,4.5223,0.0,0.0,4.4003,4.3956,0.0,0.0,0.0,0.0,4.167,4.1324,0.0,0.0,0.0,0.0,0.0,0.0,0.0,0.0,4.3023,4.4017,4.4382,0.0,4.5741,4.5741,4.5532,4.5297,0.0,4.4931,4.4668,4.4668,4.4668,4.4668,4.4668,4.4668,4.4824,4.5294,4.5036,4.4931,4.5558,4.8146,0.0,0.0,0.0,0.0,0.0,0.0,0.0,0.0,0.0,0.0,0.0,0.0,5.4889,5.4419,5.4419,5.4341,5.421,5.3347,5.2772,5.2485,5.2014,5.1727,5.157,5.1178,0.0,0.0,0.0,0.0,4.9035,4.8433,4.8172,4.8172,4.8172,4.7754,4.7074,4.663,4.6029,4.5294,0.0,0.0,0.0,0.0,0.0,0.0,0.0,0.0,0.0,0.0,4.7773,4.8358,4.7681,4.8204,4.8327,0.0,0.0,0.0,0.0,0.0,0.0,4.8604,4.8604,4.851,4.8271,4.8301,4.8218,4.8007,4.8109,4.7924,4.7523,4.6239,4.5553,4.536,4.3907,4.4097,4.5314,4.421,4.4069,4.4535,4.3768,0.0,0.0,0.0,0.0,0.0,4.1498,4.1324,0.0,4.1977,4.1951,4.1794,0.0,0.0,0.0,0.0,4.3572,4.4278,4.4278,4.4487,4.4668,4.4668,4.4668,4.4668,4.4668,4.4668,4.4668,4.4668,4.4668,4.4668,4.4668,4.4668,4.4826,4.5111,4.4877,4.5218,4.6604,0.0,0.0,0.0,0.0,0.0,0.0,0.0,0.0,0.0,0.0,0.0,0.0,0.0,5.455,5.421,5.3687,5.3426,5.3426,5.2798,5.2354,5.2067,5.1492,5.123,5.1204,5.0629,0.0,0.0,0.0,0.0,4.9035,4.8433,4.8172,4.8172,4.8172,4.7832,4.7257,4.6682,4.6107,4.5477,0.0,0.0,0.0,0.0,0.0,0.0,0.0,0.0,0.0,0.0,0.0,0.0,0.0,0.0,0.0,0.0,0.0,0.0,0.0,0.0,4.8521,4.8521,4.8521,4.8469,4.826,4.8218,4.8122,4.8031,4.7894,4.7595,4.7095,4.6153,4.5126,4.3983,4.2438,4.2755,4.4256,4.3081,4.3204,4.4237,4.4077,0.0,0.0,0.0,0.0,0.0,0.0,0.0,0.0,4.2082,4.229,4.2342,4.2944,0.0,0.0,0.0,0.0,0.0,4.4668,4.4668,4.4668,4.4668,4.4668,4.4668,4.4668,4.4668,4.4668,4.4668,4.4668,4.4668,4.4668,4.48,4.4853,4.4853,4.5088,4.6055,4.8381,4.961,0.0,0.0,0.0,0.0,0.0,0.0,0.0,0.0,0.0,0.0,0.0,0.0,0.0,5.4079,5.306,5.2459,5.2354,5.2354,5.2067,5.1465,5.1021,5.0734,5.0629,5.0028,0.0,0.0,0.0,0.0,4.8904,4.8381,4.8172,4.8172,4.8172,4.7832,4.7257,4.6682,4.6107,4.5477,0.0,0.0,0.0,0.0,0.0,0.0,0.0,0.0,0.0,0.0,0.0,0.0,0.0,0.0,0.0,0.0,0.0,0.0,0.0,4.8438,4.8343,4.8343,4.8343,4.826,4.8049,4.7837,4.7925,4.8249,4.7507,4.7299,4.7474,4.5825,4.4588,4.3715,4.2613,4.2468,4.3033,4.1967,4.191,4.256,4.251,0.0,0.0,0.0,0.0,0.0,0.0,0.0,0.0,4.2526,4.2579,4.2395,4.3415,0.0,0.0,0.0,0.0,0.0,4.4668,4.4668,4.4668,4.4668,4.4668,4.4668,4.4668,4.4668,4.4668,4.4668,4.4668,4.4668,4.4668,4.514,4.5425,4.5425,4.6708,4.846,0.0,0.0,0.0,0.0,0.0,0.0,0.0,0.0,0.0,0.0,0.0,0.0,0.0,0.0,0.0,5.353,5.2851,5.225,5.1727,5.1727,5.1465,5.0917,5.0838,5.0524,5.0002,4.9453,4.9218,0.0,0.0,4.8329,4.8329,4.8224,4.8172,4.8172,4.8172,4.7832,4.7257,4.6682,4.6107,4.5477,0.0,0.0,0.0,0.0,0.0,0.0,0.0,0.0,0.0,0.0,0.0,0.0,0.0,0.0,0.0,0.0,0.0,0.0,0.0,4.8385,4.826,4.8133,4.8341,4.8243,4.7794,4.7477,4.7333,4.7433,4.6557,4.6217,4.637,4.4668,4.3664,4.3296,4.218,4.1784,4.1993,4.1839,4.1925,4.2238,0.0,0.0,0.0,0.0,0.0,0.0,0.0,0.0,0.0,0.0,4.2605,4.2762,4.3598,0.0,0.0,0.0,0.0,0.0,4.4643,4.4513,4.433,4.4643,4.4668,4.4668,4.4668,4.4668,4.4668,4.4668,4.4668,4.4668,4.4668,4.5164,4.5924,4.6865,0.0,4.9949,5.1021,0.0,0.0,0.0,0.0,0.0,0.0,0.0,0.0,0.0,0.0,0.0,0.0,0.0,0.0,0.0,5.2328,5.1727,5.1178,5.1152,5.1021,5.0786,5.0446,5.0002,4.9427,4.8852,4.859,4.859,0.0,4.8172,4.8172,4.8172,4.8172,4.8172,4.8172,4.8015,4.7675,4.6813,4.6107,4.5477,0.0,0.0,0.0,0.0,0.0,0.0,0.0,0.0,0.0,0.0,0.0,0.0,0.0,0.0,0.0,0.0,0.0,0.0,0.0,4.8218,4.8091,4.7922,4.83,4.829,4.7822,4.7629,4.7424,4.7155,4.6222,4.5611,4.5229,4.3966,4.3337,4.318,4.2317,4.1847,4.1742,4.2186,4.2448,4.2656,0.0,0.0,0.0,0.0,0.0,0.0,0.0,0.0,0.0,0.0,0.0,0.0,0.0,0.0,0.0,4.4668,4.4408,4.4173,4.4617,4.4408,4.4173,4.4617,4.4668,4.4774,4.485,4.4931,4.4983,4.5114,4.514,4.5088,4.4957,4.5637,0.0,4.8512,5.0263,0.0,0.0,0.0,0.0,0.0,0.0,0.0,0.0,0.0,0.0,0.0,0.0,0.0,0.0,0.0,0.0,0.0,5.191,5.1335,5.0812,5.0786,5.0655,5.0394,4.9923,4.9401,4.8852,4.8381,4.8172,4.8172,4.8172,4.8172,4.8172,4.8172,4.8172,4.8172,4.8172,4.8094,4.7858,4.6865,4.6107,4.5477,0.0,0.0,0.0,0.0,0.0,0.0,0.0,0.0,0.0,0.0,0.0,0.0,0.0,0.0,0.0,0.0,0.0,0.0,4.8301,4.788,4.7624,4.7624,4.8069,4.8399,4.8514,4.8925,4.8886,4.8478,4.7404,4.6161,4.4778,4.4617,4.433,4.3807,4.3729,4.3389,4.2892,4.2944,4.3258,4.3755,4.3807,0.0,0.0,0.0,0.0,0.0,0.0,0.0,0.0,0.0,0.0,0.0,0.0,0.0,4.4668,4.4668,4.4642,4.467,4.4668,4.4696,4.467,4.4668,4.4668,4.4879,4.5373,4.5558,4.5715,4.6238,4.6342,4.6186,4.5663,4.6891,4.8564,5.0315,0.0,0.0,0.0,0.0,0.0,0.0,0.0,0.0,0.0,0.0,0.0,0.0,0.0,0.0,0.0,0.0,0.0,0.0,0.0,5.1335,5.0812,5.0786,5.0263,4.9218,4.9165,4.8826,4.825,4.8198,4.8172,4.8172,4.8172,4.8172,4.8172,4.8172,4.8172,4.8172,4.8172,4.7858,4.7252,4.6708,4.6107,4.5477,0.0,0.0,0.0,0.0,0.0,0.0,0.0,0.0,0.0,0.0,0.0,0.0,0.0,0.0,0.0,0.0,0.0,0.0,4.788,4.7709,4.7538,4.7439,4.7981,4.852,4.8999,4.8267,4.7969,4.8155,4.6818,4.5662,4.4668,4.4356,4.4068,4.3912,4.3493,4.3232,4.3049,4.3389,4.3676,4.3912,4.4251,4.4199,0.0,0.0,0.0,0.0,0.0,0.0,0.0,0.0,4.3206,4.3154,4.3938,4.4434,4.4668,4.4668,4.4225,4.3833,4.4539,4.4199,4.378,4.4485,4.4668,4.4983,4.595,4.6421,4.6704,4.697,4.7597,4.7911,4.7336,4.8329,4.9688,5.1073,0.0,0.0,0.0,0.0,0.0,0.0,0.0,0.0,0.0,0.0,0.0,0.0,0.0,0.0,0.0,0.0,0.0,0.0,0.0,5.0289,4.974,4.974,4.9322,4.8538,4.8904,4.8773,4.8172,4.8172,4.8172,4.8172,4.8172,4.8172,4.8172,4.8172,4.8172,4.8146,4.7806,4.7519,4.7174,4.629,4.582,4.5477,0.0,0.0,0.0,0.0,0.0,0.0,0.0,0.0,0.0,0.0,0.0,0.0,0.0,0.0,0.0,0.0,0.0,0.0,4.7624,4.7538,4.7409,4.7309,4.7938,4.8462,4.8741,4.7634,4.7325,4.7892,4.6169,4.5085,4.4668,4.433,4.4147,4.4121,4.3729,4.3572,4.3598,4.399,4.4147,4.4173,4.4565,4.4487,0.0,0.0,0.0,0.0,0.0,0.0,0.0,0.0,4.3284,4.3363,4.3755,4.4278,4.4668,4.4668,4.4173,4.3729,4.4513,4.4147,4.3702,4.4539,4.4824,4.5349,4.6708,4.731,4.7702,4.8068,4.8643,4.9008,4.8773,4.9348,0.0,0.0,0.0,0.0,0.0,0.0,0.0,0.0,0.0,0.0,0.0,0.0,0.0,0.0,0.0,0.0,0.0,0.0,0.0,0.0,0.0,0.0,4.9087,4.9087,4.8773,4.8198,4.8616,4.859,4.8172,4.8172,4.8172,4.8172,4.7989,4.7911,4.7911,4.7728,4.7649,4.7597,4.7231,4.7074,4.6944,4.5976,4.5581,4.5477,0.0,0.0,0.0,0.0,0.0,0.0,0.0,0.0,4.685,4.7527,4.7998,0.0,0.0,0.0,0.0,0.0,0.0,0.0,4.7581,4.7439,4.7309,4.7309,4.7938,4.8089,4.7619,4.717,4.7325,4.7965,4.5794,4.4694,4.4668,4.4668,4.4668,4.4668,4.4668,4.4668,4.4668,4.4668,4.4668,4.4668,4.4668,4.4668,4.467,0.0,0.0,0.0,0.0,0.0,0.0,0.0,4.3885,4.3912,4.3939,4.4278,4.4668,4.4668,4.4668,4.4668,4.4668,4.4668,4.4668,4.4694,4.5192,4.6081,4.7806,4.8198,4.8512,4.9688,4.9479,4.927,4.9819,4.9923,0.0,0.0,0.0,0.0,0.0,0.0,0.0,0.0,0.0,0.0,0.0,0.0,0.0,0.0,0.0,0.0,0.0,0.0,0.0,0.0,0.0,0.0,4.9087,4.9061,4.8773,4.8172,4.8172,4.8172,4.8172,4.8172,4.8172,4.8146,4.7571,4.7278,4.7226,4.6708,4.6473,4.6473,4.6473,4.6473,4.6395,4.582,4.5555,4.5477,0.0,0.0,0.0,0.0,0.0,0.0,0.0,0.0,4.6366,4.683,4.7581,0.0,0.0,0.0,0.0,0.0,0.0,0.0,4.7396,4.7352,4.6975,4.6299,4.7109,4.7256,4.6546,4.6578,4.6288,4.5688,4.5467,4.514,4.4668,4.4668,4.4668,4.4668,4.4668,4.4668,4.4668,4.4668,4.4668,4.4668,4.4668,4.4668,4.4642,0.0,0.0,0.0,0.0,0.0,0.0,0.0,0.0,0.0,4.433,4.4591,4.4668,4.4668,4.4434,4.4225,4.4617,4.4434,4.433,4.5166,4.5794,4.6682,4.8433,4.8826,4.9374,5.1309,5.1256,5.1021,5.1622,5.1727,0.0,0.0,0.0,0.0,0.0,0.0,0.0,0.0,0.0,0.0,0.0,0.0,0.0,0.0,0.0,0.0,0.0,0.0,0.0,0.0,0.0,0.0,4.846,4.8068,4.7754,4.7571,4.7179,4.7205,4.7597,4.7597,4.7362,4.697,4.6813,4.6734,4.6708,4.6552,4.6473,4.6447,4.6029,4.5872,4.582,4.5218,4.4955,4.4903,0.0,0.0,0.0,0.0,0.0,0.0,0.0,0.0,4.6496,4.6724,4.7401,4.7709,0.0,0.0,0.0,0.0,0.0,0.0,4.6726,4.7062,4.6682,4.5281,4.6786,4.7297,4.6476,4.5989,4.5395,4.4668,4.5033,4.5033,4.4668,4.4668,4.4853,4.5033,4.5033,4.5033,4.5033,4.5033,4.4957,4.4668,4.4668,4.4668,4.4668,0.0,0.0,0.0,0.0,0.0,0.0,0.0,0.0,0.0,4.4356,4.4539,4.4668,4.4668,4.4487,4.4278,4.4643,4.4643,4.48,4.5741,4.6734,4.7963,4.9688,5.0446,5.1309,5.3164,5.2877,5.2433,5.2772,5.2668,0.0,0.0,0.0,0.0,0.0,0.0,0.0,0.0,0.0,0.0,0.0,0.0,0.0,0.0,0.0,0.0,0.0,0.0,0.0,0.0,0.0,0.0,4.7519,4.7153,4.6996,4.6996,4.663,4.6552,4.66,4.6891,4.6813,4.6473,4.6238,4.6003,4.5794,4.5794,4.5794,4.5741,4.5401,4.5216,4.5218,4.4798,4.4668,4.4668,0.0,0.0,4.4128,4.3429,0.0,0.0,0.0,0.0,4.697,4.7031,4.7347,4.7581,0.0,0.0,0.0,0.0,0.0,0.0,4.5824,4.655,4.6195,4.435,4.6608,4.7556,4.6889,4.5447,4.4668,4.4668,4.4668,4.4668,4.4668,4.4774,4.5059,4.5581,4.5581,4.5581,4.5581,4.5558,4.5164,4.4668,4.4668,4.4668,4.4668,4.4668,0.0,0.0,0.0,0.0,0.0,0.0,0.0,0.0,4.4121,4.4304,4.4668,4.4668,4.4668,4.4694,4.48,4.519,4.5846,4.6473,4.8015,4.9819,5.1465,5.272,5.3818,5.4759,5.421,5.3556,5.3556,5.3112,0.0,0.0,0.0,0.0,0.0,0.0,0.0,0.0,0.0,0.0,0.0,0.0,0.0,0.0,0.0,0.0,0.0,0.0,0.0,0.0,0.0,0.0,4.6552,4.6447,4.6395,0.0,4.6342,4.6055,4.5558,4.6133,4.6369,4.629,4.5767,4.5245,4.4668,4.4668,4.4668,4.4668,4.4668,4.4668,4.4668,4.4668,4.4668,4.4668,0.0,0.0,4.2029,4.3101,0.0,0.0,0.0,0.0,0.0,4.7169,4.7306,0.0,0.0,0.0,0.0,0.0,0.0,0.0,4.5779,4.5281,4.4631,4.384,4.4478,4.5105,4.5734,4.505,4.4668,4.4668,4.4668,4.4668,4.4694,4.5164,4.5506,4.5581,4.5581,4.5581,4.5555,4.5059,4.4853,4.4668,4.4668,4.4668,4.4668,4.4668,4.4668,0.0,0.0,0.0,0.0,0.0,0.0,0.0,4.4591,4.4617,4.4668,4.4668,4.4668,4.4826,4.5297,4.5872,4.6552,4.7571,4.9793,5.2093,5.3347,5.421,5.455,5.3896,5.4288,5.4733,5.4733,0.0,0.0,0.0,0.0,0.0,0.0,0.0,0.0,0.0,0.0,0.0,0.0,0.0,0.0,0.0,0.0,0.0,0.0,0.0,0.0,0.0,0.0,4.7226,4.7153,4.6264,4.582,0.0,4.5323,4.5036,4.4877,4.5532,4.5558,4.5088,4.4983,4.4853,4.4668,4.4668,4.4668,4.4668,4.4668,4.4668,4.4668,4.4668,4.4668,4.4668,0.0,0.0,0.0,0.0,0.0,0.0,0.0,0.0,0.0,0.0,0.0,0.0,0.0,0.0,0.0,0.0,4.519,0.0,4.5052,4.4591,4.447,4.4808,4.4248,4.452,4.5861,4.5076,4.4668,4.4668,4.4668,4.4879,4.5111,4.5425,4.6055,4.6813,4.6264,4.6186,4.6338,4.5477,4.4929,4.4668,4.4668,4.4668,4.4668,4.4668,4.4668,4.4668,4.4668,0.0,0.0,0.0,0.0,0.0,0.0,0.0,4.4668,4.4668,4.4668,4.4746,4.5059,4.582,4.7022,4.927,5.157,5.3556,5.4419,5.4863,5.4942,5.4341,5.468,5.5099,0.0,0.0,0.0,0.0,0.0,0.0,0.0,0.0,0.0,0.0,0.0,0.0,0.0,0.0,0.0,0.0,0.0,0.0,0.0,0.0,0.0,0.0,4.7074,4.6656,4.6025,4.5506,4.5192,4.5192,4.4824,4.4668,4.4694,4.5062,4.5036,4.4668,4.4668,4.4668,4.4668,4.4668,4.4668,4.4668,4.4668,4.485,4.5114,4.4826,4.485,4.5114,0.0,0.0,0.0,0.0,0.0,0.0,0.0,0.0,0.0,0.0,0.0,0.0,0.0,0.0,4.5372,0.0,0.0,0.0,4.4031,4.4038,4.4553,4.5663,4.4672,4.4705,4.6058,4.5287,4.4879,4.4879,4.4879,4.5349,4.6212,4.5924,4.6578,4.7989,4.7048,4.6839,4.7127,4.6025,4.5271,4.4668,4.4668,4.4668,4.4668,4.4668,4.4668,4.4668,4.4668,4.4668,4.4668,4.4668,0.0,0.0,0.0,0.0,4.4668,4.4668,4.4668,4.4694,4.4853,4.582,4.7519,5.0681,5.2694,5.4079,5.4785,5.502,5.5072,5.4968,5.502,0.0,0.0,0.0,0.0,0.0,0.0,0.0,0.0,0.0,0.0,0.0,0.0,0.0,0.0,0.0,0.0,0.0,0.0,0.0,0.0,0.0,4.7571,4.6499,4.6395,4.5872,4.4905,4.472,4.4668,4.4668,4.4668,4.4668,4.4668,4.4668,4.4668,4.4668,4.4668,4.4668,4.4668,4.4668,4.4668,4.4668,4.4668,4.5088,4.5558,4.5007,4.5192,4.5558,0.0,0.0,0.0,0.0,0.0,0.0,0.0,0.0,0.0,0.0,4.5602,4.5185,0.0,0.0,0.0,4.4452,4.2771,4.2065,4.2937,0.0,0.0,4.4177,4.4464,4.4698,4.4938,4.5299,4.5451,4.5451,4.5451,4.6578,4.859,4.7074,4.6761,4.744,4.7283,4.697,4.6552,4.5898,4.5271,4.4668,4.4668,4.4668,4.4668,4.4668,4.4668,4.4668,4.4668,4.4668,4.4668,4.4668,4.4668,0.0,0.0,0.0,4.4668,4.4668,4.4668,4.4798,4.5375,4.6708,4.8433,5.0394,5.1831,5.3008,5.4079,5.4733,5.4968,0.0,0.0,0.0,0.0,0.0,0.0,0.0,0.0,0.0,0.0,0.0,0.0,0.0,0.0,0.0,0.0,0.0,0.0,0.0,0.0,0.0,0.0,4.7435,4.7153,4.6499,4.6003,4.5663,4.5451,4.4929,4.4668,4.4668,4.4668,4.4668,4.4668,4.4668,4.4668,4.4668,4.4668,4.4668,4.4668,4.4668,4.4668,4.4668,4.4668,4.5088,4.5555,4.5477,4.5558,4.5555,0.0,0.0,0.0,0.0,0.0,0.0,0.0,0.0,0.0,0.0,0.0,4.5011,0.0,0.0,0.0,4.4358,4.3075,4.2312,4.2472,4.3099,4.3467,4.3389,4.4251,4.4668,4.4668,4.4929,4.5297,4.5581,4.5581,4.6813,4.9061,4.8303,4.8564,4.9688,4.8747,4.8172,4.7832,4.629,4.548,4.5138,4.4853,4.4668,4.4668,4.4668,4.4668,4.4668,4.4668,4.4668,4.4668,4.4668,4.4668,4.4668,4.4668,0.0,0.0,0.0,4.4668,4.4798,4.5454,4.6656,4.8041,4.9479,5.0917,5.2223,5.306,5.3713,5.4079,5.3818,0.0,0.0,0.0,0.0,0.0,0.0,0.0,0.0,0.0,0.0,0.0,0.0,0.0,0.0,0.0,0.0,0.0,0.0,0.0,0.0,4.7304,4.7022,4.6604,4.6029,4.5767,4.5454,4.5114,4.4798,4.4668,4.4668,4.4668,4.4668,4.4668,4.4668,4.4668,4.4668,4.4668,4.4668,4.4668,4.4668,4.4668,4.4668,4.4668,4.5088,4.5581,4.5581,4.5581,4.5663,0.0,0.0,0.0,0.0,0.0,0.0,0.0,0.0,0.0,0.0,0.0,0.0,0.0,0.0,0.0,0.0,4.3463,4.2892,4.2682,4.3441,4.3755,4.3467,4.4278,4.4668,4.4668,4.4824,4.5245,4.5846,4.5846,4.7179,4.9714,4.9584,5.0577,5.2406,5.0551,4.9557,4.9165,4.731,4.6421,4.6212,4.548,4.5166,4.5166,4.5166,4.5166,4.5166,4.5009,4.4957,4.4957,4.4957,4.4853,4.4748,4.485,4.4798,0.0,0.0,0.0,4.4826,4.5271,4.6077,4.7153,4.8172,4.9688,5.1126,5.1701,0.0,5.3086,0.0,0.0,0.0,0.0,0.0,0.0,0.0,0.0,0.0,0.0,0.0,0.0,0.0,0.0,0.0,0.0,0.0,0.0,0.0,0.0,0.0,4.6861,4.6499,4.6003,4.5373,4.5346,4.5192,4.4668,4.4668,4.4668,4.4668,4.4668,4.4668,4.4668,4.4668,4.4668,4.4668,4.4668,4.4668,4.4668,4.4668,4.4668,4.4668,4.4668,4.5088,4.5581,4.5581,4.5715,4.5898,0.0,0.0,0.0,0.0,0.0,0.0,0.0,0.0,0.0,0.0,0.0,4.3546,4.2342,4.2735,4.3075,4.3075,4.3023,4.3232,4.3755,4.3886,4.4095,4.4617,4.4696,0.0,4.4668,4.5297,4.5872,4.6421,4.6421,4.8146,5.1465,5.0943,5.2223,5.4811,5.2485,5.0864,4.9819,4.9165,4.859,4.7963,4.6839,4.6395,4.6395,4.6395,4.6395,4.6316,4.5767,4.5529,4.5529,4.5529,4.5138,4.4826,4.5346,4.5192,4.4668,0.0,0.0,0.0,4.4774,4.5245,4.5872,4.6473,4.7911,4.9348,4.9897,0.0,0.0,0.0,0.0,0.0,0.0,0.0,0.0,0.0,0.0,0.0,0.0,0.0,0.0,0.0,0.0,0.0,0.0,0.0,0.0,0.0,0.0,0.0,4.5741,4.5634,4.5401,4.48,4.4774,4.4694,4.4668,4.4668,4.4668,4.4668,4.4668,4.4668,4.4668,4.4668,4.4668,4.4668,4.4668,4.4668,4.4668,4.4668,4.4668,4.4668,4.4668,4.5088,4.5581,4.5581,4.5976,4.6447,0.0,0.0,0.0,0.0,0.0,0.0,0.0,0.0,0.0,0.0,0.0,0.0,0.0,4.3781,4.4121,4.4121,4.4121,4.4042,4.3939,4.4225,4.4356,4.4173,4.4539,4.4668,4.4668,4.5268,4.5924,4.6473,4.6473,4.7858,5.0498,5.0315,5.1361,5.34,5.2537,5.1936,5.1413,4.9374,4.8381,4.8094,4.6944,4.6473,4.6473,4.6473,4.6473,4.6447,4.6264,4.6186,4.6186,4.6186,4.6029,4.582,4.5663,4.5425,4.5164,4.4798,4.4668,4.4668,4.4668,4.4824,4.5192,4.5794,4.6682,4.7571,4.812,4.9322,5.0185,0.0,0.0,0.0,0.0,0.0,0.0,0.0,0.0,0.0,0.0,0.0,0.0,0.0,0.0,0.0,0.0,0.0,0.0,0.0,0.0,0.0,4.5637,4.5216,4.4903,4.4694,4.4668,4.4668,4.4668,4.4668,4.4668,4.4668,4.4668,4.4668,4.4668,4.4668,4.4668,4.4668,4.4668,4.4668,4.4668,4.4668,4.4668,4.4668,4.4668,4.4798,4.5088,4.548,4.5767,4.6029,0.0,0.0,0.0,0.0,0.0,4.1742,4.2159,4.2317,4.2605,4.2971,0.0,0.0,0.0,0.0,4.5323,4.5323,4.5323,4.514,4.4828,4.4931,4.4853,4.4487,4.4643,4.4772,4.5036,4.5373,4.6003,4.6761,4.6761,4.7832,4.9897,4.9897,5.0943,5.2772,5.238,5.2511,5.2929,5.0812,4.9949,4.9819,4.846,4.7911,4.7911,4.7911,4.7911,4.7911,4.7702,4.7623,0.0,0.0,0.0,4.6708,4.6316,4.5738,4.519,4.4853,4.4668,4.4668,4.4668,4.4668,4.4826,4.5218,4.5767,4.629,4.6682,0.0,0.0,0.0,0.0,0.0,0.0,0.0,0.0,0.0,0.0,0.0,0.0,0.0,0.0,0.0,0.0,0.0,0.0,0.0,0.0,0.0,0.0,0.0,4.5323,4.4957,4.4668,4.4668,4.4668,4.4668,4.4668,4.4668,4.4668,4.4668,4.4668,4.4668,4.4668,4.4668,4.4668,4.4668,4.4668,4.4668,4.4668,4.4668,4.4668,4.4668,4.4668,4.4668,4.4774,4.5111,4.5558,4.6029,0.0,0.0,4.2004,4.1428,4.1794,4.2238,4.2238,4.2657,4.3023,4.3075,0.0,0.0,0.0,0.0,0.0,4.6473,4.6473,4.6473,4.6473,4.595,4.5663,4.5663,4.5088,4.5062,4.5637,4.5607,4.6156,4.7278,4.7278,4.8198,4.9845,4.9845,5.1073,5.3269,5.2119,5.2537,5.4105,5.3556,5.3347,5.3243,5.1492,5.0812,5.0864,5.0812,5.0812,5.0734,5.0132,4.9923,0.0,4.9322,0.0,0.0,4.7304,4.613,4.472,4.472,4.472,4.472,0.0,0.0,0.0,4.4748,4.5111,4.5555,4.5555,0.0,0.0,0.0,0.0,0.0,0.0,0.0,0.0,0.0,0.0,0.0,0.0,0.0,0.0,0.0,0.0,0.0,0.0,0.0,0.0,0.0,0.0,4.4668,4.4668,4.4668,4.4668,4.4668,4.4668,4.4668,4.4668,4.4668,4.4668,4.4668,4.4668,4.4668,4.4668,4.4668,4.4668,4.4668,4.4668,4.4668,4.4668,4.4668,4.4668,4.4668,4.4668,4.4668,4.4668,4.4668,4.5454,4.6447,0.0,4.2448,4.2159,4.1951,4.2107,4.2342,4.2709,4.2918,4.331,0.0,0.0,0.0,4.5846,4.6656,4.6917,4.6499,4.6473,4.6473,4.6473,4.6316,4.6238,4.6238,4.6081,4.6081,4.6238,4.6656,4.6965,4.7278,4.7278,4.778,4.8669,4.8669,4.9688,5.1518,5.157,5.2119,5.2903,5.1936,5.225,5.3243,5.1492,5.1544,5.2537,5.1282,5.1021,5.1309,0.0,5.0551,5.0524,0.0,4.9819,4.9035,4.8198,4.7048,4.6003,4.6003,4.6003,4.6003,4.6003,0.0,0.0,0.0,0.0,0.0,4.4929,4.5558,0.0,0.0,0.0,0.0,0.0,0.0,0.0,0.0,0.0,0.0,0.0,0.0,0.0,0.0,0.0,0.0,0.0,0.0,0.0,0.0,4.4772,4.4668,4.4668,4.4668,4.4668,4.4668,4.4668,4.4668,4.4668,4.4668,4.4668,4.4668,4.4668,4.4668,4.4668,4.4668,4.4668,4.4668,4.4668,4.4668,4.4668,4.4668,4.4668,4.4668,4.4668,4.4668,4.4668,4.4668,4.5218,4.5924,4.3415,4.3101,4.2866,4.2552,4.2526,4.2631,4.2971,4.3023,4.3337,0.0,0.0,0.0,4.7675,4.8198,4.8277,4.7937,4.7911,4.7911,4.7911,4.7466,4.7179,4.7179,4.6734,4.6708,4.7179,4.7283,4.7571,4.8068,4.7806,4.7989,4.8564,4.8564,4.9348,5.0786,5.0864,5.1335,5.2067,5.1178,5.1805,5.3321,5.2537,5.2981,5.3975,5.2694,5.2563,5.2981,0.0,0.0,5.2145,5.1675,5.0629,0.0,0.0,4.7414,4.6473,4.6473,4.6473,4.6473,4.6473,4.6238,4.5924,4.5689,0.0,0.0,4.4774,4.4955,4.519,0.0,0.0,0.0,0.0,0.0,0.0,0.0,0.0,0.0,0.0,0.0,0.0,0.0,0.0,0.0,0.0,0.0,0.0,0.0,4.4668,4.4668,4.4668,4.4668,4.4668,4.4668,4.4668,4.4668,4.4668,4.4668,4.4668,4.4668,4.4668,4.4668,4.4668,4.4668,4.4668,4.4668,4.4668,4.4668,4.4668,4.4668,4.4668,4.4668,4.4668,4.4668,4.4748,4.5009,4.5323,4.5741,0.0,4.3912,4.3729,4.3284,4.3206,4.3284,4.3467,4.3493,4.3729,0.0,4.5924,4.7728,4.9766,5.0054,5.0054,5.0002,4.9923,4.9897,4.9897,4.893,4.8381,4.8381,4.7414,4.7336,4.8355,4.7885,4.812,4.9165,4.8643,4.8643,4.9165,4.9165,4.974,5.076,5.0237,5.0551,5.1492,5.1204,5.1936,5.3347,5.3896,5.4576,5.5229,5.455,5.468,5.5125,5.4576,5.4367,5.4131,5.2903,5.1073,0.0,0.0,0.0,0.0,0.0,4.6656,4.6656,4.6656,4.663,4.6447,4.595,4.5712,0.0,4.4957,4.4826,4.4746,0.0,0.0,0.0,0.0,0.0,0.0,0.0,0.0,0.0,0.0,0.0,0.0,0.0,0.0,0.0,0.0,0.0,4.4668,4.4668,4.4668,4.4668,4.4668,4.4668,4.4668,4.4668,4.4668,4.4668,4.4668,4.4668,4.4668,4.4668,4.4668,4.4668,4.4668,4.4668,4.4668,4.4668,4.4668,4.4668,4.4668,4.4668,4.4668,4.4694,4.4746,4.4746,4.4746,4.5401,4.5584,4.5634,4.4591,4.4199,4.399,4.433,4.4408,4.4905,4.6264,4.6443,4.6865,4.7937,4.9165,5.0106,5.0577,5.0995,5.1073,5.0655,5.0159,4.9897,4.9897,4.9688,4.9557,4.9557,4.9348,4.9322,4.9557,4.9453,4.9505,4.974,4.961,4.961,4.974,4.974,5.0106,5.0786,5.0655,5.0734,5.1021,5.2328,5.2798,5.272,5.3321,5.4733,5.6353,5.5334,5.5282,5.5726,5.5621,5.5308,5.468,5.3034,5.1596,5.0342,0.0,0.0,0.0,4.7989,0.0,0.0,0.0,0.0,0.0,0.0,0.0,0.0,4.5584,4.5399,4.5323,0.0,0.0,0.0,0.0,0.0,0.0,0.0,0.0,0.0,0.0,0.0,0.0,0.0,0.0,0.0,0.0,0.0,4.4668,4.4668,4.4668,4.4668,4.4668,4.4668,4.4668,4.4668,4.4668,4.4668,4.4668,4.4668,4.4668,4.4668,4.4668,4.4668,4.4668,4.4668,4.4668,4.4668,4.4668,4.4668,4.4668,4.4668,4.4668,4.4774,4.5216,4.5111,4.4746,4.5401,4.5268,4.5062,4.4746,4.4487,4.4487,4.5062,4.5428,4.6003,4.7153,4.7571,4.8068,4.8956,5.0315,5.1309,5.1622,5.1884,5.1805,5.123,5.0917,5.0734,5.0734,5.0498,5.0342,5.0342,5.0054,5.0028,5.0342,5.0054,5.0028,5.0342,5.0028,5.0054,5.0342,5.0342,5.0655,5.1178,5.0917,5.0943,5.1256,5.2119,5.2668,5.3008,5.3896,5.5282,5.6693,5.5543,5.5621,5.6275,5.5726,5.5125,5.4471,5.3321,5.2354,0.0,0.0,5.0159,4.9766,0.0,4.8826,4.8982,0.0,0.0,0.0,4.8277,0.0,0.0,0.0,4.5973,4.5477,0.0,0.0,0.0,0.0,0.0,0.0,0.0,0.0,0.0,0.0,0.0,0.0,0.0,0.0,0.0,0.0,0.0,4.4668,4.4668,4.4668,4.4668,4.4668,4.4668,4.4668,4.4668,4.4668,4.4668,4.4668,4.4668,4.4668,4.4668,4.4668,4.4824,4.5111,4.5111,4.5323,4.5584,4.5297,4.5349,4.5584,4.5297,4.5349,4.5611,4.5611,4.5611,4.5663,4.6264,4.6107,4.5767,4.4853,4.4668,4.4957,4.5663,4.6264,4.6917,4.7702,4.8303,4.8982,4.9793,5.11,5.2223,5.2929,5.2798,5.2642,5.2616,5.2093,5.191,5.225,5.1544,5.1073,5.0943,5.0472,5.0446,5.0943,5.0472,5.0446,5.0943,5.0446,5.0472,5.0943,5.0943,5.1178,5.157,5.1256,5.1361,5.1779,5.2014,5.2668,5.3635,5.468,5.5647,5.6379,5.5569,5.583,5.651,5.5595,5.4863,5.4288,5.3739,5.3164,5.2485,5.1439,5.1047,0.0,0.0,0.0,0.0,0.0,0.0,0.0,0.0,0.0,4.8486,0.0,0.0,0.0,0.0,0.0,0.0,0.0,0.0,0.0,0.0,0.0,0.0,0.0,0.0,0.0,0.0,0.0,0.0,0.0,0.0,4.4668,4.4668,4.4668,4.4668,4.4668,4.4668,4.4668,4.4668,4.4668,4.4668,4.4668,4.4668,4.4668,4.4668,4.4853,4.5111,4.5581,4.5741,4.6055,4.6447,4.5976,4.6055,4.6447,4.5976,4.6133,4.6604,4.6133,4.6159,4.6552,4.7127,4.697,4.663,4.4853,4.4668,4.5088,4.6186,4.6865,4.778,4.9348,5.0106,5.1073,5.2694,5.3086,5.3609,5.468,5.3896,5.4079,5.604,5.387,5.306,5.4602,5.3191,5.2067,5.1518,5.1439,5.1439,5.1518,5.1439,5.1439,5.1518,5.1439,5.1439,5.1518,5.1518,5.1544,5.1622,5.2093,5.2328,5.2459,5.3478,5.3975,5.4158,5.4837,5.5177,0.0,5.5674,5.5909,5.5987,5.5857,5.5465,5.4916,0.0,5.3739,5.3191,0.0,5.1936,5.1387,5.076,0.0,0.0,0.0,0.0,0.0,0.0,5.0159,0.0,0.0,0.0,0.0,0.0,0.0,0.0,0.0,0.0,0.0,0.0,0.0,0.0,0.0,0.0,0.0,0.0,0.0,0.0,0.0,0.0,0.0,4.4668,4.4668,4.4668,4.4668,4.4668,4.4668,4.4668,4.4668,4.4668,4.4668,4.4668,4.4668,4.4694,4.5216,4.5503,4.5637,4.6159,4.6421,4.6473,4.6421,4.6421,4.6473,4.6421,4.6708,4.7174,4.7096,4.6865,4.6552,4.7127,4.697,4.6578,4.4853,4.5009,4.5506,4.6342,4.7231,4.8303,4.9688,5.1831,5.3321,5.34,5.455,5.5569,5.604,5.5674,5.5621,5.6223,5.5177,5.4367,0.0,5.3426,5.2903,5.2642,5.2642,5.2485,5.2119,5.2119,5.1936,5.1596,5.1596,5.1596,5.1596,5.1962,5.2119,5.2145,5.2746,5.3008,5.3086,5.4236,5.4524,5.4288,5.5203,5.5569,0.0,5.583,5.5909,5.5909,5.5909,5.5569,5.502,0.0,5.4288,0.0,0.0,0.0,0.0,0.0,0.0,0.0,0.0,0.0,0.0,0.0,0.0,0.0,4.9871,0.0,4.7989,0.0,0.0,0.0,0.0,0.0,0.0,0.0,0.0,0.0,0.0,0.0,0.0,0.0,0.0,0.0,0.0,0.0,0.0,0.0,0.0,4.4668,4.4668,4.4668,4.4668,4.4668,4.4668,4.4668,4.4668,4.4668,4.485,4.5245,4.5451,4.5921,4.663,4.6865,4.7153,4.744,4.7127,4.7153,4.744,4.71,4.731,4.7832,4.7832,4.7675,4.755,4.7985,4.799,4.7806,4.5271,4.5428,4.5872,4.6578,4.7519,4.8669,5.0132,5.2642,5.421,5.3687,5.5203,5.6588,5.7216,5.7268,5.7477,5.8,5.7451,5.651,0.0,0.0,5.4053,5.3426,5.34,5.3191,5.2746,5.2746,5.2537,5.2093,5.2093,5.2093,5.2093,5.2537,5.2746,5.2772,5.3687,5.4001,5.3949,5.5255,5.5465,5.4994,5.583,5.6249,5.6353,5.604,5.5909,5.5883,5.5726,5.5438,5.5046,5.4602,5.4733,0.0,5.3609,0.0,0.0,0.0,0.0,0.0,5.191,0.0,0.0,0.0,0.0,0.0,0.0,0.0,0.0,0.0,0.0,0.0,0.0,0.0,0.0,4.5872,0.0,0.0,0.0,0.0,0.0,0.0,0.0,0.0,0.0,0.0,0.0,0.0,4.4668,0.0,4.4668,4.4668,4.4668,4.4668,4.4668,4.4668,4.4668,4.4824,4.5192,4.5581,4.595,4.6469,4.7278,4.7492,4.7806,4.8172,4.7754,4.7806,4.8146,4.7728,4.7806,4.8172,4.8172,4.8172,4.8257,4.8548,4.8663,4.8721,4.6316,4.6003,4.5921,4.7043,4.778,4.8956,5.1204,5.2145,5.2955,5.4027,5.4759,5.5987,5.8209,5.847,5.9803,6.3149,6.1372,5.983,5.9274,0.0,5.5726,0.0,0.0,5.34,0.0,5.3373,5.3347,5.3347,5.3347,5.3347,5.3347,5.3347,5.3373,5.3452,5.5099,5.5543,5.5151,5.685,5.7242,5.6719,5.6771,5.7111,5.7547,0.0,5.5909,5.583,5.5308,0.0,0.0,5.5072,5.5072,0.0,0.0,0.0,0.0,0.0,0.0,0.0,0.0,0.0,0.0,5.2459,0.0,0.0,0.0,0.0,5.0394,0.0,0.0,0.0,0.0,0.0,4.6447,4.6447,4.5976,0.0,0.0,0.0,0.0,0.0,0.0,0.0,0.0,0.0,0.0,4.4668,4.4668,4.4668,4.4668,4.4668,4.4668,4.4668,4.4668,4.4668,4.4668,4.5297,4.5555,4.5637,4.6704,4.7226,4.7304,4.7911,4.8172,4.8172,4.8172,4.8172,4.8172,4.8172,4.8172,4.8172,4.8172,4.8172,4.8257,4.8548,4.8663,4.8721,4.7492,4.778,4.778,4.733,4.8146,4.9427,5.1309,5.34,5.5308,5.685,5.8575,6.0797,6.3855,6.4534,6.4953,0.0,0.0,6.3175,6.0692,5.962,0.0,0.0,0.0,5.5491,0.0,0.0,5.4158,5.34,5.34,5.34,5.34,5.3766,5.3922,5.4001,5.5308,5.5595,5.5229,5.7346,5.7451,5.6275,0.0,5.7948,5.8627,0.0,0.0,5.6432,5.5857,5.5412,0.0,5.5099,5.5099,5.502,5.4628,5.4524,5.4445,5.4053,5.3635,0.0,0.0,0.0,5.3008,5.2589,0.0,0.0,0.0,0.0,0.0,0.0,0.0,0.0,0.0,4.8015,4.7492,4.71,4.6238,4.5581,0.0,0.0,0.0,0.0,0.0,0.0,0.0,0.0,0.0,4.4668,4.4668,4.4668,0.0,4.4668,4.4668,4.4668,4.4668,4.4668,4.4668,4.5323,4.582,4.6212,4.697,4.7545,4.7911,4.8094,4.8172,4.8172,4.8172,4.8172,4.8172,4.8172,4.8172,4.8172,4.8172,4.8172,4.8257,4.8779,4.8952,4.901,4.8695,4.8956,4.8852,4.8094,4.893,5.0211,5.1675,5.4707,5.7373,5.8915,6.1502,6.4351,6.7383,0.0,6.8168,0.0,6.7619,6.5946,6.226,6.1842,0.0,5.8366,5.7939,0.0,0.0,0.0,0.0,0.0,5.4419,5.4393,5.4001,5.4367,5.4524,5.4576,5.5935,5.6118,5.5517,5.7634,5.7869,0.0,0.0,5.8575,0.0,0.0,5.7242,5.7294,0.0,5.5569,5.5099,5.5099,5.5099,5.502,5.4654,5.4654,5.4707,5.4314,5.4053,5.3949,5.4158,5.3818,0.0,5.3138,5.2955,0.0,5.2067,0.0,0.0,0.0,0.0,0.0,0.0,0.0,4.8303,4.7728,4.6839,4.6025,0.0,4.5581,0.0,0.0,0.0,0.0,0.0,0.0,4.4668,4.4668,4.4668,4.4668,0.0,0.0,4.4668,4.4668,4.4668,4.4826,4.5036,4.5637,4.6212,4.6787,4.7362,4.7832,4.8172,4.8172,4.8303,4.8486,4.8277,4.8303,4.8486,4.8277,4.8172,4.8172,4.8172,4.8172,4.8257,4.8895,4.924,4.9469,4.9845,4.9531,4.9218,4.9296,5.0211,5.1309,5.2459,5.6013,5.9019,6.03,6.3489,6.6547,6.8899,6.9103,6.9657,7.0729,7.0259,6.8246,6.4325,6.4482,0.0,0.0,5.8549,5.7939,5.7782,0.0,0.0,0.0,5.6275,5.6223,5.5229,5.5151,5.5099,5.5177,5.6876,5.6981,5.5987,5.7765,5.8523,5.8549,5.9098,5.9045,5.8523,5.7921,5.8052,5.8314,5.6536,5.5569,5.5151,5.5125,5.5099,5.5099,5.5099,5.4707,5.4236,5.4236,5.387,5.3583,5.4105,5.387,5.3583,5.4079,0.0,0.0,0.0,0.0,5.2328,0.0,0.0,0.0,0.0,0.0,0.0,4.825,4.7675,4.6861,4.582,0.0,0.0,0.0,0.0,0.0,0.0,4.4668,4.4668,4.4668,4.4668,4.4668,0.0,0.0,0.0,4.4668,4.4668,4.5009,4.5555,4.6186,4.6761,4.7278,4.7911,4.8198,4.8224,4.8224,4.8564,4.9087,4.8512,4.859,4.9035,4.846,4.8224,4.8172,4.8172,4.8172,4.8315,4.8895,4.9469,4.9953,5.0603,5.076,5.123,5.2119,5.2537,5.3112,5.4262,5.7111,6.0326,6.362,6.7096,7.0311,7.3055,7.4101,7.4388,7.3839,7.3238,0.0,0.0,0.0,0.0,6.3332,6.2522,6.0927,5.834,5.8575,0.0,5.7634,0.0,5.6432,5.6981,5.57,5.5099,5.5151,5.6458,5.6379,5.5465,5.7608,5.8523,5.8523,5.8679,5.915,0.0,0.0,5.8653,5.8862,5.6693,5.583,5.5647,5.5229,5.5099,5.5099,5.5099,5.4994,5.4863,5.4863,5.4759,5.4707,5.4837,5.4759,5.4602,5.4288,5.4105,5.3844,0.0,0.0,0.0,0.0,0.0,0.0,0.0,0.0,0.0,4.778,4.7074,4.6604,0.0,0.0,0.0,0.0,0.0,0.0,0.0,4.4668,4.4668,4.4668,4.4668,4.4668,0.0,0.0,0.0,4.4668,4.4668,4.5009,4.5555,4.6186,4.6761,4.7278,4.7911,4.8407,4.8852,4.8852,4.9165,4.9688,4.9531,4.9322,4.9087,4.8904,4.859,4.8172,4.8172,4.8373,4.8606,4.8952,4.9354,4.9727,5.1648,5.2798,5.3922,5.4105,5.5804,5.7033,5.6641,5.8392,0.0,6.4874,6.8638,0.0,7.3552,7.5251,7.6061,7.5695,7.465,0.0,7.1513,0.0,0.0,6.5763,6.4639,6.2914,6.0457,5.9725,0.0,5.8131,0.0,5.6249,5.685,5.5386,5.4863,5.5177,5.6562,5.6693,5.5961,5.7765,5.8366,5.8131,5.8131,0.0,0.0,5.8,5.7974,5.8052,5.6484,5.5909,5.583,5.5282,5.5099,5.5099,5.5099,5.5099,5.5099,5.5099,5.5099,5.5099,5.5099,5.5099,5.502,5.468,5.4602,5.4445,5.387,5.3295,5.2825,0.0,0.0,0.0,0.0,0.0,0.0,4.7937,4.744,0.0,0.0,0.0,0.0,0.0,0.0,0.0,0.0,4.4824,4.4668,4.4668,4.4668,0.0,0.0,0.0,0.0,4.4668,4.5218,4.5663,4.6003,4.6813,4.7519,4.8094,4.8433,4.8878,4.9427,4.9427,4.974,5.0263,5.0002,4.9714,4.9427,4.9191,4.8721,4.8172,4.8373,4.8431,4.8548,4.9125,4.9469,4.9613,5.2825,5.4916,5.6458,5.5386,5.8836,0.0,0.0,6.0588,0.0,6.5867,0.0,7.2402,7.2925,7.4807,7.6244,7.6688,0.0,7.3683,7.2062,7.1696,7.0337,6.7671,6.5815,6.4273,6.2966,6.0744,0.0,0.0,0.0,5.595,5.6055,5.4918,5.4629,5.5113,5.6762,5.7233,5.6771,5.7843,5.7948,5.7425,5.7529,5.7294,5.6928,5.6928,5.6928,5.685,5.6249,5.5987,5.583,5.5282,5.5099,5.5099,5.5099,5.5099,5.5099,5.5099,5.5099,5.5099,5.5099,5.5099,5.5099,5.5099,5.5099,5.4968,5.4445,5.3844,5.3243,5.272,5.2067,5.1439,0.0,0.0,0.0,0.0,0.0,0.0,0.0,0.0,0.0,0.0,0.0,0.0,0.0,0.0,0.0,4.4668,4.4668,0.0,0.0,0.0,0.0,0.0,4.5846,0.0,4.6578,0.0,4.846,4.9191,4.9113,4.9401,5.0002,5.0002,5.0342,5.0864,5.0263,5.0002,4.9949,4.9348,4.8721,4.8257,4.8626,4.8568,4.8373,4.927,4.9613,4.9613,5.3922,5.5465,5.6588,5.5883,5.8418,6.1346,6.3803,6.6364,6.8769,7.0807,7.4179,7.6453,7.6558,7.7342,7.7708,7.7342,7.661,0.0,0.0,0.0,0.0,7.0049,6.7828,6.5658,6.3567,6.1738,6.0483,0.0,0.0,5.6103,5.6999,5.5631,5.4916,5.484,5.6144,5.6442,5.6118,5.6798,0.0,5.6249,5.6771,5.719,5.7503,5.7503,5.7503,5.7425,5.685,5.6327,5.583,5.5282,5.5099,5.5099,5.5099,5.5099,5.5099,5.5099,5.5099,5.5099,5.5099,5.5099,5.5099,5.5099,5.5099,5.5072,5.4968,5.4131,5.3373,5.3269,5.2354,5.1439,5.089,0.0,0.0,0.0,0.0,0.0,0.0,0.0,0.0,0.0,0.0,0.0,0.0,0.0,0.0,0.0,0.0,0.0,0.0,0.0,0.0,0.0,0.0,0.0,0.0,0.0,0.0,4.974,4.9296,4.9636,5.0629,5.0629,5.0943,5.1413,5.0864,5.0629,5.0551,4.9505,4.8721,4.8283,4.9074,4.9027,4.8663,4.9354,4.9613,4.9613,5.6771,5.7556,5.8418,5.9333,0.0,0.0,0.0,7.1226,7.2925,7.1958,7.3813,7.5329,7.5643,7.7263,7.8335,7.8361,7.729,7.6349,7.5748,7.3839,7.2088,7.0651,6.8638,0.0,6.4613,6.1999,6.0509,6.0222,0.0,5.5736,5.6777,5.543,5.4671,5.4505,5.5565,5.6483,0.0,0.0,0.0,5.6353,5.604,5.6092,5.6327,5.6327,5.6327,5.6301,5.6013,5.5726,5.5465,5.5203,5.5099,5.5099,5.5099,5.5099,5.5099,5.5099,5.5099,5.5099,5.5099,5.5099,5.5099,5.5099,5.5099,5.5099,5.5099,5.4445,5.3739,5.3452,5.2929,5.2354,5.1779,5.0969,0.0,0.0,0.0,0.0,0.0,0.0,0.0,0.0,0.0,0.0,0.0,0.0,0.0,0.0,0.0,0.0,0.0,0.0,0.0,0.0,0.0,0.0,0.0,0.0,0.0,5.0342,4.9766,5.0106,5.1204,5.1204,5.1361,5.157,5.1309,5.0864,5.0263,4.9427,4.9206,4.941,4.997,4.9849,4.9462,5.0071,4.9996,4.9613,5.9542,6.0117,6.1084,0.0,6.5867,0.0,7.12,7.4336,7.5565,7.3186,7.3761,7.4571,7.5042,7.7133,7.8544,7.8623,7.7394,7.6192,7.5225,7.3761,7.2245,7.0677,6.8926,6.7227,6.5606,6.2182,6.0274,0.0,0.0,0.0,5.6146,5.5161,5.4613,5.4645,0.0,0.0,0.0,0.0,5.6118,5.6379,5.5595,5.5282,5.5282,5.5412,5.5386,5.5282,5.5282,5.5203,5.5099,5.5099,5.5099,5.5099,5.5099,5.5099,5.5099,5.5099,5.5099,5.5099,5.5099,5.5099,5.5099,5.5099,5.5099,5.5099,5.5099,5.4628,5.4079,5.3661,5.3478,5.3243,5.2772,5.2302,0.0,0.0,0.0,0.0,0.0,0.0,0.0,0.0,0.0,0.0,0.0,0.0,0.0,0.0,0.0,4.5689,4.5794,4.5689,0.0,0.0,0.0,4.7492,4.8172,0.0,4.9584,0.0,5.0237,5.0498,5.1596,5.1596,5.1596,5.1596,5.1465,5.0838,4.9871,4.9617,4.9876,5.0345,5.0871,5.0697,5.0281,5.0702,5.0492,4.9916,0.0,0.0,0.0,0.0,0.0,0.0,7.201,7.4258,7.6244,7.7499,7.8204,7.8623,7.8675,7.8936,7.8492,7.6976,7.6715,7.5695,7.35,7.2742,7.1853,7.0651,6.8926,6.7436,6.6233,6.2809,6.0509,0.0,0.0,0.0,0.0,5.5537,5.5595,0.0,0.0,0.0,0.0,5.5778,5.5647,5.5308,5.5674,5.583,5.5883,5.6432,5.6301,5.583,5.583,5.5517,5.5099,5.5099,5.5099,5.5099,5.5099,5.5099,5.5099,5.5099,5.5099,5.5099,5.5099,5.5099,5.5099,5.5099,5.5099,5.5099,5.5099,5.4628,5.4184,5.4131,5.3739,5.3373,5.3321,5.3269,5.3034,0.0,0.0,0.0,0.0,0.0,0.0,0.0,0.0,0.0,0.0,0.0,0.0,0.0,0.0,4.5846,4.6369,4.5924,4.5898,4.6447,0.0,4.7074,4.8172,4.825,0.0,5.1518,5.042,5.0498,5.1596,5.1596,5.1596,5.157,5.1073,5.0498,4.9984,5.0725,5.0585,5.007,5.1202,5.1283,5.0842,5.0864,5.0851,5.0685,0.0,0.0,0.0,0.0,0.0,0.0,0.0,7.6166,7.7263,7.8649,7.8727,7.8779,7.9119,7.8858,7.8387,7.7708,7.6662,7.5382,7.3761,7.2454,7.1095,6.9605,6.8194,6.6913,6.5763,6.3045,6.1058,0.0,0.0,0.0,0.0,0.0,0.0,0.0,0.0,5.501,5.5569,5.5465,5.57,5.6118,5.5961,5.5909,5.5909,5.583,5.5621,5.5412,5.5412,5.5282,5.5099,5.5099,5.5099,5.5099,5.5099,5.5099,5.5099,5.5099,5.5099,5.5099,5.5099,5.5099,5.5099,5.5099,5.5099,5.5099,5.5099,5.4916,5.455,5.387,5.3556,5.3609,5.4288,5.4131,5.3792,0.0,0.0,0.0,0.0,0.0,0.0,0.0,0.0,0.0,0.0,0.0,0.0,0.0,0.0,0.0,4.697,4.6787,0.0,4.8015,0.0,4.7885,4.974,4.9061,4.9688,5.1596,5.0812,5.0838,5.1596,5.1596,5.1596,5.157,5.1268,5.0935,5.0751,5.1292,5.1421,5.1356,5.2211,5.2346,5.1961,5.1954,5.1774,5.1367,6.6861,0.0,6.7671,0.0,7.167,7.2716,7.6401,7.7107,7.7551,7.8544,7.8178,7.81,7.8832,7.857,7.8048,7.7368,7.6192,7.4833,7.3343,7.2088,7.0703,6.9161,6.7985,0.0,6.5894,6.3646,6.1999,6.098,5.9528,0.0,0.0,0.0,0.0,0.0,5.4169,5.4721,5.5647,5.5438,5.5726,5.6301,5.6196,5.5961,5.5647,5.5412,5.5229,5.5099,5.5099,5.5099,5.5099,5.5099,5.5099,5.5099,5.5099,5.5099,5.5099,5.5099,5.5099,5.5099,5.5099,5.5099,5.5099,5.5099,5.5099,5.5099,5.5099,5.5099,5.4863,5.4053,5.3896,5.4079,5.4733,5.4628,5.4367,5.4027,0.0,0.0,0.0,0.0,0.0,0.0,4.8669,4.7911,4.8068,0.0,0.0,0.0,0.0,0.0,0.0,0.0,0.0,0.0,0.0,0.0,0.0,4.9557,4.9923,5.1596,5.1047,5.1073,5.1596,5.1596,5.1596,5.157,5.1391,5.1355,5.1487,5.1721,5.1964,5.2393,5.2883,5.2985,5.2848,5.2718,5.2452,5.1991,6.8481,7.0154,7.1696,7.2872,7.4493,7.5669,7.5721,7.6244,7.6819,7.7394,7.7002,7.7081,7.8204,7.8309,7.742,7.5146,7.4937,7.3918,7.1592,7.1409,7.0886,0.0,0.0,6.7697,6.707,6.4822,6.3384,6.2783,0.0,0.0,5.8138,0.0,5.5405,5.5072,5.5072,5.5099,5.5151,5.5674,5.5595,5.5229,5.6353,5.6118,5.5177,5.57,5.5569,5.5099,5.5099,5.5099,5.5099,5.5099,5.5099,5.5099,5.5099,5.5099,5.5099,5.5099,5.5099,5.5099,5.5099,5.5099,5.5099,5.5099,5.5099,5.5099,5.5099,5.5099,5.5099,5.5072,5.5072,5.4916,5.4314,5.4707,5.4733,5.3583,0.0,0.0,0.0,0.0,0.0,0.0,4.9401,4.927,4.9819,0.0,0.0,0.0,0.0,0.0,0.0,0.0,0.0,4.8198,4.8172,0.0,4.9897,4.9348,4.9923,5.1596,5.1047,5.1073,5.1596,5.1596,5.1596,5.157,5.1329,5.1531,5.2068,5.1793,5.2056,5.265,5.2983,5.3105,5.3025,5.2821,5.2723,5.2615,7.0415,7.1644,7.2925,7.4127,7.4807,7.5434,7.6218,7.6479,7.6819,7.7394,7.7316,7.7185,7.7159,7.6793,7.6427,0.0,7.499,7.3787,0.0,7.1487,7.0337,6.9161,6.8011,6.7305,6.7096,6.524,6.3985,6.341,0.0,0.0,0.0,5.8428,5.7377,5.6275,5.6667,5.685,5.6876,5.7451,5.7582,5.7425,5.7399,5.6928,5.6249,5.5987,5.5704,5.5432,5.5165,5.5232,5.5432,5.5165,5.5232,5.5432,5.5165,5.5099,5.5099,5.5099,5.5099,5.5099,5.5099,5.5099,5.5099,5.5099,5.5099,5.5099,5.5099,5.4785,5.4497,5.4497,5.421,5.4001,5.4158,5.4053,5.3949,5.3949,0.0,0.0,0.0,0.0,0.0,0.0,0.0,4.9557,0.0,4.9008,0.0,0.0,0.0,0.0,0.0,0.0,0.0,0.0,4.8982,0.0,5.1047,5.0106,5.0289,5.1596,5.1413,5.1413,5.1596,5.1596,5.1596,5.1596,5.1724,5.1848,5.1846,5.2425,5.2641,5.2722,5.3248,5.341,5.3443,5.3314,5.332,5.3239,7.1304,7.2506,7.3604,7.4127,7.478,7.5382,7.5904,7.614,7.6401,7.6767,7.6636,7.6375,7.6009,7.5225,0.0,7.5904,7.4388,7.3212,7.282,7.12,6.9945,6.9187,6.7854,6.7096,6.7096,0.0,0.0,6.4325,6.3562,6.2005,5.9691,5.935,5.8551,5.7451,5.7817,5.7869,5.7756,5.8261,5.8261,5.7869,5.7712,5.732,5.6745,5.6144,5.5902,5.5921,5.5444,5.5472,5.5736,5.5432,5.5472,5.5736,5.5432,5.5299,5.5232,5.5165,5.5099,5.5099,5.5099,5.5099,5.5099,5.5099,5.5165,5.5299,5.5299,5.4877,5.455,5.455,5.4171,5.387,5.387,5.3803,5.367,5.3307,5.2926,5.2533,5.2197,0.0,0.0,0.0,0.0,0.0,0.0,4.9845,0.0,0.0,0.0,0.0,0.0,0.0,0.0,4.9871,4.9793,0.0,5.1282,5.0577,5.0681,5.1596,5.1596,5.1596,5.1596,5.1596,5.1596,5.1596,5.1783,5.1909,5.1899,5.2639,5.289,5.2896,5.3396,5.3592,5.3565,5.3347,5.3402,5.3483,7.1409,7.2925,0.0,0.0,7.4624,0.0,7.5042,7.5355,7.5669,7.5695,7.5172,7.4807,7.4833,7.3735,7.3447,7.4624,0.0,0.0,0.0,7.0651,6.9684,6.9684,6.8011,6.7096,6.7148,6.5998,6.5371,6.5318,6.3724,6.179,5.9594,5.9588,5.9274,5.8706,5.8653,5.834,5.7869,5.8444,5.8026,5.7033,5.7556,5.7399,5.6798,5.6196,5.6232,5.6463,5.5882,5.5868,5.6066,5.5736,5.5868,5.6066,5.5736,5.567,5.5604,5.5299,5.5165,5.5099,5.5099,5.5165,5.5165,5.5099,5.5365,5.5604,5.5604,5.5313,5.5087,5.4994,5.4814,5.4392,5.349,5.381,5.3668,5.2019,5.2408,5.2602,5.18,0.0,0.0,0.0,0.0,0.0,0.0,5.11,5.0551,0.0,0.0,0.0,0.0,0.0,4.9949,4.9949,5.0498,5.0812,5.0838,5.0812,5.1073,5.1596,5.1596,5.1596,5.1596,5.1596,5.1596,5.1596,5.1596,5.1783,5.2121,5.2465,5.2799,5.3132,5.347,5.3592,5.3537,5.2968,5.313,5.3429,0.0,0.0,7.5251,7.512,7.5434,7.5669,7.5538,7.5277,7.5251,7.5669,7.4441,7.3709,7.4179,7.2768,7.2114,7.2846,7.2114,7.1618,7.1618,7.0415,6.9684,6.9684,6.8011,6.7305,6.7775,6.6207,6.5162,6.4743,6.4636,6.3717,6.1999,6.1406,6.0907,6.0483,6.0013,5.9751,5.9647,6.0248,5.983,5.8784,5.8915,5.8366,5.7468,5.7072,5.6912,5.6771,5.6186,5.6263,5.6459,5.6132,5.6263,5.6459,5.6132,5.6197,5.6328,5.6,5.567,5.5472,5.5472,5.567,5.5736,5.5232,5.5365,5.5604,5.5604,5.5392,5.4878,5.4027,5.4179,5.4209,5.3245,5.3203,5.3223,5.3084,5.2391,5.2003,5.2306,0.0,0.0,0.0,5.1996,5.1872,5.1596,5.11,5.0734,0.0,0.0,0.0,0.0,0.0,5.0577,5.0577,5.0707,5.0995,5.1413,5.0995,5.1073,5.1596,5.1596,5.1596,5.1596,5.1596,5.1596,5.1596,5.1596,5.1783,5.2121,5.2465,5.2799,5.3132,5.347,5.3592,5.3565,5.3429,5.3483,5.3565,7.2271,7.35,7.4519,7.4519,7.499,7.5355,7.5355,7.5094,7.4911,7.4937,7.3866,7.3029,7.2846,7.1958,7.133,7.1121,7.0807,7.0729,7.1017,6.971,6.8926,6.8926,6.7514,6.6887,6.72,6.6024,6.5109,6.4534,6.5031,6.4636,6.3507,6.3103,6.2729,6.2365,6.1785,6.1363,6.1152,6.1205,6.0836,6.0275,5.956,5.9042,5.8719,5.7989,5.7577,5.7304,5.6916,5.6804,5.6904,5.6754,5.6804,5.6904,5.6754,5.6739,5.6682,5.6655,5.6263,5.5802,5.5802,5.5934,5.6066,5.5895,5.5802,5.5868,5.6066,5.5761,5.5246,5.4733,5.449,5.4203,5.3757,5.3441,5.3219,5.3095,5.2642,5.2342,5.2588,5.243,0.0,5.2677,5.2465,5.235,5.249,5.1803,5.1294,5.1031,0.0,0.0,5.076,5.0786,5.0786,5.0786,5.1021,5.1178,5.123,5.1178,5.1309,5.1596,5.1596,5.1596,5.1596,5.1596,5.1596,5.1596,5.1596,5.1721,5.1934,5.2404,5.2738,5.2922,5.341,5.3592,5.3565,5.3293,5.3375,5.351,7.1513,7.2376,7.3134,7.3238,7.4179,7.4885,7.478,7.4702,7.4441,7.3944,7.3134,7.2245,7.1382,7.1121,7.0651,6.9788,6.9631,6.9788,7.0285,6.8873,6.7985,6.7985,6.6887,6.6286,6.6286,6.5684,6.5057,6.4404,6.5136,6.5057,6.4128,6.4231,6.4194,6.3964,6.3298,6.2792,6.2392,6.1859,6.154,6.13,5.996,5.9607,5.9837,5.8752,5.8164,5.7851,5.7664,5.7401,5.7217,5.7524,5.7455,5.7353,5.7551,5.7258,5.692,5.7136,5.6785,5.6263,5.6197,5.6132,5.6197,5.6655,5.6459,5.6263,5.659,5.6209,5.5736,5.5933,5.5184,5.4474,5.45,5.4055,5.3484,5.2968,5.2976,5.2983,5.2773,0.0,5.2863,5.337,5.2997,5.2863,5.3334,5.266,5.1971,5.1557,5.1224,0.0,0.0,5.104,5.0978,5.0978,5.1423,5.1361,5.0917,5.1361,5.1596,5.1596,5.1596,5.1596,5.1596,5.1659,5.1659,5.1659,5.1659,5.1721,5.1783,5.2342,5.2588,5.2738,5.3349,5.3592,5.3537,5.3022,5.3158,5.3456,7.1958,7.2663,7.3264,7.3787,7.4441,7.4728,7.4232,7.3709,7.3343,7.3264,7.1487,7.0337,7.0677,6.984,6.937,6.9657,6.9239,6.9004,6.9108,6.8403,6.7985,6.7985,6.6887,6.6286,6.6286,6.5684,6.4874,6.3803,6.5188,6.5106,6.3548,6.3898,6.3995,6.3937,6.2898,6.2632,6.2978,6.2898,6.2285,6.1353,6.1122,6.051,5.9631,5.9284,5.8805,5.8282,5.8088,5.7689,5.7282,5.7787,5.8015,5.796,5.7976,5.7922,5.7759,5.7336,5.7109,5.6979,5.6655,5.6328,5.6263,5.6915,5.685,5.659,5.6682,5.6407,5.6057,5.5515,5.53,5.5159,5.488,5.4315,5.3982,5.4167,5.3367,5.2861,5.3349,0.0,5.3037,5.3117,5.3064,5.2976,5.2722,5.2607,5.25,5.242,5.2332,5.2332,5.2332,5.2051,5.1927,5.1927,5.1669,5.157,5.1465,5.1544,5.1596,5.1596,5.1596,5.1596,5.1596,5.1872,5.1996,5.1996,5.1996,5.2183,5.2465,5.2527,5.2799,5.3044,5.347,5.3592,5.3592,5.3483,5.351,5.3565,7.1278,7.1827,7.2376,7.2977,7.3552,7.3839,7.3578,7.3291,7.2872,7.2271,7.1017,7.0154,7.0128,6.9919,6.9631,6.9265,6.9291,6.8899,6.7958,6.7645,6.7514,6.7514,6.6416,6.5789,6.5789,6.5214,6.4508,6.3672,6.4691,6.474,6.3864,6.3774,6.4075,6.4718,6.3319,6.3043,6.37,6.3377,6.318,6.2884,6.1729,6.1077,6.0854,6.0054,5.9424,5.8833,5.8642,5.8178,5.7743,5.8367,5.834,5.8189,5.8449,5.834,5.796,5.7363,5.7174,5.7174,5.7006,5.685,5.6785,5.7109,5.7044,5.7006,5.7006,5.6726,5.6445,5.6381,5.5717,5.524,5.5564,5.4924,5.4302,5.4487,5.3997,0.0,0.0,5.3741,5.3835,5.3835,5.3835,5.3774,5.3624,5.3171,5.2861,5.2861,5.2738,5.2588,5.2588,5.2492,5.2368,5.2368,5.1846,5.1753,5.2067,5.1753,5.1753,5.2067,5.1753,5.1596,5.1596,5.1934,5.2121,5.2121,5.2306,5.2465,5.2588,5.2799,5.2983,5.3132,5.347,5.3592,5.3592,5.3592,5.3592,5.3592,7.0363,7.0729,7.1226,7.1958,7.2559,7.2925,7.2925,7.2925,7.2506,7.1356,7.086,7.0363,6.9762,7.0232,7.018,6.9135,6.9318,6.8873,6.7383,6.7044,6.6887,6.6887,6.592,6.5371,6.5371,6.4822,6.4325,6.3881,6.4325,6.4532,6.4471,6.3891,6.4319,6.542,6.378,6.3514,6.4283,6.3822,6.3822,6.3984,6.2273,6.1851,6.2013,6.0935,6.0154,5.9588,5.9264,5.872,5.8178,5.8964,5.8802,5.8395,5.9019,5.8774,5.8178,5.7553,5.7282,5.7174,5.7174,5.7174,5.7174,5.7174,5.7174,5.7174,5.7174,5.7006,5.6877,5.7109,5.6141,5.5474,5.6323,5.5518,5.4704,5.4704,0.0,0.0,0.0,5.4189,5.4541,5.4677,5.4569,5.4487,5.4487,5.3835,5.3443,5.3443,5.3305,5.3262,5.3262,5.32,5.2997,5.2801,5.2305,5.2229,5.2612,5.2297,5.2439,5.2949,5.2282,5.1993,5.2056,5.2235,5.2306,5.2368,5.2615,5.2773,5.2861,5.3044,5.3132,5.3227,5.347,5.3592,5.3592,5.3592,5.3592,5.3592,6.9657,6.9788,7.018,7.1278,7.1958,7.2376,7.2376,7.2376,7.1958,7.0807,7.0624,7.0363,6.9762,7.0232,7.0337,6.9684,6.9187,6.8638,6.7958,6.6939,6.6338,6.6338,6.5737,6.5371,6.5371,6.4822,6.4508,6.4482,6.4508,6.4742,6.5105,6.4524,6.4718,6.5447,6.421,6.3919,6.431,6.4256,6.3957,6.3469,6.3262,6.2909,6.2394,6.1717,6.1189,6.062,6.0023,5.9073,5.8259,5.9426,5.9426,5.9046,5.9643,5.9426,5.8802,5.8178,5.7608,5.7174,5.7174,5.7174,5.7174,5.7174,5.7174,5.7174,5.7174,5.7174,5.7174,5.7174,5.6685,5.6414,5.7011,5.6142,5.5355,5.5355,0.0,0.0,5.4433,5.446,5.4704,5.5274,5.484,5.4487,5.4487,5.4433,5.4406,5.4406,5.4886,5.5212,5.5212,5.4871,5.4315,5.3467,5.3378,5.3217,5.2991,5.3493,5.3911,5.4256,5.3329,5.3038,5.3352,5.3128,5.301,5.3071,5.3044,5.3227,5.347,5.3254,5.3288,5.3592,5.3592,5.3592,5.3592,5.3592,5.3592,5.3592,6.9579,6.9684,6.9945,7.0755,7.1095,7.1356,7.1696,7.1748,7.1461,7.0703,7.0886,7.0886,7.0311,7.0128,6.9814,6.9213,6.8298,6.7357,6.6442,6.5972,6.5737,6.5737,6.5501,6.5371,6.5371,6.4482,6.4168,6.4534,6.4168,6.4272,6.4769,6.4191,6.4548,6.5605,6.4028,6.3915,6.4826,6.4473,6.4174,6.3957,6.3577,6.3062,6.2394,6.1841,6.1271,6.0701,6.0104,5.9589,5.9263,5.9724,5.9751,5.9589,5.9806,5.9724,5.9344,5.8367,5.7906,5.7662,5.7282,5.7174,5.7174,5.7174,5.7174,5.7174,5.7174,5.7174,5.7174,5.7174,5.6712,5.6468,5.7065,5.6522,5.5952,5.5952,0.0,5.5491,5.5111,5.5383,5.5545,5.5437,5.5545,5.5464,5.5084,5.5057,5.5057,5.5057,5.5274,5.541,5.541,5.5284,5.4988,5.4369,5.4907,5.4807,5.3864,5.4076,5.4432,5.497,5.3821,5.3395,5.3494,5.3217,5.3132,5.3132,5.3288,5.347,5.3592,5.347,5.347,5.3592,5.3592,5.3592,5.3592,5.3592,5.3592,5.3592,6.9344,6.9579,6.9893,7.0494,7.0729,7.1043,7.1592,7.1513,7.1278,7.0886,7.1173,7.12,7.0651,7.0232,6.9605,6.8664,6.7671,6.6599,6.5449,6.5371,6.5371,6.5371,6.5371,6.5371,6.5371,6.443,6.4142,6.4534,6.4142,6.4142,6.4534,6.4298,6.4762,6.5695,6.4274,6.421,6.5151,6.4554,6.431,6.4256,6.3876,6.3442,6.3008,6.2193,6.1651,6.1217,6.043,6.005,5.9914,6.0104,6.005,5.9914,6.0104,6.0023,5.9616,5.8205,5.7933,5.7933,5.7336,5.7174,5.7174,5.7174,5.7174,5.7174,5.7174,5.7174,5.7174,5.7174,5.6848,5.6712,5.7092,5.6848,5.6522,5.6332,5.6305,5.617,5.5762,5.6034,5.6224,5.6007,5.617,5.6142,5.5735,5.5681,5.5681,5.5681,5.5871,5.598,5.598,5.579,5.5555,5.5339,5.5961,5.5898,5.4985,5.4922,5.5109,5.5639,5.4243,5.3682,5.3806,5.3462,5.3227,5.3227,5.347,5.3592,5.3592,5.3592,5.3592,5.3592,5.3592,5.3592,5.3592,5.3592,5.3592,5.3592,6.8764,6.9291,6.9893,7.0494,7.1043,7.1592,7.2193,7.1775,7.1382,7.1382,7.1382,7.12,7.0651,7.0572,6.9866,6.8141,6.7436,6.6599,6.5449,6.5371,6.5371,6.5371,6.5371,6.5371,6.5371,6.4822,6.4534,6.4534,6.4534,6.4534,6.4534,6.5028,6.539,6.5799,6.5002,6.4836,6.5151,6.4554,6.431,6.431,6.431,6.431,6.4174,6.298,6.2476,6.2383,6.1189,6.0403,5.9996,6.0565,6.0375,5.9996,6.0593,6.0375,5.9534,5.7716,5.7608,5.7933,5.7336,5.7174,5.7174,5.7174,5.7174,5.7174,5.7174,5.7174,5.7174,5.7174,5.7174,5.7174,5.7174,5.7174,5.6984,5.6387,5.6305,5.6305,5.6305,5.6305,5.6522,5.7092,5.6658,5.6305,5.6305,5.6305,5.6305,5.6305,5.6848,5.7174,5.7174,5.6631,5.6305,5.6305,5.6305,5.6305,5.6305,5.5986,5.5986,5.6278,5.4772,5.4179,5.446,5.3863,5.3592,5.3592,5.3592,5.3592,5.3592,5.3592,5.3592,5.3592,5.3592,5.3592,5.3592,5.3592,5.3592,5.3592,6.8246,6.903,6.9762,6.9919,7.0442,7.0886,7.1069,7.0938,7.0677,7.0259,7.0572,7.0624,7.0023,6.9239,6.856,6.8037,6.6704,6.5737,6.5397,6.5371,6.5371,6.5371,6.5371,6.5555,6.5792,6.4979,6.4822,6.5529,6.4822,6.4822,6.5529,6.5712,6.6155,6.6826,6.5694,6.5457,6.5775,6.4744,6.431,6.431,6.431,6.4066,6.3659,6.3306,6.2899,6.2367,6.1651,6.1244,6.1054,6.0837,6.0647,6.0538,6.0701,6.0375,5.9697,5.8747,5.8286,5.7933,5.7336,5.7174,5.7174,5.7174,5.7174,5.7174,5.7174,5.7174,5.7174,5.7174,5.7174,5.7174,5.7174,5.7174,5.7119,5.6956,5.6929,5.6929,5.6929,5.6929,5.6821,5.6604,5.6766,5.6766,5.6332,5.6685,5.6929,5.6929,5.7092,5.7174,5.7174,5.7011,5.6929,5.6929,5.6929,5.6712,5.6305,5.6178,5.6178,5.6278,5.4995,5.4426,5.446,5.3863,5.3592,5.3592,5.3592,5.3592,5.3592,5.3592,5.3592,5.3592,5.3592,5.3592,5.3592,5.3592,5.3592,5.3592,6.7985,6.9108,6.9971,6.9736,7.0572,7.12,7.0938,7.0729,7.0546,7.0389,7.0285,7.0102,6.9736,6.8664,6.788,6.7645,6.6259,6.5371,6.5371,6.5371,6.5371,6.5371,6.5371,6.5634,6.595,6.5293,6.5084,6.5685,6.5084,6.5005,6.545,6.6001,6.6603,6.7017,6.6115,6.5877,6.6047,6.4826,6.431,6.431,6.431,6.4093,6.374,6.3523,6.3197,6.279,6.1922,6.1597,6.1515,6.0945,6.0782,6.0728,6.0484,6.0158,5.9724,5.8883,5.853,5.8259,5.7418,5.7363,5.7472,5.7255,5.7174,5.7174,5.7174,5.7174,5.7174,5.7174,5.7174,5.7174,5.7174,5.7174,5.7174,5.7174,5.7174,5.7174,5.7174,5.7174,5.7038,5.6685,5.6766,5.6794,5.6658,5.6766,5.6929,5.7174,5.7174,5.7174,5.7174,5.7174,5.7174,5.7174,5.7174,5.6902,5.6305,5.6061,5.5817,5.5573,5.4596,5.4134,5.4107,5.3754,5.3592,5.3592,5.3592,5.3592,5.3592,5.3592,5.3592,5.3592,5.3592,5.3592,5.3592,5.3592,5.3592,5.3592,6.7906,6.9318,7.0337,6.9788,7.1043,7.1931,7.1278,7.0755,7.0572,7.0964,7.0102,6.9474,6.9474,6.8481,6.7619,6.707,6.6024,6.5371,6.5371,6.5371,6.5371,6.5371,6.5371,6.5634,6.595,6.5634,6.5372,6.5263,6.5372,6.5109,6.4691,6.5972,6.6679,6.6704,6.6212,6.6047,6.5965,6.4798,6.431,6.431,6.431,6.431,6.4256,6.3713,6.3496,6.336,6.2193,6.1732,6.1597,6.0972,6.0782,6.0674,6.0131,5.9887,5.9589,5.853,5.8557,5.8666,5.7553,5.7662,5.7933,5.7336,5.7174,5.7174,5.7174,5.7174,5.7174,5.7174,5.7174,5.7174,5.7174,5.7174,5.7174,5.7174,5.7174,5.7174,5.7174,5.7174,5.7174,5.7119,5.6685,5.6577,5.7065,5.6658,5.6604,5.7146,5.7174,5.7174,5.7174,5.7174,5.7174,5.7174,5.7146,5.6821,5.6224,5.5627,5.503,5.446,5.389,5.3592,5.3592,5.3592,5.3592,5.3592,5.3592,5.3592,5.3592,5.3592,5.3592,5.3592,5.3592,5.3592,5.3592,5.3592,5.3592,5.3592,6.7279,6.869,6.984,6.971,7.0389,7.0624,6.9553,6.9291,6.8926,6.8115,6.7802,6.7645,6.7645,6.7044,6.6599,6.6469,6.5789,6.5371,6.5371,6.5371,6.5371,6.5371,6.5371,6.5634,6.595,6.5634,6.5556,6.5844,6.5556,6.5634,6.6234,6.6044,6.6347,6.6931,6.5864,6.5395,6.5341,6.4609,6.431,6.431,6.431,6.431,6.431,6.4147,6.412,6.4012,6.3279,6.2736,6.2166,6.1135,6.0782,6.0755,6.062,5.9941,5.9236,5.9426,5.891,5.8205,5.796,5.796,5.7933,5.7336,5.7174,5.7174,5.7174,5.7174,5.7174,5.7174,5.7174,5.7174,5.7174,5.7174,5.7174,5.7174,5.7174,5.7174,5.7174,5.7174,5.7011,5.6549,5.6794,5.6848,5.6522,5.6794,5.7038,5.7174,5.7174,5.7174,5.7174,5.7174,5.7174,5.7174,5.6739,5.6224,5.56,5.5003,5.4623,5.446,5.389,5.3592,5.3592,5.3592,5.3592,5.3592,5.3592,5.3592,5.3592,5.3592,5.3592,5.3592,5.3592,5.3592,5.3592,5.3592,5.3592,5.3592,6.7096,6.8272,6.9291,6.9291,6.9788,6.9866,6.8894,6.9082,6.8821,6.7671,6.7514,6.741,6.7148,6.6625,6.6155,6.5867,6.5554,6.5501,6.5789,6.5554,6.5501,6.5789,6.5528,6.5634,6.595,6.5634,6.5634,6.6028,6.5792,6.595,6.6342,6.6146,6.6473,6.7071,6.5782,6.5368,6.5585,6.469,6.431,6.431,6.431,6.431,6.431,6.431,6.412,6.3849,6.3523,6.2845,6.2031,6.1705,6.1244,6.081,6.1081,6.0375,5.948,5.9806,5.9426,5.8802,5.8232,5.8286,5.8313,5.7418,5.7174,5.7174,5.7174,5.7174,5.7174,5.7174,5.7174,5.7174,5.7174,5.7174,5.7174,5.7174,5.7174,5.7174,5.7174,5.7174,5.7065,5.6766,5.6739,5.6631,5.6332,5.6848,5.7174,5.7174,5.7174,5.7174,5.7174,5.7174,5.7174,5.7174,5.6875,5.6441,5.5844,5.5247,5.4786,5.446,5.389,5.3592,5.3592,5.3592,5.3592,5.3592,5.3592,5.3592,5.3592,5.3592,5.3592,5.3592,5.3592,5.3592,5.3592,5.3592,5.3592,5.3592,6.707,6.788,6.8503,6.869,6.9004,6.9056,6.8481,6.8821,6.8743,6.7671,6.754,6.7357,6.6887,6.6416,6.592,6.5423,6.5475,6.5711,6.6103,6.5763,6.5711,6.6103,6.5738,6.5634,6.595,6.5792,6.5713,6.6028,6.595,6.595,6.6107,6.6116,6.6523,6.7053,6.5654,6.5314,6.5748,6.4744,6.431,6.431,6.431,6.431,6.431,6.4201,6.3903,6.355,6.3469,6.2709,6.1841,6.2356,6.1759,6.0864,6.1434,6.081,5.9914,5.9996,5.9968,5.967,5.8666,5.8693,5.8747,5.7608,5.7255,5.7174,5.7174,5.7174,5.7174,5.7174,5.7174,5.7174,5.7174,5.7174,5.7174,5.7174,5.7174,5.7174,5.7174,5.7174,5.7174,5.7174,5.6739,5.6441,5.6441,5.6902,5.7174,5.7174,5.7174,5.7174,5.7174,5.7174,5.7174,5.7174,5.7092,5.6794,5.6305,5.56,5.5003,5.446,5.3972,5.37,5.3592,5.37,5.37,5.3619,5.37,5.37,5.3592,5.3592,5.3592,5.3592,5.3592,5.3592,5.3592,5.3592,5.3592,5.3592,6.7072,6.7227,6.7514,6.8011,6.7723,6.7253,6.6704,6.6704,6.6495,6.5815,6.5737,6.5711,6.5632,6.5554,6.5475,6.5397,6.5867,6.5972,6.5528,6.592,6.5972,6.5528,6.5766,6.595,6.6028,6.6369,6.6369,6.6028,6.5634,6.5871,6.6577,6.5536,6.5538,6.6243,6.5016,6.4473,6.4554,6.4364,6.431,6.431,6.431,6.431,6.4256,6.374,6.3822,6.412,6.3605,6.298,6.2367,6.2448,6.1759,6.0864,6.1434,6.081,5.9996,6.0511,6.0294,5.986,5.9697,5.9317,5.8829,5.8123,5.7553,5.7174,5.7174,5.7174,5.7174,5.7174,5.7174,5.7174,5.7174,5.7174,5.7174,5.7174,5.7174,5.7174,5.7174,5.7174,5.7174,5.7174,5.7119,5.7065,5.7065,5.7146,5.7174,5.7174,5.7174,5.7174,5.7174,5.7174,5.7174,5.7174,5.6685,5.6387,5.6305,5.5166,5.4569,5.4487,5.4406,5.408,5.3619,5.4134,5.408,5.3619,5.4134,5.408,5.3592,5.3592,5.3592,5.3592,5.3592,5.3592,5.3592,5.3592,5.3592,5.3592,6.668,6.6652,6.6834,6.7383,6.7017,6.6547,6.6312,6.6547,6.6416,6.5501,6.5684,6.5763,6.5423,6.5371,6.5371,6.5371,6.5632,6.5815,6.5867,6.5815,6.5815,6.5894,6.5976,6.6107,6.6369,6.6603,6.6681,6.6732,6.6342,6.642,6.7043,6.6109,6.6012,6.6562,6.5341,6.4798,6.4771,6.4446,6.431,6.431,6.431,6.431,6.4283,6.4012,6.3876,6.3767,6.3523,6.3252,6.3035,6.3035,6.2248,6.1271,6.1542,6.1054,6.043,6.0701,6.0593,6.0321,5.9968,5.9697,5.9263,5.8313,5.7879,5.7581,5.7255,5.7174,5.7174,5.7174,5.7174,5.7174,5.7174,5.7174,5.7174,5.7174,5.7174,5.7174,5.7174,5.7174,5.7174,5.7174,5.7174,5.7174,5.7174,5.7174,5.7174,5.7174,5.7174,5.7174,5.7174,5.7174,5.7174,5.7174,5.6929,5.6794,5.6794,5.56,5.5166,5.5491,5.4813,5.4351,5.4107,5.4731,5.4867,5.4623,5.4514,5.4324,5.408,5.3727,5.3592,5.3592,5.3592,5.3592,5.3592,5.3592,5.3592,5.3592]}]]